[[{"header":{"parameterUnit":"m.s-1","parameterCategory":1,"la1":30.6,"la2":29.2853,"lo1":-89.7004,"lo2":-87.6739,"dy":0.0162,"dx":0.0183,"nx":112,"ny":82,"refTime":"2024-09-04T12:00:00:Z","depth":0,"parameterNumber":2,"parameterNumberName":"U-component_of_WINDS"},"data":[0.0,0.0,0.0,0.0,0.0,0.0,0.0,0.0,0.0,0.0,0.0,0.0,0.0,0.0,0.0,0.0,0.0,0.0,0.0,0.0,0.0,0.0,0.0,0.0,0.0,0.0,0.0,0.0,0.0,0.0,0.0,0.0,0.0,0.0,0.0,0.0,0.0,0.0,0.0,0.0,0.0,0.0,0.0,0.0,0.0,0.0,0.0,0.0,0.0,0.0,0.0,0.0,0.0,0.0,0.0,0.0,0.0,0.0,0.0,0.0,0.0,0.0,0.0,0.0,0.0,0.0,0.0,0.0,0.0,0.0,0.0,0.0,0.0,0.0,0.0,0.0,0.0,0.0,0.0,0.0,0.0,0.0,0.0,0.0,0.0,0.0,0.0,0.0,0.0,0.0,2.2756,2.5239,2.8327,3.0059,2.9715,2.9403,2.75,2.3549,0.0,0.0,0.0,0.0,0.0,0.0,0.0,0.0,0.0,0.0,0.0,0.0,0.0,0.0,0.0,0.0,0.0,0.0,0.0,0.0,0.0,0.0,0.0,0.0,0.0,0.0,0.0,0.0,0.0,0.0,0.0,0.0,0.0,0.0,0.0,0.0,0.0,0.0,0.0,0.0,0.0,0.0,0.0,0.0,0.0,0.0,0.0,0.0,0.0,0.0,0.0,0.0,0.0,0.0,0.0,0.0,0.0,0.0,0.0,0.0,0.0,0.0,0.0,0.0,0.0,0.0,0.0,0.0,0.0,0.0,0.0,0.0,0.0,0.0,0.0,0.0,0.0,0.0,0.0,0.0,0.0,0.0,0.0,0.0,0.0,0.0,0.0,0.0,0.0,0.0,0.0,0.0,0.0,0.0,0.0,0.0,0.0,0.0,0.0,0.0,0.0,0.0,0.0,0.0,2.2852,2.6881,2.9023,3.0176,3.0098,2.8437,2.6484,2.4332,0.0,0.0,0.0,0.0,0.0,0.0,0.0,0.0,0.0,0.0,0.0,0.0,0.0,0.0,0.0,0.0,0.0,0.0,0.0,0.0,0.0,0.0,0.0,0.0,0.0,0.0,0.0,0.0,0.0,0.0,0.0,0.0,0.0,0.0,0.0,0.0,0.0,0.0,0.0,0.0,0.0,0.0,0.0,0.0,0.0,0.0,0.0,0.0,0.0,0.0,0.0,0.0,0.0,0.0,0.0,0.0,0.0,0.0,0.0,0.0,0.0,0.0,0.0,0.0,0.0,0.0,0.0,0.0,0.0,0.0,0.0,0.0,0.0,0.0,0.0,0.0,0.0,0.0,0.0,0.0,0.0,0.0,0.0,0.0,0.0,0.0,0.0,0.0,0.0,0.0,0.0,0.0,0.0,0.0,0.0,0.0,0.0,0.0,0.0,0.0,0.0,0.0,0.0,2.2922,2.4937,2.8367,2.9852,3.0469,3.0215,2.8672,2.666,2.4238,2.2031,0.0,0.0,0.0,0.0,0.0,0.0,0.0,0.0,0.0,0.0,0.0,0.0,0.0,0.0,0.0,0.0,0.0,0.0,0.0,0.0,0.0,0.0,0.0,0.0,0.0,0.0,0.0,0.0,0.0,0.0,0.0,0.0,0.0,0.0,0.0,0.0,0.0,0.0,0.0,0.0,0.0,0.0,0.0,0.0,0.0,0.0,0.0,0.0,0.0,0.0,0.0,0.0,0.0,0.0,0.0,0.0,0.0,0.0,0.0,0.0,0.0,0.0,0.0,0.0,0.0,0.0,0.0,0.0,0.0,0.0,0.0,0.0,0.0,0.0,0.0,0.0,0.0,0.0,0.0,0.0,0.0,0.0,0.0,0.0,0.0,0.0,0.0,0.0,0.0,0.0,0.0,0.0,0.0,0.0,0.0,0.0,0.0,0.0,0.0,0.0,0.0,0.0,2.5547,2.7051,2.9344,3.04,3.0703,3.0234,2.8652,2.6523,2.3809,2.0801,0.0,0.0,0.0,0.0,0.0,0.0,0.0,0.0,0.0,0.0,0.0,0.0,0.0,0.0,0.0,0.0,0.0,0.0,0.0,0.0,0.0,0.0,0.0,0.0,0.0,0.0,0.0,0.0,0.0,0.0,0.0,0.0,0.0,0.0,0.0,0.0,0.0,0.0,0.0,0.0,0.0,0.0,0.0,0.0,0.0,0.0,0.0,0.0,0.0,0.0,0.0,0.0,0.0,0.0,0.0,0.0,0.0,0.0,0.0,0.0,0.0,0.0,0.0,0.0,0.0,0.0,0.0,0.0,0.0,0.0,0.0,0.0,0.0,0.0,0.0,0.0,0.0,0.0,0.0,0.0,0.0,0.0,0.0,0.0,0.0,0.0,0.0,0.0,0.0,0.0,0.0,0.0,0.0,0.0,0.0,0.0,0.0,0.0,0.0,0.0,0.0,0.0,2.5762,2.8073,2.9461,3.04,3.0703,3.0234,2.7532,2.5089,2.3257,1.9221,0.0,0.0,0.0,0.0,0.0,0.0,0.0,0.0,0.0,0.0,0.0,0.0,0.0,0.0,0.0,0.0,0.0,0.0,0.0,0.0,0.0,0.0,0.0,0.0,0.0,0.0,0.0,0.0,0.0,0.0,0.0,0.0,0.0,0.0,0.0,0.0,0.0,0.0,0.0,0.0,0.0,0.0,0.0,0.0,0.0,0.0,0.0,0.0,0.0,0.0,0.0,0.0,0.0,0.0,0.0,0.0,0.0,0.0,0.0,0.0,0.0,0.0,0.0,0.0,0.0,0.0,0.0,0.0,0.0,0.0,0.0,0.0,0.0,0.0,0.0,0.0,0.0,0.0,0.0,0.0,0.0,0.0,0.0,0.0,0.0,0.0,0.0,0.0,0.0,0.0,0.0,0.0,0.0,0.0,0.0,0.0,0.0,0.0,0.0,0.0,0.0,0.0,2.5644,2.78,3.0165,3.0684,3.0488,2.9492,2.7891,2.5625,2.2559,0.0,0.0,0.0,0.0,0.0,0.0,0.0,0.0,0.0,0.0,0.0,0.0,0.0,0.0,0.0,0.0,0.0,0.0,0.0,0.0,0.0,0.0,0.0,0.0,0.0,0.0,0.0,0.0,0.0,0.0,0.0,0.0,0.0,0.0,0.0,0.0,0.0,0.0,0.0,0.0,0.0,0.0,0.0,0.0,0.0,0.0,0.0,0.0,0.0,0.0,0.0,0.0,0.0,0.0,0.0,0.0,0.0,0.0,0.0,0.0,0.0,0.0,0.0,0.0,0.0,0.0,0.0,0.0,0.0,0.0,0.0,0.0,0.0,0.0,0.0,0.0,0.0,0.0,0.0,0.0,0.0,0.0,0.0,0.0,0.0,0.0,0.0,0.0,0.0,0.0,0.0,0.0,0.0,0.0,0.0,0.0,0.0,0.0,0.0,0.0,0.0,0.0,2.3672,2.584,2.7956,3.041,3.0801,3.0351,2.8996,2.7663,2.5395,2.1894,0.0,0.0,0.0,0.0,0.0,0.0,0.0,0.0,0.0,0.0,0.0,0.0,0.0,0.0,0.0,0.0,0.0,0.0,0.0,0.0,0.0,0.0,0.0,0.0,0.0,0.0,0.0,0.0,0.0,0.0,0.0,0.0,0.0,0.0,0.0,0.0,0.0,0.0,0.0,0.0,0.0,0.0,0.0,0.0,0.0,0.0,0.0,0.0,0.0,0.0,0.0,0.0,0.0,0.0,0.0,0.0,0.0,0.0,0.0,0.0,0.0,0.0,0.0,0.0,0.0,0.0,0.0,0.0,0.0,0.0,0.0,0.0,0.0,0.0,0.0,0.0,0.0,0.0,0.0,0.0,0.0,0.0,0.0,0.0,0.0,0.0,0.0,0.0,0.0,0.0,0.0,0.0,0.0,0.0,0.0,0.0,0.0,0.0,0.0,0.0,0.0,0.0,2.3398,2.6426,2.8789,3.0059,3.0605,3.0351,2.8996,2.6588,2.4007,0.0,0.0,0.0,0.0,0.0,0.0,0.0,0.0,0.0,0.0,0.0,0.0,0.0,0.0,0.0,0.0,0.0,0.0,0.0,0.0,0.0,0.0,0.0,0.0,0.0,0.0,0.0,0.0,0.0,0.0,0.0,0.0,0.0,0.0,0.0,0.0,0.0,0.0,0.0,0.0,0.0,0.0,0.0,0.0,0.0,0.0,0.0,0.0,0.0,0.0,0.0,0.0,0.0,0.0,0.0,0.0,0.0,0.0,0.0,0.0,0.0,0.0,0.0,0.0,0.0,0.0,0.0,0.0,0.0,0.0,0.0,0.0,0.0,0.0,0.0,0.0,0.0,0.0,0.0,0.0,0.0,0.0,0.0,0.0,0.0,0.0,0.0,0.0,0.0,0.0,0.0,0.0,0.0,0.0,0.0,0.0,0.0,0.0,0.0,0.0,0.0,0.0,0.0,2.3398,2.6426,2.8789,3.0059,3.0605,3.0234,2.8613,2.7226,2.4824,2.1016,0.0,0.0,0.0,0.0,0.0,0.0,0.0,0.0,0.0,0.0,0.0,0.0,0.0,0.0,0.0,0.0,0.0,0.0,0.0,0.0,0.0,0.0,0.0,0.0,0.0,0.0,0.0,0.0,0.0,0.0,0.0,0.0,0.0,0.0,0.0,0.0,0.0,0.0,0.0,0.0,0.0,0.0,0.0,0.0,0.0,0.0,0.0,0.0,0.0,0.0,0.0,0.0,0.0,0.0,0.0,0.0,0.0,0.0,0.0,0.0,0.0,0.0,0.0,0.0,0.0,0.0,0.0,0.0,0.0,0.0,0.0,0.0,0.0,0.0,0.0,0.0,0.0,0.0,0.0,0.0,0.0,0.0,0.0,0.0,0.0,0.0,0.0,0.0,0.0,0.0,0.0,0.0,0.0,0.0,0.0,0.0,0.0,0.0,0.0,0.0,0.0,0.0,2.3652,2.6523,2.8789,3.0059,3.0449,3.0059,2.8652,2.7754,2.5586,2.1622,0.0,0.0,0.0,0.0,0.0,0.0,0.0,0.0,0.0,0.0,0.0,0.0,0.0,0.0,0.0,0.0,0.0,0.0,0.0,0.0,0.0,0.0,0.0,0.0,0.0,0.0,0.0,0.0,0.0,0.0,0.0,0.0,0.0,0.0,0.0,0.0,0.0,0.0,0.0,0.0,0.0,0.0,0.0,0.0,0.0,0.0,0.0,0.0,0.0,0.0,0.0,0.0,0.0,0.0,0.0,0.0,0.0,0.0,0.0,0.0,0.0,0.0,0.0,0.0,0.0,0.0,0.0,0.0,0.0,0.0,0.0,0.0,0.0,0.0,0.0,0.0,0.0,0.0,0.0,0.0,0.0,0.0,0.0,0.0,0.0,0.0,0.0,0.0,0.0,0.0,0.0,0.0,0.0,0.0,0.0,0.0,0.0,0.0,0.0,0.0,0.0,0.0,2.3984,2.666,2.875,2.9941,3.0156,2.9844,2.8918,2.8125,2.6236,2.2793,0.0,0.0,0.0,0.0,0.0,0.0,0.0,0.0,0.0,0.0,0.0,0.0,0.0,0.0,0.0,0.0,0.0,0.0,0.0,0.0,0.0,0.0,0.0,0.0,0.0,0.0,0.0,0.0,0.0,0.0,0.0,0.0,0.0,0.0,0.0,0.0,0.0,0.0,0.0,0.0,0.0,0.0,0.0,0.0,0.0,0.0,0.0,0.0,0.0,0.0,0.0,0.0,0.0,0.0,0.0,0.0,0.0,0.0,0.0,0.0,2.6206,2.4632,0.0,0.0,0.0,0.0,0.0,0.0,0.0,0.0,0.0,0.0,0.0,0.0,0.0,0.0,0.0,0.0,0.0,0.0,0.0,0.0,0.0,0.0,0.0,0.0,0.0,0.0,0.0,0.0,0.0,0.0,0.0,0.0,0.0,0.0,0.0,0.0,0.0,0.0,0.0,0.0,2.3613,2.6484,2.8516,2.9094,2.9805,2.9726,2.8535,2.7976,2.6353,2.3245,2.1231,0.0,0.0,0.0,0.0,0.0,0.0,0.0,0.0,0.0,0.0,0.0,0.0,0.0,0.0,0.0,0.0,0.0,0.0,0.0,0.0,0.0,0.0,0.0,0.0,0.0,0.0,0.0,0.0,0.0,0.0,0.0,0.0,0.0,0.0,0.0,0.0,0.0,0.0,0.0,0.0,0.0,0.0,0.0,0.0,0.0,0.0,0.0,0.0,0.0,0.0,0.0,0.0,0.0,0.0,0.0,0.0,0.0,0.0,0.0,3.0331,2.8825,0.0,0.0,0.0,0.0,0.0,0.0,0.0,0.0,0.0,0.0,0.0,0.0,0.0,0.0,0.0,0.0,0.0,0.0,0.0,0.0,0.0,0.0,0.0,0.0,0.0,0.0,0.0,0.0,0.0,0.0,0.0,0.0,0.0,0.0,0.0,0.0,0.0,0.0,0.0,0.0,2.4144,2.668,2.8457,2.884,2.9316,2.9394,2.8973,2.8367,2.7057,2.4867,2.2717,0.0,0.0,0.0,0.0,0.0,0.0,0.0,0.0,0.0,0.0,0.0,0.0,0.0,0.0,0.0,0.0,0.0,0.0,0.0,0.0,0.0,0.0,0.0,0.0,0.0,0.0,0.0,0.0,0.0,0.0,0.0,0.0,0.0,0.0,0.0,0.0,0.0,0.0,0.0,0.0,0.0,0.0,0.0,0.0,0.0,0.0,0.0,0.0,0.0,0.0,0.0,0.0,0.0,3.4396,3.5479,3.7237,3.6737,3.7037,3.7739,3.4525,3.3596,3.4098,3.1039,0.0,0.0,0.0,0.0,0.0,0.0,0.0,0.0,0.0,0.0,0.0,0.0,0.0,0.0,0.0,0.0,0.0,0.0,0.0,0.0,0.0,0.0,2.4498,2.5707,2.6079,2.529,2.213,0.0,0.0,0.0,0.0,0.0,0.0,0.0,0.0,0.0,0.0,0.0,2.4945,2.7037,2.8418,2.8769,2.8676,2.8721,2.9039,2.826,2.7225,2.5983,2.377,2.2026,0.0,0.0,0.0,0.0,0.0,0.0,0.0,0.0,0.0,0.0,0.0,0.0,0.0,0.0,0.0,0.0,0.0,0.0,0.0,0.0,0.0,0.0,0.0,0.0,0.0,0.0,0.0,0.0,0.0,0.0,0.0,0.0,2.4406,2.5695,0.0,0.0,0.0,0.0,0.0,0.0,0.0,0.0,0.0,0.0,0.0,0.0,0.0,3.3649,3.4731,3.6784,3.7914,3.814,3.9546,4.0374,4.065,4.0548,4.0625,4.075,4.0223,0.0,3.5904,3.4022,0.0,0.0,0.0,0.0,0.0,0.0,0.0,0.0,0.0,0.0,0.0,0.0,0.0,0.0,0.0,0.0,0.0,0.0,0.0,0.0,0.0,0.0,2.8107,2.799,2.795,2.7819,2.7304,2.4585,2.1917,2.082,1.9824,1.8789,0.0,0.0,0.0,0.0,0.0,0.0,2.5386,2.7187,2.832,2.8359,2.782,2.729,2.6938,2.6109,2.5103,2.3974,2.3134,2.2411,2.1834,1.9424,0.0,0.0,0.0,0.0,0.0,0.0,0.0,0.0,0.0,0.0,0.0,0.0,0.0,0.0,0.0,0.0,0.0,0.0,0.0,0.0,0.0,0.0,0.0,0.0,0.0,0.0,0.0,0.0,0.0,2.4315,2.705,2.6959,2.804,2.8015,0.0,0.0,0.0,0.0,0.0,0.0,0.0,0.0,0.0,3.6256,3.6582,3.7537,3.9245,4.025,4.1054,4.1656,4.2384,4.2858,4.3159,4.3159,4.2925,4.246,4.2133,4.0474,3.7919,3.6529,3.5073,3.3455,0.0,0.0,0.0,0.0,3.1143,3.1343,3.3109,3.336,3.2667,3.1346,0.0,0.0,0.0,0.0,0.0,0.0,0.0,2.6535,2.7125,2.8084,2.8976,2.9297,2.957,2.9687,2.9414,2.7851,2.5859,2.3789,2.3342,2.2461,1.9902,2.0059,0.0,0.0,0.0,2.4778,2.5352,2.6589,2.7103,2.6373,2.5685,2.5364,2.5566,2.4889,2.4206,2.3693,2.3168,2.2671,2.223,2.0589,1.9456,0.0,0.0,0.0,0.0,0.0,0.0,0.0,0.0,0.0,0.0,0.0,0.0,0.0,0.0,0.0,0.0,0.0,0.0,0.0,0.0,0.0,0.0,0.0,0.0,0.0,0.0,0.0,0.0,2.6824,2.9233,2.8442,3.0432,3.0783,0.0,0.0,0.0,0.0,0.0,0.0,3.5027,3.5429,3.6985,4.0075,4.0301,4.1306,4.324,4.324,4.3668,4.4443,4.4292,4.4518,4.5016,4.4682,4.4033,4.3237,4.2556,4.1153,3.9262,3.8096,3.689,3.5572,3.3959,3.3005,3.2578,3.3506,3.3696,3.3719,3.5632,3.5933,3.5235,3.3671,3.2381,3.0962,2.8366,0.0,0.0,0.0,0.0,2.7928,2.8914,2.9263,2.959,3.0215,3.0644,3.0801,3.0449,3.0137,2.9168,2.6568,2.6431,2.5747,2.2619,2.2592,0.0,2.2478,2.3951,2.5046,2.4925,2.5606,2.5695,2.4703,2.386,2.3573,2.4133,2.3477,2.301,2.2914,2.26,2.236,2.2148,2.1064,2.0191,1.9635,0.0,0.0,0.0,0.0,0.0,0.0,0.0,0.0,0.0,0.0,0.0,0.0,0.0,0.0,0.0,0.0,0.0,0.0,0.0,0.0,0.0,0.0,0.0,0.0,0.0,0.0,0.0,0.0,0.0,3.1205,3.3599,0.0,0.0,0.0,0.0,3.3571,3.4603,3.6208,3.8517,3.9622,4.1229,4.3489,4.4066,4.4865,4.6075,4.61,4.6125,4.6175,4.5648,4.5698,4.617,4.4827,4.3752,4.2881,4.2026,4.083,3.9388,3.8202,3.6593,3.49,3.4284,3.3741,3.3281,3.3597,3.4032,3.4494,3.4868,3.4725,3.4453,3.4847,3.3318,3.1359,3.1685,3.036,0.0,0.0,2.9761,3.012,3.0134,3.0458,3.0801,3.084,3.0879,3.0879,3.0859,3.084,3.041,2.9004,2.8151,2.7311,2.6269,0.0,2.4198,2.3834,2.3589,2.3601,2.4088,2.4305,2.4395,2.4322,2.3035,2.2199,2.2243,2.1438,2.0812,2.0486,2.0755,2.1061,2.1438,1.9895,1.9483,2.0505,1.7258,0.0,0.0,0.0,0.0,0.0,0.0,0.0,0.0,0.0,0.0,0.0,0.0,0.0,0.0,0.0,0.0,0.0,0.0,0.0,0.0,0.0,0.0,0.0,0.0,0.0,0.0,0.0,0.0,3.4,3.6207,0.0,3.4823,3.5301,3.6281,3.7538,3.8617,4.0223,4.2459,4.3288,4.4155,4.5046,4.5271,4.5654,4.6186,4.6155,4.6452,4.6985,4.66,4.6625,4.6954,4.5299,4.3882,4.2701,4.1428,3.9677,3.7657,3.7237,3.6899,3.653,3.5529,3.5021,3.4862,3.4952,3.5098,3.53,3.5388,3.5316,3.5056,3.4209,3.2789,3.1422,3.1357,3.0787,3.0238,3.0394,3.0568,3.0682,3.0653,3.0762,3.0898,3.0898,3.0898,3.0898,3.0898,3.0733,3.0432,2.9968,2.8738,2.7327,2.5869,2.4835,2.3962,2.3302,2.3778,2.4003,2.3389,2.3447,2.312,2.208,2.1161,2.0626,2.0615,2.0179,1.9763,1.9406,1.9717,1.9863,1.9791,1.9217,1.8902,1.8939,1.71,1.5704,0.0,0.0,0.0,0.0,0.0,0.0,0.0,0.0,0.0,0.0,0.0,0.0,0.0,0.0,0.0,0.0,0.0,0.0,0.0,0.0,0.0,0.0,0.0,0.0,0.0,3.3323,3.5732,3.6284,3.8517,3.9497,3.819,3.8894,4.0049,4.153,4.2333,4.3435,4.5066,4.5547,4.5875,4.6035,4.6234,4.6452,4.6658,4.6355,4.6398,4.6824,4.587,4.5581,4.5782,4.4117,4.271,4.1524,4.0236,3.8458,3.6448,3.6306,3.6502,3.6768,3.5762,3.5272,3.5176,3.5176,3.5041,3.4894,3.4756,3.4715,3.4512,3.3328,3.2405,3.166,3.123,3.1094,3.1074,3.0937,3.0898,3.0898,3.0898,3.0898,3.0898,3.0898,3.082,3.0733,3.0733,3.0128,2.9608,2.9608,2.8659,2.7466,2.6127,2.4887,2.38,2.2972,2.329,2.3323,2.2417,2.2291,2.187,2.0812,2.0145,1.9808,1.9811,1.9383,1.9025,1.8903,1.8833,1.8727,1.8605,1.8426,1.8185,1.7886,1.6808,1.5785,1.4807,0.0,0.0,0.0,0.0,0.0,0.0,0.0,0.0,0.0,0.0,0.0,0.0,0.0,0.0,0.0,0.0,0.0,0.0,0.0,0.0,0.0,0.0,0.0,3.3241,3.5602,3.7538,3.8115,4.0652,4.211,4.1501,4.2908,4.4313,4.5417,4.5518,4.5744,4.6296,4.6321,4.639,4.6576,4.7065,4.7453,4.7658,4.6684,4.5963,4.5592,4.3549,4.2648,4.2736,4.1316,4.0192,3.9336,3.8449,3.728,3.5996,3.5586,3.541,3.5371,3.4883,3.4453,3.4114,3.4114,3.3789,3.3328,3.2949,3.2812,3.2734,3.2355,3.2218,3.214,3.168,3.1513,3.1416,3.1055,3.0918,3.0918,3.0918,3.0898,3.0898,3.085,3.0616,3.0392,3.0333,2.9087,2.7984,2.7924,2.7877,2.7693,2.7258,2.5408,2.3747,2.2957,2.2126,0.0,2.1141,2.0869,2.0712,2.0712,2.0174,1.9813,1.98,1.9011,1.8624,1.885,1.8063,1.7716,1.7996,1.7501,1.7322,1.7592,1.6426,1.5613,1.5223,0.0,0.0,0.0,0.0,0.0,0.0,0.0,0.0,0.0,0.0,0.0,0.0,0.0,0.0,0.0,0.0,0.0,0.0,0.0,0.0,0.0,3.52,3.7437,3.6256,3.8818,4.118,4.2108,4.3966,4.5033,4.4593,4.4992,4.542,4.5896,4.5945,4.6168,4.6711,4.6767,4.6685,4.6455,4.563,4.5128,4.4888,4.3652,4.3119,4.3195,4.2416,4.2182,4.2371,4.0623,3.9534,3.8974,3.767,3.6685,3.5982,3.5898,3.5859,3.5762,3.5,3.4629,3.4492,3.4212,3.3789,3.3367,3.325,3.3242,3.3184,3.2754,3.2617,3.257,3.2159,3.2022,3.1973,3.1885,3.1582,3.1288,3.1032,3.077,3.048,3.0216,3.0098,2.9774,2.8849,2.8116,2.7349,2.6382,2.5254,2.4486,2.4607,2.3111,2.1856,2.1648,2.1402,2.1204,2.1109,2.1042,2.0909,2.0726,2.0565,2.0298,1.984,1.9386,1.8878,1.8303,1.7836,1.7622,1.7702,1.7582,1.7514,1.7592,1.6852,1.6182,0.0,0.0,0.0,0.0,0.0,0.0,0.0,0.0,0.0,0.0,0.0,0.0,0.0,0.0,0.0,0.0,0.0,0.0,0.0,0.0,0.0,0.0,3.8363,4.0477,3.9954,4.2018,4.378,4.4365,4.54,4.6069,4.5932,4.5926,4.6087,4.6468,4.6683,4.6953,4.7248,4.6705,4.6199,4.5811,4.4424,4.353,4.3163,4.1816,4.1151,4.1139,4.0134,3.9639,3.9618,3.8521,3.7921,3.7644,3.6798,3.625,3.5982,3.5982,3.5982,3.5942,0.0,0.0,0.0,0.0,3.4062,3.3691,3.3691,3.3574,3.3347,3.3144,3.3066,3.2988,3.2559,3.2452,3.2383,3.2024,3.1731,3.1446,3.1145,3.073,3.0257,2.9524,2.9126,2.8552,2.7228,2.6291,2.5422,2.4655,2.3294,0.0,2.2529,2.1727,2.1109,2.1109,2.1109,2.1109,2.1109,2.1109,2.1042,2.0869,2.0779,2.0565,2.0201,1.9559,0.0,0.0,0.0,1.7608,1.7608,1.7608,0.0,0.0,0.0,0.0,0.0,0.0,0.0,0.0,1.697,1.7012,0.0,0.0,0.0,0.0,0.0,0.0,0.0,0.0,0.0,0.0,0.0,0.0,0.0,0.0,0.0,0.0,4.0823,4.2659,4.3384,4.4754,4.557,4.5312,4.5673,4.6006,4.6111,4.598,4.613,4.6692,4.6996,4.7191,4.724,4.595,0.0,0.0,0.0,4.2342,4.2111,4.0724,3.9783,3.9295,3.7614,3.6582,3.6172,3.6113,3.6094,3.6094,3.6001,3.5982,3.5982,3.5982,3.5982,3.5982,3.5982,3.5762,3.5351,3.4922,3.4512,3.4173,3.4173,0.0,0.0,3.3496,3.3425,3.3296,3.2926,3.2778,3.2607,3.1881,3.1654,3.1554,3.1217,3.0712,2.9981,2.8837,2.7878,2.6904,2.5547,2.4131,2.3076,2.2889,2.1902,2.1109,2.1109,2.1109,2.1109,2.1109,2.1109,2.1109,2.1109,2.1109,2.1109,2.1109,2.0882,0.0,2.0712,1.9693,1.9158,1.9388,1.8398,1.7809,1.7809,1.7849,1.8116,1.8624,1.8677,1.9052,1.98,1.9826,1.9867,1.9853,1.7969,1.7836,0.0,0.0,0.0,0.0,0.0,0.0,0.0,0.0,0.0,0.0,0.0,0.0,0.0,0.0,0.0,3.9204,4.2373,4.4226,4.3019,4.5085,4.6377,4.5404,4.6155,4.6658,4.6346,4.5366,4.478,4.4966,4.3983,4.3533,4.3844,4.3466,4.3225,4.3156,4.1819,4.1065,4.0994,3.9609,3.8691,3.822,3.7857,0.0,3.7031,3.6699,3.6543,3.6523,3.6172,3.5982,3.5982,3.5982,3.5982,3.5982,3.5982,3.5762,3.5391,3.5293,3.498,3.457,3.457,3.4297,3.3945,3.3945,3.352,3.2975,3.2879,3.267,0.0,3.2308,3.2011,3.1683,3.1352,3.0083,2.8782,2.8313,2.7008,2.5531,2.4183,2.3471,2.2764,2.1695,2.1299,2.1109,2.1109,2.1109,2.1109,2.1109,2.1109,2.1109,2.1109,2.1109,2.1109,2.1109,2.1056,2.0935,2.0726,2.0241,1.977,1.9428,1.9174,1.9053,1.9053,1.9466,1.9637,1.9546,1.9743,1.9867,1.98,2.004,2.0267,2.0525,1.9853,1.984,0.0,0.0,0.0,0.0,0.0,0.0,0.0,0.0,0.0,0.0,0.0,3.4401,3.6111,0.0,3.9982,4.0806,4.312,4.4357,4.3093,4.4157,4.4841,4.4254,4.4856,4.504,4.442,4.3299,4.2634,4.2649,4.2444,4.2373,4.2578,4.2064,4.1735,4.1735,4.0392,3.9742,3.9943,3.9073,3.8574,3.8555,3.8125,3.7777,3.7598,3.7168,3.6992,3.6973,3.6758,3.666,3.6641,3.6426,3.6348,3.6328,3.6094,3.5898,3.5703,3.5703,3.5296,3.4741,3.4741,3.4351,3.3802,3.3623,3.3283,3.2912,3.2702,3.2549,3.223,3.1327,3.0956,3.0537,2.9473,2.8361,2.7307,2.652,2.5527,2.434,2.2868,2.2426,2.2096,2.1262,2.1109,2.1109,2.1109,2.1109,2.1109,2.1109,2.1109,2.1109,2.1109,2.1109,2.1109,2.1109,2.1109,2.1056,2.0909,2.0628,2.0267,1.9826,1.98,1.98,1.98,2.005,2.0241,2.0241,2.0388,2.0454,2.0454,2.0601,2.0828,2.1141,2.0993,2.1007,0.0,0.0,0.0,0.0,0.0,0.0,0.0,3.1526,3.284,3.489,3.6429,3.7908,3.9605,4.0506,4.1247,4.1999,4.3012,4.3403,4.2651,4.2535,4.2438,4.2156,4.2618,4.2697,4.207,4.1033,4.048,4.0619,4.1233,4.1631,4.1682,4.0998,4.0622,4.0622,3.9467,3.8984,3.9336,3.9004,3.8965,3.9199,3.8496,3.8125,3.8027,3.7617,3.7422,3.7422,3.7324,3.7305,3.7266,3.6871,3.6625,3.6517,3.6089,3.5845,3.5811,3.5879,3.5496,3.4936,3.4869,3.4346,3.3681,3.3355,3.2899,3.2432,3.2115,3.1722,3.1083,2.9672,2.928,2.8936,2.747,2.665,2.5953,2.4926,2.4163,2.3336,2.2024,2.1703,2.1596,2.1323,2.1229,2.1189,2.1189,2.1149,2.1109,2.1109,2.1109,2.1109,2.1109,2.1109,2.1109,2.1109,2.1109,2.1109,2.1109,2.0895,2.0655,2.0384,2.037,2.037,2.037,2.037,2.0521,2.0762,2.0793,2.0869,2.1109,2.1162,2.1355,2.1582,2.1649,2.1703,2.9051,3.003,3.1063,3.1607,3.1991,3.3343,0.0,3.7716,3.7544,4.0168,4.1067,4.108,4.0085,4.1107,4.1999,4.1635,4.1476,4.1154,4.0583,4.0507,4.0051,3.8802,3.9789,4.0671,4.0946,3.9738,3.9239,4.0014,3.9403,3.9162,3.9538,3.9865,3.9989,3.9989,3.9859,3.9766,3.9824,3.9766,3.957,3.9199,3.9101,3.8867,3.8532,3.8047,3.7816,3.7796,3.7461,3.7305,3.7266,3.6871,3.6487,3.6136,3.5712,3.5333,3.5059,3.5401,3.5485,3.5378,3.5017,3.458,3.4187,3.4183,3.257,3.0694,3.0659,2.924,2.7635,2.7437,2.742,2.7353,2.7138,2.6139,2.5118,2.4983,2.3745,2.2532,2.2358,2.2124,2.1924,2.1897,2.1716,2.1542,2.1542,2.1315,2.1109,2.1109,2.1109,2.1109,2.1109,2.1109,2.1109,2.1109,2.1109,2.1109,2.1109,2.1082,2.1042,2.1015,2.1015,2.1015,2.1015,2.1015,2.1029,2.1056,2.1069,2.1082,2.1109,2.1408,2.1555,2.1628,2.185,2.2071,3.3224,3.3953,3.4384,3.5934,3.6974,3.8054,3.9834,3.967,3.9737,4.1856,4.1335,4.0653,4.1198,4.1171,4.0741,3.9682,4.0105,4.017,3.9123,3.8769,3.8299,3.7452,3.7138,3.7591,3.9061,3.8398,3.8057,3.8382,3.8544,3.8689,3.8828,3.9023,3.9121,3.9121,3.9121,3.9238,3.9492,3.9492,3.9531,3.9609,3.9336,3.9101,3.8926,3.8496,3.8301,3.8301,3.8125,3.7903,3.7703,3.7258,3.6871,3.6442,3.6023,3.5594,3.5243,3.5188,3.5024,3.4818,3.4681,3.3757,3.2607,3.2392,3.0874,2.909,2.8858,2.7977,2.6922,2.6121,2.5901,2.57,2.4858,2.4229,2.3768,2.3768,2.3229,2.2632,2.2458,2.2325,2.2191,2.2017,2.1917,2.1783,2.1609,2.1475,2.1309,2.1136,2.1109,2.1109,2.1109,2.1109,2.1109,2.1109,2.1109,2.1109,2.1109,2.1109,2.1109,2.1109,2.1109,2.1109,2.1109,2.1109,2.1109,2.1109,2.1283,2.1395,2.1395,2.1689,2.1457,2.0784,2.0898,2.0647,3.5212,3.6207,3.7097,3.8826,4.0117,4.1019,4.1204,4.0634,4.0548,4.2293,4.0924,3.975,4.0765,4.0125,3.9139,3.8088,3.8555,3.8838,3.8175,3.7316,3.6656,3.6432,3.5301,3.529,3.7164,3.7103,3.709,3.7441,3.8047,3.8457,3.8611,3.8611,3.8611,3.8611,3.8611,3.873,3.9023,3.9023,3.9199,3.9531,3.9199,3.9023,3.9023,3.8747,3.8538,3.8428,3.8428,3.8228,3.7787,3.7402,3.7013,3.6577,3.6127,3.541,3.4506,3.4229,3.3976,3.3764,3.3659,3.2403,3.0822,3.0518,2.9209,2.7691,2.7373,2.6713,2.5836,2.48,2.447,2.421,2.3167,2.2893,2.2893,2.2893,2.2893,2.284,2.2592,2.2539,2.2485,2.2305,2.2164,2.2044,2.1863,2.1756,2.1609,2.1269,2.1229,2.1203,2.1122,2.1109,2.1109,2.1109,2.1109,2.1109,2.1109,2.1109,2.1109,2.1109,2.1109,2.1109,2.1109,2.1109,2.1149,2.1229,2.1475,2.1428,2.1117,2.1358,2.0822,1.9585,1.9655,1.9232,3.3699,3.5892,3.8785,3.9053,3.9713,4.0865,4.2933,4.1335,3.9983,4.1942,4.0822,3.9087,3.7784,3.7544,3.7565,3.7532,3.673,3.6573,3.7909,3.6195,3.4949,3.5379,3.4642,3.4466,3.5379,3.5835,3.6547,3.7777,3.7894,3.8125,3.8591,3.8611,3.8611,3.8611,3.8611,3.8611,3.863,3.863,3.865,3.865,3.865,3.863,3.863,3.8611,3.8392,3.8009,3.8009,3.7789,3.7383,3.6967,3.6579,3.6178,3.5768,3.4216,3.2199,3.2182,3.2171,3.2105,3.1719,3.0572,2.9274,2.9258,2.8039,2.6555,2.6555,2.5074,2.3418,2.3348,2.3155,2.2962,2.2893,2.2893,2.2893,2.2893,2.2893,2.2893,2.288,2.288,2.288,2.2867,2.2605,2.2405,2.2392,2.2164,2.1903,2.1609,2.1569,2.1462,2.1149,2.1109,2.1109,2.1109,2.1109,2.1109,2.1109,2.1109,2.1109,2.1109,2.1109,2.1109,2.1109,2.1109,2.1243,2.1569,2.1582,2.1032,1.9866,2.0132,1.9471,1.7966,1.8296,1.8449,3.4634,3.656,3.8344,3.8938,3.9662,4.0459,4.1429,4.03,3.933,4.0248,3.8263,3.635,3.6577,3.5863,3.5339,3.5585,3.5626,3.5872,3.66,3.6046,3.5312,3.4642,3.4798,3.4844,3.4583,3.5176,3.6133,3.7402,3.75,3.7812,3.8571,3.8611,3.8611,3.8611,3.8611,3.8611,3.8611,3.8611,3.8611,3.8611,3.8338,3.8192,3.8192,3.7916,3.7733,3.7605,3.7605,3.7365,3.6978,3.6847,3.5925,3.459,3.4467,3.3078,3.1153,3.0982,3.0089,2.9065,2.9728,2.8967,2.7686,2.7686,2.6467,2.4977,2.4977,2.4344,2.3581,2.3345,2.3247,2.3126,2.2947,2.2893,2.2893,2.2893,2.2893,2.2893,2.2893,2.2893,2.2893,2.2893,2.2813,2.2645,2.2458,2.2338,2.2178,2.1917,2.151,2.1229,2.1122,2.1109,2.1109,2.1109,2.1109,2.1109,2.1109,2.1109,2.1109,2.1109,2.1109,2.1203,2.1422,2.1435,2.1569,2.1863,2.1091,2.0462,2.0076,1.9358,1.8202,1.6712,1.6816,1.6362,3.5213,3.6668,3.7886,3.9157,3.9454,3.9681,4.0606,3.9033,3.7575,3.821,3.5783,3.3761,3.4378,3.366,3.3254,3.4101,3.4746,3.541,3.6152,3.5996,3.5605,3.5092,3.5078,3.5098,3.5053,3.5371,3.6016,3.6992,3.7344,3.7754,3.832,3.8496,3.8611,3.8611,3.8611,3.8611,3.8611,3.8611,3.8538,3.8375,3.7972,3.7789,3.7789,3.7532,3.6997,3.6349,3.6349,3.5773,3.4822,3.4822,3.4053,3.2918,3.2918,3.1663,2.9837,2.9588,2.8245,2.6763,2.7973,2.736,2.6078,2.6078,2.5295,2.4356,2.4356,2.4155,2.3888,2.3688,2.3452,2.3252,2.3086,2.2974,2.2893,2.2893,2.2893,2.2893,2.2893,2.2893,2.2893,2.2893,2.2893,2.284,2.2605,2.2485,2.2352,2.2164,2.1724,2.1416,2.1416,2.1336,2.1269,2.1269,2.1176,2.0927,2.0477,2.0845,2.098,2.0664,2.0509,2.0618,2.0934,2.0444,2.0274,2.0534,1.9762,1.9175,1.8716,1.7966,1.6811,1.531,1.531,1.4813,3.528,3.6302,3.7508,3.9497,3.8981,3.8458,4.0266,3.7534,3.4863,3.5745,3.3487,3.1377,3.1328,3.1055,3.1367,3.3016,3.4082,3.5137,3.6519,3.603,3.5781,3.6616,3.5605,3.5351,3.6597,3.6328,3.6269,3.6714,3.7441,3.7874,3.7913,3.8359,3.8611,3.8611,3.8611,3.8611,3.8611,3.8574,3.8355,3.7972,3.7568,3.7384,3.7384,3.7255,3.6182,3.4354,3.4278,3.3129,3.13,3.13,3.1261,3.1185,3.1185,3.0,2.8282,2.7984,2.6716,2.5275,2.6412,2.5822,2.4599,2.4599,2.4599,2.4599,2.4599,2.4412,2.4222,2.4209,2.3808,2.3332,2.3319,2.3113,2.292,2.292,2.2907,2.2893,2.2893,2.2893,2.2893,2.2893,2.2893,2.2893,2.2893,2.2564,2.231,2.231,2.2038,2.1819,2.1892,2.1672,2.1466,2.1402,2.1118,2.0445,1.9316,2.0272,2.0541,1.9709,1.9373,1.9361,1.969,1.8306,1.7639,1.7908,1.784,1.7229,1.6079,1.6009,1.5274,1.3904,1.3904,1.3904,3.519,3.6186,3.7274,3.7516,3.6843,3.6137,3.6274,3.4985,3.3454,3.2455,3.1111,2.9794,2.8855,2.9364,3.0371,3.1777,3.3262,3.4837,3.648,3.6758,3.6777,3.6714,3.6934,3.6992,3.6734,3.7129,3.7363,3.7148,3.7344,3.7734,3.8379,3.8516,3.8611,3.8611,3.8611,3.8611,3.8611,3.8302,3.7936,3.7568,3.7144,3.696,3.6886,3.54,3.4446,3.3864,3.2636,3.1797,3.13,3.13,3.0569,2.9502,2.9502,2.8462,2.6866,2.6345,2.5832,2.5369,2.5255,2.4931,2.4599,2.4599,2.4599,2.4599,2.4599,2.4546,2.4439,2.4262,2.4088,2.3928,2.3714,2.3434,2.3207,2.3207,2.3067,2.2893,2.2893,2.2893,2.2893,2.2893,2.2893,2.2893,2.2893,2.1889,2.1049,2.1049,2.0082,1.9563,2.026,2.0174,1.965,1.8639,1.8334,1.8125,1.7973,1.8228,1.8317,1.8105,1.8028,1.8105,1.837,1.8006,1.7943,1.8282,1.7152,1.641,1.6079,1.499,1.4252,1.3904,1.3904,1.3977,3.5156,3.5977,3.6683,3.6455,3.5742,3.4883,3.4043,3.291,3.1465,2.957,2.8496,2.7559,2.6445,2.7441,2.8926,3.043,3.2422,3.4453,3.6441,3.7066,3.7344,3.7535,3.7754,3.7812,3.7574,3.793,3.8184,3.8144,3.7969,3.7988,3.8281,3.8513,3.8611,3.8611,3.8611,3.8501,3.8338,3.7752,3.7365,3.7144,3.6738,3.6553,3.646,3.4634,3.3411,3.2598,3.0954,2.9851,2.9153,2.9153,2.8622,2.7816,2.7816,2.724,2.6333,2.5879,2.5625,2.5451,2.4983,2.4706,2.4599,2.4599,2.4599,2.4599,2.4599,2.4599,2.4572,2.4436,2.4302,2.4168,2.3995,2.3741,2.3527,2.3527,2.3287,2.3073,2.3073,2.2987,2.2688,2.2022,2.1355,2.0928,2.0928,2.0201,1.9646,1.9646,1.8949,1.8363,1.8206,1.853,1.8519,1.7752,1.7458,1.7147,1.6732,1.7203,1.7326,1.6918,1.6769,1.6819,1.7101,1.6484,1.6228,1.6423,1.5584,1.5132,1.5132,1.4288,1.3945,1.4026,1.4026,1.4115,3.5379,3.5781,3.5982,3.5982,3.5273,3.418,3.2851,3.1152,2.9258,2.7109,2.5971,2.5113,2.4293,2.5562,2.7363,2.9207,3.1562,3.3984,3.6382,3.6992,3.7559,3.8493,3.8242,3.8184,3.8613,3.8689,3.8828,3.9258,3.8965,3.8555,3.8125,3.8457,3.8633,3.8501,3.8465,3.8246,3.7826,3.7144,3.6664,3.6386,3.6052,3.5754,3.5512,3.3881,3.2386,3.0877,2.9269,2.7737,2.6386,2.6386,2.6386,2.6386,2.6386,2.6386,2.636,2.6105,2.5837,2.5531,2.5197,2.4917,2.4653,2.4613,2.4599,2.4599,2.4599,2.4599,2.4599,2.4599,2.4412,2.4262,2.4262,2.4048,2.387,2.387,2.3567,2.3257,2.3047,2.2658,2.1919,2.056,1.9298,1.8414,1.8414,1.8239,1.81,1.81,1.7924,1.7338,1.5973,1.6867,1.7554,1.7379,1.7148,1.6572,1.5563,1.6426,1.6682,1.5849,1.5604,1.5586,1.5797,1.4573,1.3904,1.3904,1.3904,1.3904,1.3904,1.3904,1.3993,1.4217,1.4217,1.4249,3.6518,3.623,3.5982,3.5982,3.4791,3.3223,3.1601,2.9637,2.7506,2.5289,2.4199,2.3479,2.293,2.4238,2.6216,2.8633,3.0596,3.2969,3.6245,3.6773,3.7262,3.8474,3.8552,3.8633,3.9062,3.9101,3.9277,3.9746,3.9707,3.9473,3.9004,3.9043,3.8798,3.8138,3.7789,3.7402,3.6997,3.6886,3.5978,3.4333,3.4258,3.3487,3.2103,3.0454,2.958,2.9231,2.7541,2.6663,2.6386,2.6386,2.6386,2.6386,2.6386,2.6386,2.636,2.6105,2.5957,2.5837,2.5302,2.505,2.4957,2.4679,2.4599,2.4599,2.4599,2.4599,2.4599,2.4599,2.4559,2.4519,2.4519,2.4342,2.4128,2.4128,2.3714,2.2964,2.1745,2.0286,1.9112,1.8833,1.8589,1.8414,1.8414,1.7338,1.6503,1.6503,1.5443,1.4564,1.4324,1.5446,1.5835,1.4708,1.4395,1.4256,1.4229,1.439,1.4461,1.428,1.4219,1.4219,1.4288,1.4039,1.3904,1.3904,1.3904,1.3904,1.3904,1.3904,1.3993,1.4217,1.4217,1.4167,3.6323,3.6172,3.5942,3.5742,3.4394,3.2519,3.0351,2.8203,2.5977,2.3594,2.2773,2.2306,2.1641,2.3262,2.5215,2.668,2.875,3.1289,3.4531,3.5371,3.6289,3.8027,3.8633,3.8984,3.918,3.9414,3.9746,4.0195,4.0025,3.9792,3.959,3.9113,3.8602,3.804,3.7405,3.6997,3.6812,3.5773,3.4747,3.3789,3.2918,3.2065,3.1261,2.9619,2.8895,2.8817,2.7122,2.6386,2.6386,2.6386,2.6386,2.6386,2.6386,2.6386,2.6373,2.6279,2.6131,2.5931,2.5451,2.5211,2.5037,2.4693,2.4599,2.4599,2.4599,2.4599,2.4599,2.4599,2.4599,2.4599,2.4599,2.4492,2.4203,2.3345,2.2177,2.1007,2.0059,1.8542,1.7329,1.7218,1.6564,1.6079,1.6079,1.5443,1.4955,1.4955,1.4359,1.3904,1.3904,1.4452,1.4612,1.3959,1.3823,1.3815,1.3896,1.3904,1.3904,1.3904,1.3904,1.3904,1.3904,1.3993,1.405,1.405,1.4131,1.4131,1.405,1.3922,1.39,1.3987,1.389,1.3845,3.5762,3.5923,3.5898,3.5371,3.3945,3.1973,2.9375,2.7025,2.4762,2.2383,2.1759,2.1446,2.084,2.2441,2.416,2.5082,2.7148,2.9766,3.2938,3.4238,3.5605,3.7676,3.8672,3.9238,3.9336,3.9766,4.0157,4.0471,4.0144,3.9855,3.9793,3.8934,3.8272,3.7859,3.7185,3.659,3.6163,3.4597,3.3449,3.2728,3.1415,3.0608,3.0222,2.8934,2.8349,2.8285,2.6965,2.6386,2.6386,2.6386,2.6386,2.6386,2.6386,2.6386,2.6386,2.6386,2.6279,2.6051,2.5718,2.5411,2.5117,2.4823,2.4653,2.4599,2.4599,2.4599,2.4599,2.4599,2.4599,2.4525,2.4179,2.4105,2.3672,2.2001,2.0229,1.8796,1.8377,1.706,1.5921,1.5729,1.4775,1.3945,1.3904,1.3904,1.3904,1.3904,1.3904,1.3904,1.3904,1.3904,1.3904,1.3904,1.3904,1.3904,1.3904,1.3904,1.3904,1.3904,1.3937,1.3945,1.3904,1.4043,1.4111,1.4071,1.4122,1.4072,1.3981,1.3784,1.3684,1.3723,1.3582,1.3542,3.5332,3.5723,3.5786,3.498,3.3476,3.1573,2.8945,2.6367,2.4023,2.2246,2.127,2.0801,2.1093,2.168,2.2891,2.5269,2.6855,2.9129,3.2859,3.4531,3.5976,3.7679,3.8672,3.9375,3.9785,4.0215,4.0433,4.0491,4.0119,3.9753,3.9374,3.8535,3.7894,3.7465,3.7014,3.5928,3.4108,3.3881,3.231,2.9362,2.9207,2.831,2.6847,2.6702,2.6623,2.6623,2.6465,2.6386,2.6386,2.6386,2.6386,2.6386,2.6386,2.6386,2.6386,2.6386,2.6373,2.6306,2.6051,2.5757,2.5424,2.513,2.4863,2.4599,2.4599,2.4599,2.4599,2.4599,2.4599,2.4253,2.2794,2.2409,2.1939,2.011,1.8475,1.7243,1.694,1.5681,1.4535,1.4398,1.4265,1.4099,1.3928,1.3904,1.3904,1.3904,1.3904,1.3904,1.3904,1.3904,1.3904,1.3904,1.3904,1.3904,1.3904,1.3904,1.3904,1.3904,1.4058,1.4075,1.3904,1.3872,1.379,1.367,1.3429,1.3282,1.3304,1.3282,1.3364,1.3544,1.3521,1.339,3.4368,3.4902,3.5019,3.4141,3.2656,3.081,2.8484,2.5923,2.3633,2.2208,2.1192,2.0723,2.1132,2.1347,2.2147,2.4238,2.5,2.6529,2.9863,3.1445,3.3184,3.5684,3.7422,3.8698,3.9389,4.0105,4.0297,3.9805,3.9627,3.9355,3.8892,3.755,3.6552,3.5967,3.4552,3.3286,3.231,3.1338,3.0199,2.8895,2.7894,2.7044,2.6386,2.6386,2.6386,2.6386,2.6386,2.6386,2.6386,2.6386,2.6386,2.6386,2.6386,2.6386,2.6386,2.6386,2.6386,2.6346,2.6091,2.5758,2.5464,2.517,2.4229,2.3351,2.4304,2.4599,2.4414,2.3426,2.3166,2.2781,2.1164,2.0037,1.9111,1.8388,1.701,1.5783,1.5564,1.5006,1.4546,1.4367,1.4245,1.4156,1.4083,1.3977,1.3904,1.3904,1.3904,1.3904,1.3904,1.3904,1.3904,1.3904,1.3904,1.3904,1.3904,1.3904,1.3904,1.3904,1.3754,1.3666,1.3705,1.3538,1.3453,1.3558,1.3499,1.346,1.3394,1.3233,1.3148,1.3119,1.2984,1.2825,3.3039,3.3809,3.4141,3.3418,3.1953,3.0185,2.8151,2.5688,2.344,2.2148,2.1192,2.0684,2.0977,2.1132,2.1698,2.3164,2.3851,2.52,2.8066,2.9687,3.1562,3.4199,3.6191,3.7692,3.8567,3.9567,3.9922,3.9351,3.9193,3.8956,3.86,3.6385,3.5078,3.4994,3.2953,3.1432,3.0623,2.9464,2.8661,2.8168,2.6965,2.6386,2.6386,2.6386,2.6386,2.6386,2.6386,2.6386,2.6386,2.6386,2.6386,2.6386,2.6386,2.6386,2.6347,2.5832,2.5621,2.5515,2.4836,2.4324,2.3984,2.3795,2.2727,2.17,2.2819,2.3166,2.2943,2.1812,2.1127,2.0489,1.9245,1.774,1.6492,1.6492,1.565,1.4782,1.4624,1.46,1.4543,1.4359,1.4191,1.4099,1.4188,1.4026,1.3904,1.3904,1.3904,1.3904,1.3904,1.3904,1.3904,1.3904,1.3797,1.3753,1.3904,1.3797,1.3718,1.3718,1.3407,1.3277,1.3436,1.3208,1.3191,1.3301,1.3348,1.33,1.3184,1.3031,1.2877,1.2779,1.2608,1.2501,3.1309,3.243,3.334,3.291,3.1484,2.9766,2.8073,2.5688,2.344,2.2148,2.1192,2.0605,2.0605,2.0937,2.1503,2.2362,2.3968,2.5981,2.8528,3.0381,3.2148,3.3899,3.5234,3.637,3.7242,3.8538,3.9312,3.9312,3.8877,3.86,3.86,3.5053,3.3649,3.4955,3.2969,3.0926,2.8934,2.8895,2.809,2.6426,2.6386,2.6386,2.6386,2.6386,2.6386,2.6386,2.6386,2.6386,2.6386,2.6386,2.6386,2.6386,2.6386,2.6386,2.6188,2.4455,2.3816,2.3576,2.1867,2.0939,2.0539,2.0539,2.0227,1.9811,1.9849,1.9849,1.9849,1.9811,1.8688,1.7359,1.6931,1.565,1.4438,1.4438,1.4399,1.4407,1.4399,1.4399,1.4345,1.4127,1.3926,1.3903,1.414,1.4026,1.3904,1.3904,1.3904,1.3904,1.3904,1.3904,1.3904,1.3904,1.3539,1.3468,1.3868,1.3539,1.3325,1.3325,1.3127,1.2999,1.3006,1.2938,1.2885,1.2899,1.2657,1.2501,1.2501,1.2501,1.2501,1.2501,1.2501,1.2501,2.8254,2.916,2.9668,2.8672,2.7773,2.6752,2.5352,2.3926,2.2637,2.162,2.0977,2.0684,2.0977,2.0898,2.1641,2.4254,2.4922,2.6001,2.8528,3.0432,3.2111,3.354,3.6118,3.8009,3.8612,3.8764,3.8838,3.8838,3.8679,3.86,3.86,3.4817,3.2873,3.3273,3.0121,2.8007,2.7201,2.7201,2.6925,2.6386,2.6386,2.6386,2.6386,2.6386,2.6386,2.6386,2.6386,2.6386,2.6386,2.6386,2.6386,2.6386,2.6386,2.566,2.4574,2.4016,2.3043,2.1947,2.1383,2.0899,2.05,2.05,1.9419,1.8158,1.8158,1.8943,1.9585,1.8461,1.6797,1.5313,1.5198,1.4545,1.3937,1.3937,1.3937,1.3937,1.3937,1.3937,1.3883,1.3823,1.3597,1.3423,1.3481,1.3302,1.3218,1.3468,1.3289,1.3218,1.3468,1.3289,1.3146,1.3146,1.3039,1.3111,1.3468,1.3146,1.2968,1.2968,1.2728,1.2611,1.2727,1.2552,1.2522,1.2626,1.2558,1.2501,1.2501,1.2501,1.2501,1.2501,1.2501,1.2501,2.5718,2.668,2.7129,2.6348,2.5659,2.4957,2.4023,2.3008,2.209,2.1346,2.0879,2.0683,2.0937,2.1055,2.1798,2.3903,2.475,2.5835,2.7939,2.9891,3.1826,3.3764,3.6282,3.804,3.8488,3.8561,3.86,3.86,3.7986,3.7578,3.7474,3.3703,3.1467,3.1383,2.8307,2.6573,2.6386,2.6386,2.6386,2.6386,2.6386,2.6386,2.6386,2.6386,2.6386,2.6386,2.6386,2.6386,0.0,2.6386,2.603,2.5422,2.5422,2.4335,2.2723,2.2068,2.1141,2.012,1.948,1.9012,1.87,1.8622,1.7651,1.6492,1.6492,1.7207,1.7768,1.6788,1.5582,1.4553,1.4207,1.3937,1.3667,1.3505,1.3467,1.3467,1.3467,1.3467,1.3467,1.3467,1.3262,1.3124,1.3304,1.3118,1.2997,1.3146,1.303,1.2935,1.3082,1.2932,1.2789,1.2789,1.2653,1.2675,1.295,1.2718,1.2603,1.2662,1.2365,1.2257,1.248,1.235,1.2359,1.2501,1.2501,1.2501,1.2501,1.2501,1.2501,1.2501,1.2501,1.2501,0.0,2.4742,2.5401,2.5367,2.4762,2.4082,2.3652,2.2676,0.0,2.1249,2.0859,2.0644,2.0762,2.1368,2.1934,2.2267,2.3926,2.5698,2.712,2.925,3.1717,3.4633,3.6101,3.6923,3.7181,3.794,3.8362,3.8243,3.6735,3.572,3.5424,3.1915,2.9771,2.9527,2.7485,2.6386,2.6386,2.6386,2.6386,2.6386,2.6386,2.6386,2.6386,2.6386,2.6386,2.6386,2.6386,2.6386,2.6386,2.6268,2.5263,2.3776,2.3656,2.2562,2.0807,1.9196,1.8504,1.8178,1.6558,1.591,1.5723,1.5497,1.5205,1.493,1.493,1.493,1.4968,1.4968,1.493,1.4737,1.3891,1.366,1.3544,1.3197,1.3081,1.3042,1.3042,1.3042,1.3042,1.3042,1.296,1.2975,1.3339,1.3244,1.3089,1.2956,1.2933,1.2874,1.2775,1.2717,1.2717,1.2717,1.2366,1.2215,1.2313,1.225,1.2236,1.2349,1.204,1.1993,1.2277,1.2298,1.2366,1.2501,1.2501,1.2501,1.2501,1.2501,1.2501,1.2501,1.2501,1.2501,2.0742,0.0,2.2637,2.1974,2.1894,2.1854,0.0,2.1348,2.1249,2.084,2.0683,2.0996,2.2264,2.1893,2.2461,2.5786,2.6226,2.6975,2.9315,3.2036,3.4557,3.6553,3.762,3.7659,3.6434,3.6498,3.6052,3.4701,3.4254,3.3888,3.3628,3.1233,2.9771,2.9527,2.7485,2.6386,2.6386,2.6386,2.6386,2.6386,2.6386,2.6386,2.6386,2.6386,2.6386,2.6386,2.6386,2.6386,2.6307,2.4985,2.4175,2.3656,2.2309,2.0727,1.9155,1.8748,1.7778,1.6549,1.6008,1.5723,1.5489,1.486,1.4346,1.4006,1.4006,1.4245,1.4553,1.4553,1.4284,1.3968,1.3744,1.3467,1.3235,1.312,1.2849,1.2656,1.2656,1.2656,1.2656,1.2656,1.2539,1.2481,1.255,1.2463,1.2421,1.2516,1.2269,1.2147,1.2323,1.2086,1.1864,1.1864,1.1799,1.1741,1.1775,1.1844,1.1953,1.2148,1.219,1.2216,1.2284,1.2393,1.2467,1.2501,1.2501,1.2501,1.2501,1.2501,1.2501,1.2501,1.2501,1.2501,1.9512,2.0742,2.1837,2.1544,2.1641,2.1737,2.1523,2.1191,2.0859,2.0625,2.0742,2.1211,2.2342,2.2508,2.3312,2.5857,2.6775,2.8233,3.1179,3.3532,3.5557,3.7209,3.794,3.8025,3.7255,3.6454,3.5564,3.451,3.2915,3.1818,3.1407,2.9545,2.8354,2.8083,2.6981,2.6386,2.6386,2.6386,2.6386,2.6386,2.6386,2.6386,2.6386,2.6386,2.6386,2.6386,2.6386,2.6386,2.6268,2.4534,2.3324,2.243,2.0697,1.8952,1.7419,1.7419,1.663,1.5616,1.5561,1.5201,1.4758,1.4337,1.3997,1.3706,1.3706,1.3744,1.3821,1.4014,1.3898,1.3667,1.3467,1.3274,1.3042,1.2888,1.2656,1.2501,1.2501,1.2501,1.2501,1.2501,1.244,1.2386,1.2386,1.2264,1.2227,1.2254,1.1987,1.1819,1.1928,1.1727,1.1584,1.1584,1.1584,1.1611,1.1671,1.1753,1.1898,1.2091,1.2179,1.2254,1.2284,1.2427,1.2501,1.2501,1.2501,1.2501,1.2501,1.2501,1.2501,1.2501,1.2501,1.2501,1.9394,2.0859,2.2207,2.2264,2.244,2.2557,2.2441,2.1562,2.0801,2.0801,2.1113,2.16,2.228,2.3403,2.443,2.5186,2.7138,2.9646,3.2677,3.4268,3.5632,3.7116,3.7647,3.7855,3.7741,3.6315,3.516,3.4452,3.1574,2.9618,2.9105,2.7616,2.6694,2.64,2.6386,2.6386,2.6386,2.6386,2.6386,2.6386,2.6386,2.6386,2.6386,2.6386,2.6386,2.6386,2.6347,2.6307,2.6149,2.4056,2.2309,2.0807,1.8779,1.7074,1.5761,1.5761,1.5478,1.5077,1.5013,1.4517,1.386,1.386,1.3693,1.3505,1.3505,1.3274,1.3081,1.3428,1.3544,1.3551,1.3197,1.3081,1.3004,1.2656,1.254,1.2501,1.2501,1.2501,1.2501,1.2501,1.2501,1.2494,1.2474,1.2372,1.223,1.2091,1.1911,1.1746,1.164,1.1584,1.1584,1.1584,1.1584,1.1631,1.1753,1.1759,1.1864,1.2057,1.2084,1.2166,1.2284,1.2406,1.2481,1.2501,1.2501,1.2501,1.2501,1.2501,1.2501,1.2501,1.2501,1.2501,2.041,2.2187,2.3164,2.1757,2.2204,2.283,2.2148,2.1857,2.17,2.17,2.2012,2.2804,2.448,2.4919,2.5792,2.8123,3.0039,3.18,3.3461,3.4715,3.5834,3.6786,3.7244,3.6486,3.3942,3.3258,3.1817,2.9101,2.8194,2.7581,2.7229,2.6934,2.6694,2.64,2.6386,2.6386,2.6386,2.6386,2.6386,2.6386,2.6386,2.6386,2.6386,2.6386,2.6386,2.6386,2.603,2.5872,2.5621,2.1977,2.0352,1.9785,1.6541,1.5082,1.4723,1.4723,1.4617,1.4403,1.4221,1.3774,1.3233,1.3233,1.2986,1.2695,1.2695,1.2656,1.2617,1.2656,1.2926,1.3158,1.312,1.3081,1.3081,1.3004,1.2733,1.2501,1.2501,1.2501,1.2501,1.2501,1.2501,1.2461,1.2345,1.2305,1.2196,1.1874,1.1807,1.1746,1.164,1.1584,1.1584,1.1584,1.1584,1.159,1.1611,1.1617,1.1678,1.1857,1.2023,1.2166,1.2284,1.2311,1.2379,1.2501,1.2501,1.2501,1.2501,1.2501,1.2501,1.2501,1.2501,1.2501,1.9785,2.1445,2.2734,2.2637,2.4121,2.543,2.4805,2.4297,2.3942,2.3942,2.4316,2.4886,2.5775,2.655,2.7832,3.0302,3.1746,3.2998,3.4275,3.5101,3.5889,3.6695,3.621,3.5305,3.4119,3.2221,3.037,2.8799,2.7662,2.6894,2.66,2.6587,2.6533,2.6386,2.6386,2.6386,2.6386,2.6386,2.6386,2.6386,2.6386,2.6386,2.6386,2.6386,2.6268,2.607,2.5872,2.5104,2.3792,2.1039,1.9311,1.8124,1.5592,1.449,1.4333,1.4051,1.3851,1.3763,1.3322,1.3021,1.2772,1.2772,1.2656,1.2501,1.2501,1.2501,1.2501,1.2501,1.2617,1.2772,1.2772,1.2772,1.2772,1.2772,1.2617,1.2501,1.2501,1.2501,1.2501,1.2501,1.244,1.2366,1.2298,1.2155,1.1993,1.1813,1.1732,1.1658,1.159,1.1584,1.1584,1.1584,1.1584,1.1584,1.1584,1.1584,1.1644,1.1786,1.1898,1.204,1.2277,1.221,1.2271,1.2501,1.2501,1.2501,1.2501,1.2501,1.2501,1.2501,1.2501,1.2549,1.9434,2.0859,2.2363,2.3772,2.5532,2.6979,2.7129,2.6479,2.5927,2.6145,2.6631,2.6956,2.6779,2.8031,2.9766,3.1809,3.2957,3.386,3.4505,3.5249,3.5685,3.5531,3.4786,3.4081,3.3697,3.1225,2.945,2.8892,2.7507,2.6627,2.64,2.6386,2.6386,2.6386,2.6386,2.6386,2.6386,2.6386,2.6386,2.6386,2.6386,2.6347,2.6268,2.6268,2.603,2.5634,2.5554,2.4258,2.2139,2.032,1.8458,1.6598,1.4819,1.4044,1.3876,1.3362,1.3187,1.3134,1.2658,1.2501,1.2501,1.2501,1.2501,1.2501,1.2501,1.2501,1.2501,1.2501,1.2501,1.2501,1.2501,1.2501,1.2501,1.2501,1.2501,1.2501,1.2501,1.2501,1.2501,1.2501,1.2386,1.2277,1.2244,1.2013,1.1786,1.1753,1.1651,1.1584,1.1584,1.1584,1.1584,1.1584,1.1584,1.1584,1.1584,1.1584,1.1631,1.1739,1.1746,1.1868,1.2169,1.2145,1.222,1.2447,1.2481,1.2501,1.2501,1.2501,1.2501,1.2501,1.2501,1.2562,2.0508,2.1737,2.2871,2.4574,2.4805,2.5176,2.7194,2.6979,2.6604,2.7475,2.8306,2.8601,2.7613,2.9183,3.1074,3.2331,3.3872,3.4505,3.3487,3.4965,3.5028,3.2059,3.2952,3.2758,2.9996,2.9247,2.8418,2.7081,2.6653,2.6413,2.6386,2.6386,2.6386,2.6386,2.6386,2.6386,2.6386,2.6386,2.6386,2.6386,2.6386,2.6188,2.5832,2.5832,2.5594,2.513,2.4771,2.3496,2.1494,1.9374,1.7412,1.5536,1.3811,1.3001,1.2804,1.2615,1.256,1.2554,1.2508,1.2501,1.2501,1.2501,1.2501,1.2501,1.2501,1.2501,1.2501,1.2501,1.2501,1.2501,1.2501,1.2501,1.2501,1.2501,1.2501,1.2501,1.2501,1.2501,1.2501,1.2501,1.2386,1.2244,1.2139,1.1938,1.1753,1.1617,1.1626,1.1584,1.1584,1.1584,1.1584,1.1584,1.1584,1.1584,1.1584,1.1584,1.1584,1.1597,1.1597,1.1665,1.182,1.203,1.2179,1.2305,1.2433,1.2501,1.2501,1.2501,1.2501,1.2501,1.2501,1.2508,1.9648,2.123,2.2852,2.4297,2.5352,2.642,2.8066,2.9043,2.975,3.0411,3.1024,3.1161,3.005,3.0777,3.1873,3.2826,3.4093,3.503,3.5058,3.4845,3.4258,3.2994,3.1606,3.0284,2.9174,2.8043,2.7138,2.6586,2.6453,2.6386,2.6386,2.6386,2.6386,2.6386,2.6386,2.6386,2.6386,2.6149,2.603,2.603,2.603,2.5792,2.5356,2.5176,2.4889,2.4404,2.304,2.1289,1.9223,1.7402,1.5511,1.3702,1.2987,1.2637,1.2583,1.2522,1.2501,1.2501,1.2501,1.2501,1.2501,1.2501,1.2501,1.2501,1.2501,1.2501,1.2501,1.2501,1.2501,1.2501,1.2501,1.2501,1.2501,1.2501,1.2501,1.2501,1.2501,1.2433,1.2372,1.2372,1.2169,1.1986,1.1932,1.1796,1.1644,1.159,1.1584,1.1584,1.1584,1.1584,1.1584,1.1584,1.1584,1.1584,1.1584,1.1584,1.1584,1.1584,1.1584,1.1644,1.1786,1.1979,1.2173,1.2284,1.2427,1.2501,1.2501,1.2501,1.2501,1.2501,1.2501,1.2556,1.9511,2.1074,2.283,2.4277,2.582,2.7409,2.8995,3.0393,3.1565,3.2293,3.2353,3.2086,3.1609,3.1686,3.2166,3.3196,3.4295,3.4939,3.4678,3.4183,3.3222,3.1644,2.9967,2.87,2.8154,2.7083,2.6386,2.6386,2.6386,2.6386,2.6386,2.6386,2.6386,2.6386,2.6386,2.6347,2.6228,2.5859,2.553,2.5254,2.5164,2.5019,2.4779,2.4489,2.4168,2.3688,2.1809,1.9844,1.782,1.6179,1.435,1.2651,1.2542,1.2501,1.2501,1.2501,1.2501,1.2501,1.2501,1.2501,1.2501,1.2501,1.2501,1.2501,1.2501,1.2501,1.2501,1.2501,1.2501,1.2501,1.2501,1.2501,1.2501,1.2501,1.2501,1.2488,1.2447,1.2359,1.2277,1.2268,1.2006,1.1793,1.1793,1.1678,1.1584,1.1584,1.1584,1.1584,1.1584,1.1584,1.1584,1.1584,1.1584,1.1584,1.1584,1.1584,1.1584,1.1584,1.1584,1.1624,1.1726,1.1911,1.206,1.2216,1.2359,1.2461,1.2501,1.2501,1.2501,1.2501,1.2501,1.2556,2.0468,2.1544,2.2949,2.4672,2.6074,2.7603,2.9805,3.0668,3.1394,3.2738,3.1841,3.1066,3.1873,3.1671,3.1928,3.3541,3.446,3.4157,3.1662,3.2728,3.1966,2.7004,2.7894,2.8207,2.6544,2.6386,2.6386,2.6386,2.6386,2.6386,2.6386,2.6386,2.6386,2.6386,2.6386,2.6188,2.5792,2.5505,2.4971,2.4097,2.3824,2.3837,2.4085,2.3824,2.3456,2.2993,2.1313,1.9528,1.7681,1.5974,1.4174,1.2501,1.2501,1.2501,1.2501,1.2501,1.2501,1.2501,1.2501,1.2501,1.2501,1.2501,1.2501,1.2501,1.2501,1.2501,1.2501,1.2501,1.2501,1.2501,1.2501,1.2501,1.2501,1.2501,1.2501,1.2461,1.2318,1.2291,1.2244,1.2125,1.1932,1.1793,1.1793,1.1678,1.1584,1.1584,1.1584,1.1584,1.1584,1.1584,1.1584,1.1584,1.1584,1.1584,1.1584,1.1584,1.1584,1.1584,1.1584,1.1584,1.1584,1.1719,1.1904,1.2098,1.221,1.2359,1.2501,1.2501,1.2501,1.2501,1.2501,1.2501,2.0156,2.1913,2.4098,2.523,2.7687,3.0065,3.0986,3.1792,3.2664,3.3744,3.32,3.2478,3.2423,3.279,3.3248,3.3725,3.4698,3.4863,3.3268,3.2484,3.1069,2.8466,2.7541,2.6965,2.6465,2.6386,2.6386,2.6386,2.6386,2.6386,2.6386,2.6386,2.6386,2.6386,2.595,2.5649,2.5531,2.4622,2.4057,2.3812,2.3283,2.3141,2.3385,2.3117,2.2919,2.2639,1.9632,1.8028,1.732,1.4485,1.3,1.2501,1.2501,1.2501,1.2501,1.2501,1.2501,1.2501,1.2501,1.2501,1.2501,1.2501,1.2501,1.2501,1.2501,1.2501,1.2501,1.2501,1.2501,1.2501,1.2501,1.2501,1.2501,1.2501,1.2501,1.2461,1.2318,1.2241,1.2125,1.1932,1.1746,1.1644,1.1644,1.1647,1.1584,1.1584,1.1584,1.1584,1.1584,1.1584,1.1584,1.1584,1.1584,1.1584,1.1584,1.1584,1.1584,1.1584,1.1584,1.1584,1.1584,1.1719,1.1904,1.2098,1.221,1.2359,1.2501,1.2501,1.2501,1.2501,1.2501,1.2501,2.1758,2.3418,2.5328,2.7045,2.9,3.0792,3.1928,3.2732,3.3402,3.4025,3.3529,3.2991,3.3065,3.3211,3.328,3.3141,3.3732,3.3592,3.1743,3.0621,2.9381,2.7758,2.6649,2.6039,2.6039,2.6039,2.6039,2.6039,2.6039,2.6039,2.6039,2.6039,2.5961,2.5805,2.54,2.5037,2.4726,2.3945,2.3462,2.3309,2.2773,2.2623,2.2768,2.2611,2.2538,2.2337,1.8881,1.6655,1.5289,1.3305,1.2501,1.2501,1.2501,1.2501,1.2501,1.2501,1.2501,1.2501,1.2501,1.2501,1.2501,1.2501,1.2501,1.2501,1.2501,1.2501,1.2501,1.2501,1.2501,1.2501,1.2501,1.2501,1.2501,1.2501,1.2501,1.2447,1.2244,1.2166,1.2036,1.1789,1.1681,1.1584,1.1584,1.1584,1.1584,1.1584,1.1584,1.1584,1.1584,1.1584,1.1584,1.1584,1.1584,1.1584,1.1584,1.1584,1.1584,1.1584,1.1584,1.1584,1.1584,1.1665,1.1816,1.1965,1.2121,1.2271,1.242,1.2474,1.2501,1.2501,1.2501,1.2501,2.4281,2.5371,2.6537,2.9445,3.0055,3.0517,3.2572,3.339,3.3663,3.3759,3.323,3.2936,3.367,3.323,3.2659,3.2365,3.2234,3.1234,2.8597,2.8079,2.7377,2.5695,2.5518,2.5518,2.5518,2.5518,2.5518,2.5518,2.5518,2.5518,2.5518,2.548,2.5275,2.4892,2.4789,2.4393,2.3663,2.3352,2.3038,2.2647,2.2417,2.2296,2.2296,2.2296,2.2147,2.1686,1.8716,1.5557,1.2501,1.2501,1.2501,1.2501,1.2501,1.2501,1.2501,1.2501,1.2501,1.2501,1.2501,1.2501,1.2501,1.2501,1.2501,1.2501,1.2501,1.2501,1.2501,1.2501,1.2501,1.2501,1.2488,1.2481,1.2481,1.2467,1.2474,1.24,1.2139,1.2077,1.1996,1.1674,1.1584,1.1584,1.1584,1.1584,1.1584,1.1584,1.1584,1.1584,1.1584,1.1584,1.1584,1.1584,1.1584,1.1584,1.1584,1.1584,1.1584,1.1584,1.1584,1.1584,1.1584,1.1584,1.1651,1.1793,1.1972,1.2159,1.2291,1.242,1.2488,1.2501,1.2501,1.2501,2.3342,2.5117,2.7227,2.9292,3.0865,3.203,3.2585,3.3019,3.3408,3.3725,3.367,3.3596,3.378,3.3927,3.3987,3.3925,3.3159,3.1915,3.0081,2.8754,2.7377,2.5695,2.5518,2.5518,2.5518,2.5518,2.5518,2.5518,2.5518,2.5518,2.5518,2.5198,2.4969,2.4892,2.4061,2.3567,2.339,2.2815,2.2456,2.2381,2.232,2.2296,2.2296,2.2296,2.0887,1.8403,1.7721,1.5557,1.2501,1.2501,1.2501,1.2501,1.2501,1.2501,1.2501,1.2501,1.2501,1.2501,1.2501,1.2501,1.2501,1.2501,1.2501,1.2501,1.2501,1.2501,1.2501,1.2501,1.2501,1.2474,1.2366,1.2338,1.2305,1.222,1.2288,1.225,1.1945,1.184,1.1793,1.1617,1.1584,1.1584,1.1584,1.1584,1.1584,1.1584,1.1584,1.1584,1.1584,1.1584,1.1584,1.1584,1.1584,1.1584,1.1584,1.1584,1.1584,1.1584,1.1584,1.1584,1.1584,1.1584,1.1651,1.1793,1.1827,1.202,1.2291,1.2318,1.2393,1.2501,1.2501,1.2501,2.3887,2.5684,2.7545,2.9814,3.1439,3.2483,3.2324,3.2625,3.2973,3.3193,3.3541,3.3817,3.3817,3.3982,3.3865,3.3144,3.1899,3.0466,2.8896,2.7326,2.6051,2.5166,2.5053,2.5053,2.5053,2.5053,2.5053,2.5053,2.5053,2.4977,2.4789,2.4601,2.4299,2.3959,2.3405,2.3029,2.2803,2.2481,2.2296,2.2296,2.2296,2.2296,2.2259,2.1461,1.9736,1.7341,1.6541,1.479,1.2501,1.2501,1.2501,1.2501,1.2501,1.2501,1.2501,1.2501,1.2501,1.2501,1.2501,1.2501,1.2501,1.2501,1.2501,1.2501,1.2501,1.2501,1.2501,1.2501,1.2454,1.2386,1.2311,1.2237,1.2142,1.1986,1.2067,1.2115,1.1847,1.1793,1.1753,1.1647,1.1584,1.1584,1.1584,1.1584,1.1584,1.1584,1.1584,1.1584,1.1584,1.1584,1.1584,1.1584,1.1584,1.1584,1.1584,1.1584,1.1584,1.1584,1.1584,1.1584,1.1584,1.1584,1.1617,1.1692,1.1759,1.1874,1.2074,1.2216,1.2332,1.24,1.2467,1.2501,2.4235,2.6034,2.769,3.036,3.1602,3.2139,3.1865,3.2166,3.2496,3.2496,3.3138,3.3707,3.3707,3.3762,3.3381,3.2088,3.0395,2.8737,2.7469,2.5749,2.4599,2.4599,2.4599,2.4599,2.4599,2.4599,2.4599,2.4599,2.4472,2.4261,2.3966,2.3819,2.3449,2.2868,2.2794,2.2632,2.2296,2.2248,2.2236,2.2236,2.2236,2.2236,2.2161,2.0246,1.8638,1.7303,1.5896,1.4214,1.2461,1.2433,1.2427,1.2427,1.2427,1.244,1.2467,1.2467,1.2467,1.2467,1.2467,1.2467,1.2461,1.2433,1.2461,1.2494,1.244,1.244,1.2461,1.2433,1.2338,1.2244,1.2216,1.2115,1.1986,1.1793,1.1891,1.1989,1.1786,1.1759,1.1726,1.1604,1.1584,1.1584,1.1584,1.1584,1.1584,1.1584,1.1584,1.1584,1.1584,1.1584,1.1584,1.1584,1.1584,1.1584,1.1584,1.1584,1.1584,1.1584,1.1584,1.1584,1.1584,1.1584,1.1584,1.1584,1.1698,1.1773,1.1793,1.2088,1.2237,1.2291,1.2413,1.2481,2.2091,2.4785,2.7792,3.0025,3.081,3.1019,3.0987,3.1543,3.2093,3.2093,3.2735,3.3269,3.3269,3.3544,3.3747,3.3521,3.1067,2.9131,2.8916,2.643,2.4599,2.4599,2.4599,2.4599,2.4599,2.4599,2.4599,2.4599,2.4066,2.3716,2.3679,2.3058,2.2655,2.2545,2.2435,2.2334,2.2296,2.2079,2.1958,2.1958,2.1958,2.1958,2.1847,1.8905,1.751,1.7369,1.703,1.5161,1.2311,1.2213,1.2159,1.2159,1.2159,1.2203,1.2318,1.2318,1.2318,1.2318,1.2318,1.2318,1.2298,1.22,1.2291,1.2454,1.2234,1.221,1.2291,1.2193,1.2145,1.2098,1.1925,1.184,1.1786,1.1644,1.1667,1.1674,1.1617,1.1647,1.1604,1.1584,1.1584,1.1584,1.1584,1.1584,1.1584,1.1584,1.1584,1.1584,1.1584,1.1584,1.1584,1.1584,1.1584,1.1584,1.1584,1.1584,1.1584,1.1584,1.1584,1.1584,1.1584,1.1584,1.1584,1.1584,1.1604,1.1671,1.1793,1.1834,1.2026,1.2291,1.2311,1.2386,2.2635,2.5151,2.7438,2.9442,3.0037,3.0198,3.0406,3.0901,3.1322,3.1322,3.1983,3.2606,3.2826,3.2347,3.1941,3.1941,2.94,2.7398,2.7398,2.554,2.4155,2.4155,2.4155,2.4155,2.4155,2.4155,2.4155,2.4155,2.3674,2.3271,2.3055,2.2549,2.2187,2.1946,2.1873,2.1861,2.1861,2.174,2.1692,2.1692,2.1692,2.1692,2.1619,1.9336,1.7939,1.719,1.5201,1.3529,1.2193,1.2125,1.2098,1.2098,1.2098,1.2139,1.22,1.22,1.22,1.22,1.22,1.22,1.2186,1.2118,1.2186,1.2268,1.2139,1.2145,1.2186,1.2118,1.2036,1.1918,1.1813,1.1739,1.1658,1.1597,1.1584,1.1584,1.1584,1.1584,1.1584,1.1584,1.1584,1.1584,1.1584,1.1584,1.1584,1.1584,1.1584,1.1584,1.1584,1.1584,1.1584,1.1584,1.1584,1.1584,1.1584,1.1584,1.1584,1.1584,1.1584,1.1584,1.1584,1.1584,1.1584,1.1584,1.1584,1.1611,1.1678,1.1753,1.1861,1.2033,1.2121,1.2234,2.2626,2.4574,2.5949,2.808,2.8883,2.928,2.9764,3.0277,3.0644,3.0644,3.1121,3.1573,3.1595,3.0999,3.0378,3.002,2.772,2.6014,2.6014,2.472,2.3803,2.3803,2.3803,2.3803,2.3803,2.3803,2.3803,2.3803,2.3368,2.2937,2.251,2.2176,2.1783,2.1401,2.1474,2.151,2.151,2.145,2.1377,2.1317,2.1377,2.1414,2.1342,1.9387,1.7972,1.686,1.3927,1.2407,1.2036,1.2002,1.1989,1.1989,1.1989,1.2009,1.2006,1.2006,1.2006,1.2006,1.2006,1.2006,1.2036,1.1996,1.2036,1.2084,1.2009,1.2009,1.2036,1.1996,1.1864,1.1739,1.1739,1.1665,1.1584,1.1584,1.1584,1.1584,1.1584,1.1584,1.1584,1.1584,1.1584,1.1584,1.1584,1.1584,1.1584,1.1584,1.1584,1.1584,1.1584,1.1584,1.1584,1.1584,1.1584,1.1584,1.1584,1.1584,1.1584,1.1584,1.1584,1.1584,1.1584,1.1584,1.1584,1.1584,1.1584,1.1584,1.1584,1.1692,1.1759,1.18,1.1952,1.2064,2.0528,2.1652,2.2651,2.556,2.7102,2.8105,2.8865,2.9654,3.0241,3.0241,3.0259,2.9999,2.9072,2.9792,3.0054,2.8652,2.7061,2.6014,2.6014,2.472,2.3803,2.3803,2.3803,2.3803,2.3803,2.3803,2.3803,2.3803,2.3183,2.2661,2.224,2.184,2.1465,2.1111,2.1377,2.151,2.151,2.1244,2.099,2.0749,2.1002,2.1111,2.1005,1.8016,1.6589,1.6454,1.4881,1.329,1.1793,1.1694,1.164,1.164,1.164,1.1692,1.1807,1.1807,1.1807,1.1807,1.1807,1.1807,1.1786,1.1687,1.1837,1.2043,1.1728,1.1698,1.178,1.1644,1.164,1.1597,1.1597,1.1626,1.1584,1.1584,1.1584,1.1584,1.1584,1.1584,1.1584,1.1584,1.1584,1.1584,1.1584,1.1584,1.1584,1.1584,1.1584,1.1584,1.1584,1.1584,1.1584,1.1584,1.1584,1.1584,1.1584,1.1584,1.1584,1.1584,1.1584,1.1584,1.1584,1.1584,1.1584,1.1584,1.1584,1.1584,1.1584,1.1626,1.1665,1.1793,1.18,1.1925,1.9252,2.0497,2.18,2.3743,2.5263,2.6398,2.6949,2.8307,2.9415,2.9415,2.9174,2.8549,2.7257,2.7524,2.7548,2.6356,2.4968,2.4018,2.4018,2.3561,2.3228,2.3228,2.3228,2.3228,2.3228,2.3228,2.3228,2.3228,2.2775,2.2328,2.1947,2.1565,2.1182,2.0845,2.0942,2.099,2.099,2.0894,2.0797,2.07,2.0797,2.0845,2.074,1.7637,1.6245,1.6102,1.3654,1.2229,1.1658,1.1604,1.1584,1.1584,1.1584,1.1617,1.1658,1.1658,1.1658,1.1658,1.1658,1.1658,1.1651,1.1633,1.1694,1.1755,1.1653,1.1617,1.1651,1.1597,1.1584,1.1584,1.1584,1.1584,1.1584,1.1584,1.1584,1.1584,1.1584,1.1584,1.1584,1.1584,1.1584,1.1584,1.1584,1.1584,1.1584,1.1584,1.1584,1.1584,1.1584,1.1584,1.1584,1.1584,1.1584,1.1584,1.1584,1.1584,1.1584,1.1584,1.1584,1.1584,1.1584,1.1584,1.1584,1.1584,1.1584,1.1584,1.1584,1.1584,1.1611,1.1658,1.1658,1.1728,1.7923,1.9221,2.0746,2.2613,2.3647,2.4425,2.5414,2.6557,2.7394,2.7405,2.7172,2.663,2.5453,2.5367,2.5174,2.4176,2.3193,2.2599,2.2599,2.2599,2.2599,2.2599,2.2599,2.2639,2.2699,2.2644,2.265,2.2893,2.2413,2.2035,2.1807,2.1415,2.1047,2.07,2.07,2.07,2.07,2.07,2.07,2.07,2.07,2.07,2.0596,1.7514,1.6096,1.5919,1.2924,1.1584,1.1584,1.1584,1.1584,1.1584,1.1584,1.1584,1.1584,1.1584,1.1584,1.1584,1.1584,1.1584,1.1584,1.1584,1.1584,1.1584,1.1584,1.1584,1.1584,1.1584,1.1584,1.1584,1.1584,1.1584,1.1584,1.1584,1.1584,1.1584,1.1584,1.1584,1.1584,1.1584,1.1584,1.1584,1.1584,1.1584,1.1584,1.1584,1.1584,1.1404,1.0887,1.0815,1.0635,1.0125,1.0053,1.0269,1.0779,1.0815,1.1038,1.1584,1.1584,1.1584,1.1584,1.1584,1.1584,1.1584,1.1584,1.1584,1.1584,1.1584,1.1584,1.1584,1.1584,1.1584,0.0,0.0,0.0,2.208,2.2199,2.2191,2.426,2.4422,2.4107,2.4156,2.4318,2.4266,2.3573,2.3452,2.3089,2.2127,2.1964,2.1991,2.1991,2.1991,2.1991,2.1991,2.1991,2.2065,2.2345,2.2069,2.212,2.2785,2.2181,2.1781,2.1769,2.1402,2.1034,2.07,2.07,2.07,2.07,2.07,2.07,2.07,2.07,2.07,2.0596,1.7514,1.6096,1.5919,1.2924,1.1584,1.1584,1.1584,1.1584,1.1584,1.1584,1.1584,1.1584,1.1584,1.1584,1.1584,1.1584,1.1584,1.1584,1.1584,1.1584,1.1584,1.1584,1.1584,1.1584,1.1584,1.1584,1.1584,1.1584,1.1584,1.1584,1.1584,1.1584,1.1584,1.1584,1.1584,1.1584,1.1584,1.1584,1.1584,1.1584,1.1584,1.1584,1.1584,1.1584,1.1074,0.9543,0.9327,0.8709,0.7223,0.7042,0.7621,0.9111,0.9219,0.9909,1.1433,1.1548,1.1548,1.1584,1.1584,1.1584,1.1584,1.1584,1.1584,1.1584,1.1584,1.1584,1.1584,1.1584,1.1584,1.6313,0.0,0.0,0.0,0.0,0.0,2.1078,2.1507,2.1994,2.2629,2.2308,2.206,2.2465,2.1987,2.1374,2.1092,2.1609,2.1991,2.1991,2.1793,2.1628,2.1628,2.143,2.1303,2.1381,2.1281,2.1319,2.1497,2.1342,2.1108,2.0793,2.0653,2.061,2.07,2.07,2.07,2.07,2.07,2.07,2.07,2.07,2.07,2.0596,1.7514,1.6096,1.5919,1.2924,1.1584,1.1584,1.1584,1.1584,1.1584,1.1584,1.1584,1.1584,1.1584,1.1584,1.1584,1.1584,1.1584,1.1584,1.1584,1.1584,1.1584,1.1584,1.1584,1.1584,1.1584,1.1584,1.1584,1.1584,1.1584,1.1584,1.1584,1.1584,1.1584,1.1584,1.1584,1.1584,1.1584,1.1584,1.1584,1.1584,1.1584,1.1584,1.1584,1.1584,1.144,1.1038,0.9981,0.9147,0.8709,0.7657,0.7187,0.7584,0.7621,0.8312,0.9837,0.9945,1.0455,1.1548,1.1584,1.1584,1.1584,1.1584,1.1584,1.1584,1.1584,1.1584,1.1584,1.1584,1.1584,1.7177,1.7971,1.9161,1.9117,0.0,0.0,1.9226,1.9296,1.954,2.0298,2.0157,2.0132,2.0883,2.0635,2.0347,2.0468,2.0934,2.129,2.1409,2.1241,2.1078,2.0915,2.0753,2.0673,2.0788,2.0669,2.0687,2.0966,2.0713,2.0447,2.0214,2.0269,2.0386,2.0531,2.064,2.07,2.07,2.07,2.07,2.07,2.07,2.07,2.0631,1.8191,1.6695,1.5955,1.3595,1.2187,1.1584,1.1584,1.1584,1.1584,1.1584,1.1584,1.1584,1.1584,1.1584,1.1584,1.1584,1.1584,1.1584,1.1584,1.1584,1.1584,1.1584,1.1584,1.1584,1.1584,1.1584,1.1584,1.1584,1.1584,1.1584,1.1584,1.1584,1.1584,1.1584,1.1584,1.1584,1.1584,1.1584,1.1584,1.1584,1.1584,1.1584,1.1584,1.1038,1.0413,0.9765,0.8348,0.7119,0.6467,0.5558,0.5307,0.5993,0.6644,0.7657,0.9219,0.9909,1.0671,1.1548,1.1584,1.1584,1.1584,1.1584,1.1584,1.1584,1.1584,1.1584,1.1584,1.1584,1.1584,1.8597,1.8695,1.9159,1.9656,1.8918,0.0,1.817,1.7538,1.7107,1.7606,1.7942,1.8343,1.8986,1.9332,1.9639,1.9863,1.9994,2.0172,2.055,2.0539,2.0393,2.0074,2.0011,2.0067,2.032,2.0053,2.0165,2.0732,2.0195,1.9808,1.9833,2.0096,2.0241,2.0265,2.0519,2.064,2.0616,2.0676,2.0688,2.0664,2.0688,2.07,2.0665,1.9111,1.7549,1.6025,1.4547,1.3031,1.1584,1.1584,1.1584,1.1584,1.1584,1.1584,1.1584,1.1584,1.1584,1.1584,1.1584,1.1584,1.1584,1.1584,1.1584,1.1584,1.1584,1.1584,1.1584,1.1584,1.1584,1.1584,1.1584,1.1584,1.1584,1.1584,1.1584,1.1584,1.1584,1.1584,1.1584,1.1584,1.1584,1.1584,1.1584,1.1584,1.1584,1.1584,1.0305,0.8817,0.744,0.5742,0.4148,0.2727,0.24,0.2872,0.4322,0.5693,0.721,0.8925,1.0341,1.1253,1.1584,1.1584,1.1584,1.1584,1.1584,1.1584,1.1584,1.1584,1.1584,1.1584,1.1584,1.1584,1.888,1.896,1.8966,1.8139,1.8164,0.0,1.6631,1.6181,1.6035,1.5922,1.5965,1.6246,1.7074,1.7662,1.8063,1.809,1.8689,1.9481,2.0472,2.0125,1.9775,1.9711,1.9456,1.932,1.9369,1.9317,1.9342,1.9455,1.9326,1.9358,1.9576,1.9624,1.9757,1.9953,2.0253,2.0289,2.0071,2.0495,2.0591,2.0386,2.0603,2.07,2.0665,1.9111,1.7549,1.6025,1.4547,1.3031,1.1584,1.1584,1.1584,1.1584,1.1584,1.1584,1.1584,1.1584,1.1584,1.1584,1.1584,1.1584,1.1584,1.1584,1.1584,1.1584,1.1584,1.1584,1.1584,1.1584,1.1584,1.1584,1.1584,1.1584,1.1584,1.1584,1.1584,1.1584,1.1584,1.1584,1.1584,1.1584,1.1584,1.1584,1.1584,1.1584,1.1584,1.1584,1.0305,0.9183,0.8889,0.6431,0.4565,0.4195,0.305,0.2442,0.2729,0.305,0.4428,0.7255,0.7729,0.9002,1.1512,1.1584,1.1584,1.1584,1.1584,1.1584,1.1584,1.1584,1.1584,1.1584,1.1584,1.1584,2.0006,1.9559,1.8918,1.8016,1.7858,0.0,0.0,1.5713,1.5565,1.6177,1.5829,1.5712,1.6765,1.7073,1.722,1.7367,1.799,1.8602,1.9038,1.9177,1.9143,1.8956,1.8811,1.8734,1.8899,1.8911,1.8971,1.9092,1.9104,1.9165,1.9298,1.9431,1.9564,1.9709,1.9975,2.0059,1.9881,2.018,2.0241,2.0086,2.0253,2.0386,2.0438,1.8886,1.7436,1.6025,1.4547,1.3031,1.1584,1.1584,1.1584,1.1584,1.1584,1.1584,1.1584,1.1584,1.1584,1.1584,1.1584,1.1584,1.1584,1.1584,1.1584,1.1584,1.1584,1.1584,1.1584,1.1584,1.1584,1.1584,1.1584,1.1584,1.1584,1.1584,1.1584,1.1563,1.1525,1.1504,1.1504,1.1504,1.1443,1.1443,1.1592,1.1584,1.1325,1.0563,0.9098,0.784,0.7048,0.4908,0.3458,0.3398,0.2727,0.2233,0.2233,0.2973,0.4112,0.5699,0.7194,0.8713,1.0352,1.1106,1.1545,1.1619,1.1584,1.1584,1.1584,1.1584,1.1584,1.1584,1.1584,1.1584,2.0923,2.0054,1.8984,1.8195,1.7863,1.7438,0.0,0.0,0.0,1.6576,1.6003,1.5628,1.6603,1.6551,1.6446,1.6737,1.7174,1.74,1.7145,1.7706,1.8103,1.8004,1.807,1.8215,1.8463,1.8408,1.856,1.8923,1.8862,1.8862,1.9019,1.9285,1.9418,1.9418,1.9697,1.9817,1.9769,1.9833,1.9857,1.9808,1.989,2.0002,2.0161,1.8664,1.7261,1.5934,1.4496,1.3001,1.1584,1.1584,1.1584,1.1584,1.1584,1.1584,1.1584,1.1584,1.1584,1.1584,1.1584,1.1584,1.1584,1.1584,1.1584,1.1584,1.1584,1.1584,1.1584,1.1584,1.1584,1.1584,1.1584,1.1584,1.1584,1.1584,1.1599,1.1545,1.1416,1.1369,1.1348,1.1348,1.1281,1.1288,1.1531,1.1552,1.0989,0.9476,0.7896,0.6319,0.4796,0.3209,0.2209,0.2202,0.2202,0.2202,0.2202,0.3384,0.4254,0.4579,0.7091,0.8737,0.9144,1.0594,1.1463,1.1613,1.1584,1.1584,1.1584,1.1584,1.1584,1.1584,1.1584,1.1584,2.0443,1.9955,1.904,1.7656,1.8252,1.8522,1.6056,0.0,1.6259,1.5414,0.0,1.5102,1.5236,0.0,0.0,1.5227,1.5497,1.5593,1.5315,1.5627,1.6132,1.6791,1.7298,1.7587,1.7612,1.7406,1.7587,1.8324,1.7937,1.7974,1.8717,1.9007,1.9152,1.9152,1.9406,1.9431,1.9201,1.9652,1.9793,1.9551,1.9805,1.9938,1.9896,1.8452,1.7069,1.5684,1.43,1.293,1.1584,1.1584,1.1584,1.1584,1.1584,1.1584,1.1584,1.1584,1.1584,1.1584,1.1584,1.1584,1.1584,1.1584,1.1584,1.1584,1.1584,1.1584,1.1584,1.1584,1.1584,1.1584,1.1584,1.1584,1.1584,1.1584,1.1518,1.1409,1.1396,1.1322,1.1227,1.1227,1.1206,1.1254,1.1389,1.1307,1.0727,0.926,0.7706,0.6197,0.4765,0.3192,0.2199,0.2208,0.2206,0.2206,0.2206,0.2377,0.3078,0.4506,0.6078,0.7583,0.8959,1.0544,1.1463,1.1613,1.1584,1.1584,1.1584,1.1584,1.1584,1.1584,1.1584,1.1584,2.0204,1.971,1.8878,1.7916,1.8009,1.7983,1.6486,1.6046,1.5952,1.5965,0.0,0.0,0.0,0.0,0.0,0.0,1.514,1.5006,1.4373,1.4599,1.5046,1.568,1.6103,1.6513,1.6984,1.7068,1.7237,1.7575,1.7411,1.7539,1.8209,1.8645,1.8947,1.9104,1.9213,1.9213,1.9104,1.9334,1.9394,1.9273,1.9394,1.9527,1.9606,1.7286,1.5991,1.5469,1.3216,1.1915,1.1355,1.1355,1.1409,1.1491,1.1491,1.1538,1.1584,1.1584,1.1584,1.1584,1.1584,1.1584,1.1584,1.1584,1.1584,1.1584,1.1584,1.1584,1.1584,1.1584,1.1558,1.1491,1.1491,1.1423,1.1355,1.1355,1.1307,1.1233,1.1151,1.1084,1.1036,1.1036,1.0317,0.9721,0.9853,0.9896,0.9146,0.6813,0.5864,0.4871,0.3391,0.2614,0.2188,0.2208,0.2208,0.2208,0.2208,0.2208,0.2485,0.3181,0.4612,0.6455,0.88,0.9678,1.0561,1.1484,1.1572,1.1584,1.1584,1.1584,1.1584,1.1584,1.1584,1.1584,2.0048,1.9636,1.9036,1.8116,1.7782,1.7488,1.666,1.6166,1.5992,1.638,1.6003,0.0,0.0,0.0,1.5079,1.4999,0.0,1.4582,1.3795,1.3848,1.4128,1.4522,1.492,1.5451,1.6199,1.6235,1.6344,1.6634,1.6585,1.6875,1.7653,1.827,1.8698,1.8995,1.9068,1.9104,1.9104,1.9104,1.9104,1.9104,1.9104,1.9008,1.8732,1.6209,1.4967,1.4679,1.2186,1.1159,1.12,1.12,1.1261,1.1335,1.1375,1.1436,1.1504,1.1586,1.1584,1.1584,1.1584,1.1584,1.1584,1.1584,1.1592,1.1558,1.1558,1.1531,1.1497,1.1497,1.1416,1.1363,1.1363,1.1281,1.12,1.12,1.1166,1.1077,1.0934,1.0576,1.0274,1.0274,0.9041,0.7899,0.7607,0.7956,0.7426,0.4911,0.4458,0.3888,0.2392,0.2203,0.2189,0.2189,0.2189,0.2189,0.2189,0.2189,0.2356,0.2759,0.3833,0.5594,0.8107,0.8396,0.9205,1.0725,1.0834,1.1083,1.1558,1.1558,1.1543,1.1584,1.1584,1.1584,1.998,1.9973,1.9743,1.8036,1.7782,1.7596,1.6168,1.6524,1.6886,1.6008,1.6513,1.6846,1.5968,1.5591,1.5297,1.5039,1.4569,0.0,0.0,1.3247,1.3135,1.3159,1.387,1.4558,1.5101,1.4461,1.4437,1.5475,1.5318,1.5741,1.7044,1.7877,1.8432,1.8686,1.8971,1.9104,1.9104,1.9104,1.9104,1.9104,1.9104,1.8387,1.7023,1.5564,1.4235,1.3009,1.155,1.1036,1.12,1.12,1.12,1.122,1.1335,1.1301,1.1247,1.1511,1.1584,1.1584,1.1584,1.1584,1.1584,1.1584,1.1518,1.1396,1.1396,1.1329,1.1213,1.1213,1.1206,1.1206,1.1206,1.12,1.12,1.12,1.1056,1.0921,1.0914,0.9713,0.8679,0.8679,0.7469,0.6034,0.4672,0.5573,0.5975,0.454,0.4305,0.3801,0.2391,0.2189,0.2189,0.2189,0.2189,0.2189,0.2189,0.2189,0.2793,0.4132,0.4269,0.5036,0.6702,0.6783,0.7516,0.9047,0.9087,0.9846,1.1396,1.1396,1.1477,1.1584,1.1584,1.1584,2.0104,2.0307,2.0201,1.8811,1.841,1.7996,1.6675,1.6819,1.6926,1.5981,1.6565,1.6899,1.5968,1.5591,1.5251,1.4801,1.4435,1.3956,0.0,1.295,1.2841,1.2853,1.3556,1.4111,1.4292,1.4063,1.4123,1.4666,1.4799,1.5354,1.6517,1.7508,1.8246,1.8705,1.8971,1.9104,1.9104,1.9104,1.9104,1.9072,1.815,1.7464,1.6915,1.4577,1.3277,1.2806,1.1392,1.0826,1.0873,1.0873,1.0928,1.1029,1.1043,1.1124,1.122,1.1396,1.1402,1.137,1.1436,1.1538,1.1599,1.1504,1.1436,1.1369,1.1302,1.124,1.12,1.12,1.1097,1.0988,1.0988,1.0948,1.0873,1.0873,1.0833,1.0525,0.9582,0.8973,0.8307,0.7336,0.6001,0.4867,0.4367,0.3931,0.3461,0.2993,0.2926,0.2726,0.2255,0.2189,0.2189,0.2189,0.2189,0.2189,0.2189,0.2189,0.2389,0.2894,0.2926,0.4006,0.6409,0.6639,0.7815,1.0197,1.0388,1.0735,1.1274,1.1274,1.1302,1.1349,1.1349,1.1423,2.0384,2.0535,2.0458,1.9345,1.8945,1.8491,1.7154,1.7287,1.7394,1.6486,1.6779,1.71,1.682,1.5947,1.5243,1.5094,1.4507,1.3832,0.0,1.2833,1.2707,1.2708,1.3157,1.3519,1.3616,1.3375,1.3471,1.4111,1.4244,1.4787,1.5946,1.7133,1.7968,1.8415,1.8874,1.9104,1.9104,1.8612,1.8355,1.8355,1.6915,1.6009,1.5446,1.3628,1.252,1.2,1.1082,1.0684,1.0684,1.0684,1.0745,1.084,1.0894,1.0941,1.1063,1.1233,1.1281,1.1213,1.1308,1.1375,1.1443,1.1376,1.1274,1.1219,1.1118,1.105,1.1002,1.1002,1.0941,1.0833,1.0833,1.0759,1.0684,1.0684,1.0319,0.9709,0.8806,0.7807,0.6802,0.5834,0.4532,0.3564,0.3564,0.2793,0.2189,0.2189,0.2189,0.2189,0.2189,0.2189,0.2189,0.2189,0.2189,0.2189,0.2189,0.2189,0.2189,0.2189,0.2189,0.3026,0.483,0.5514,0.6931,0.9266,0.9931,1.0545,1.1084,1.1084,1.1145,1.12,1.12,1.1302]},{"header":{"parameterUnit":"m.s-1","parameterCategory":1,"la1":30.6,"la2":29.2853,"lo1":-89.7004,"lo2":-87.6739,"dy":0.0162,"dx":0.0183,"nx":112,"ny":82,"refTime":"2024-09-04T12:00:00:Z","depth":0,"parameterNumber":3,"parameterNumberName":"V-component_of_WINDS"},"data":[0.0,0.0,0.0,0.0,0.0,0.0,0.0,0.0,0.0,0.0,0.0,0.0,0.0,0.0,0.0,0.0,0.0,0.0,0.0,0.0,0.0,0.0,0.0,0.0,0.0,0.0,0.0,0.0,0.0,0.0,0.0,0.0,0.0,0.0,0.0,0.0,0.0,0.0,0.0,0.0,0.0,0.0,0.0,0.0,0.0,0.0,0.0,0.0,0.0,0.0,0.0,0.0,0.0,0.0,0.0,0.0,0.0,0.0,0.0,0.0,0.0,0.0,0.0,0.0,0.0,0.0,0.0,0.0,0.0,0.0,0.0,0.0,0.0,0.0,0.0,0.0,0.0,0.0,0.0,0.0,0.0,0.0,0.0,0.0,0.0,0.0,0.0,0.0,0.0,0.0,3.9365,4.366,4.9003,5.2063,5.1404,5.0863,4.7631,4.0891,0.0,0.0,0.0,0.0,0.0,0.0,0.0,0.0,0.0,0.0,0.0,0.0,0.0,0.0,0.0,0.0,0.0,0.0,0.0,0.0,0.0,0.0,0.0,0.0,0.0,0.0,0.0,0.0,0.0,0.0,0.0,0.0,0.0,0.0,0.0,0.0,0.0,0.0,0.0,0.0,0.0,0.0,0.0,0.0,0.0,0.0,0.0,0.0,0.0,0.0,0.0,0.0,0.0,0.0,0.0,0.0,0.0,0.0,0.0,0.0,0.0,0.0,0.0,0.0,0.0,0.0,0.0,0.0,0.0,0.0,0.0,0.0,0.0,0.0,0.0,0.0,0.0,0.0,0.0,0.0,0.0,0.0,0.0,0.0,0.0,0.0,0.0,0.0,0.0,0.0,0.0,0.0,0.0,0.0,0.0,0.0,0.0,0.0,0.0,0.0,0.0,0.0,0.0,0.0,3.958,4.65,5.027,5.2266,5.2131,4.9255,4.5872,4.2198,0.0,0.0,0.0,0.0,0.0,0.0,0.0,0.0,0.0,0.0,0.0,0.0,0.0,0.0,0.0,0.0,0.0,0.0,0.0,0.0,0.0,0.0,0.0,0.0,0.0,0.0,0.0,0.0,0.0,0.0,0.0,0.0,0.0,0.0,0.0,0.0,0.0,0.0,0.0,0.0,0.0,0.0,0.0,0.0,0.0,0.0,0.0,0.0,0.0,0.0,0.0,0.0,0.0,0.0,0.0,0.0,0.0,0.0,0.0,0.0,0.0,0.0,0.0,0.0,0.0,0.0,0.0,0.0,0.0,0.0,0.0,0.0,0.0,0.0,0.0,0.0,0.0,0.0,0.0,0.0,0.0,0.0,0.0,0.0,0.0,0.0,0.0,0.0,0.0,0.0,0.0,0.0,0.0,0.0,0.0,0.0,0.0,0.0,0.0,0.0,0.0,0.0,0.0,3.9404,4.3247,4.907,5.1641,5.2773,5.2334,4.9661,4.6177,4.1982,3.8159,0.0,0.0,0.0,0.0,0.0,0.0,0.0,0.0,0.0,0.0,0.0,0.0,0.0,0.0,0.0,0.0,0.0,0.0,0.0,0.0,0.0,0.0,0.0,0.0,0.0,0.0,0.0,0.0,0.0,0.0,0.0,0.0,0.0,0.0,0.0,0.0,0.0,0.0,0.0,0.0,0.0,0.0,0.0,0.0,0.0,0.0,0.0,0.0,0.0,0.0,0.0,0.0,0.0,0.0,0.0,0.0,0.0,0.0,0.0,0.0,0.0,0.0,0.0,0.0,0.0,0.0,0.0,0.0,0.0,0.0,0.0,0.0,0.0,0.0,0.0,0.0,0.0,0.0,0.0,0.0,0.0,0.0,0.0,0.0,0.0,0.0,0.0,0.0,0.0,0.0,0.0,0.0,0.0,0.0,0.0,0.0,0.0,0.0,0.0,0.0,0.0,0.0,4.4248,4.6853,5.0761,5.2588,5.3179,5.2367,4.9627,4.594,4.1238,3.6073,0.0,0.0,0.0,0.0,0.0,0.0,0.0,0.0,0.0,0.0,0.0,0.0,0.0,0.0,0.0,0.0,0.0,0.0,0.0,0.0,0.0,0.0,0.0,0.0,0.0,0.0,0.0,0.0,0.0,0.0,0.0,0.0,0.0,0.0,0.0,0.0,0.0,0.0,0.0,0.0,0.0,0.0,0.0,0.0,0.0,0.0,0.0,0.0,0.0,0.0,0.0,0.0,0.0,0.0,0.0,0.0,0.0,0.0,0.0,0.0,0.0,0.0,0.0,0.0,0.0,0.0,0.0,0.0,0.0,0.0,0.0,0.0,0.0,0.0,0.0,0.0,0.0,0.0,0.0,0.0,0.0,0.0,0.0,0.0,0.0,0.0,0.0,0.0,0.0,0.0,0.0,0.0,0.0,0.0,0.0,0.0,0.0,0.0,0.0,0.0,0.0,0.0,4.4621,4.8563,5.0964,5.2588,5.3179,5.2367,4.7748,4.3565,4.0383,3.3376,0.0,0.0,0.0,0.0,0.0,0.0,0.0,0.0,0.0,0.0,0.0,0.0,0.0,0.0,0.0,0.0,0.0,0.0,0.0,0.0,0.0,0.0,0.0,0.0,0.0,0.0,0.0,0.0,0.0,0.0,0.0,0.0,0.0,0.0,0.0,0.0,0.0,0.0,0.0,0.0,0.0,0.0,0.0,0.0,0.0,0.0,0.0,0.0,0.0,0.0,0.0,0.0,0.0,0.0,0.0,0.0,0.0,0.0,0.0,0.0,0.0,0.0,0.0,0.0,0.0,0.0,0.0,0.0,0.0,0.0,0.0,0.0,0.0,0.0,0.0,0.0,0.0,0.0,0.0,0.0,0.0,0.0,0.0,0.0,0.0,0.0,0.0,0.0,0.0,0.0,0.0,0.0,0.0,0.0,0.0,0.0,0.0,0.0,0.0,0.0,0.0,0.0,4.4418,4.809,5.2182,5.3145,5.2807,5.1082,4.8308,4.4384,3.9073,0.0,0.0,0.0,0.0,0.0,0.0,0.0,0.0,0.0,0.0,0.0,0.0,0.0,0.0,0.0,0.0,0.0,0.0,0.0,0.0,0.0,0.0,0.0,0.0,0.0,0.0,0.0,0.0,0.0,0.0,0.0,0.0,0.0,0.0,0.0,0.0,0.0,0.0,0.0,0.0,0.0,0.0,0.0,0.0,0.0,0.0,0.0,0.0,0.0,0.0,0.0,0.0,0.0,0.0,0.0,0.0,0.0,0.0,0.0,0.0,0.0,0.0,0.0,0.0,0.0,0.0,0.0,0.0,0.0,0.0,0.0,0.0,0.0,0.0,0.0,0.0,0.0,0.0,0.0,0.0,0.0,0.0,0.0,0.0,0.0,0.0,0.0,0.0,0.0,0.0,0.0,0.0,0.0,0.0,0.0,0.0,0.0,0.0,0.0,0.0,0.0,0.0,4.1001,4.4756,4.836,5.2672,5.3348,5.257,5.0286,4.7853,4.393,3.7922,0.0,0.0,0.0,0.0,0.0,0.0,0.0,0.0,0.0,0.0,0.0,0.0,0.0,0.0,0.0,0.0,0.0,0.0,0.0,0.0,0.0,0.0,0.0,0.0,0.0,0.0,0.0,0.0,0.0,0.0,0.0,0.0,0.0,0.0,0.0,0.0,0.0,0.0,0.0,0.0,0.0,0.0,0.0,0.0,0.0,0.0,0.0,0.0,0.0,0.0,0.0,0.0,0.0,0.0,0.0,0.0,0.0,0.0,0.0,0.0,0.0,0.0,0.0,0.0,0.0,0.0,0.0,0.0,0.0,0.0,0.0,0.0,0.0,0.0,0.0,0.0,0.0,0.0,0.0,0.0,0.0,0.0,0.0,0.0,0.0,0.0,0.0,0.0,0.0,0.0,0.0,0.0,0.0,0.0,0.0,0.0,0.0,0.0,0.0,0.0,0.0,0.0,4.0527,4.5771,4.9864,5.2063,5.301,5.257,5.0286,4.5993,4.1529,0.0,0.0,0.0,0.0,0.0,0.0,0.0,0.0,0.0,0.0,0.0,0.0,0.0,0.0,0.0,0.0,0.0,0.0,0.0,0.0,0.0,0.0,0.0,0.0,0.0,0.0,0.0,0.0,0.0,0.0,0.0,0.0,0.0,0.0,0.0,0.0,0.0,0.0,0.0,0.0,0.0,0.0,0.0,0.0,0.0,0.0,0.0,0.0,0.0,0.0,0.0,0.0,0.0,0.0,0.0,0.0,0.0,0.0,0.0,0.0,0.0,0.0,0.0,0.0,0.0,0.0,0.0,0.0,0.0,0.0,0.0,0.0,0.0,0.0,0.0,0.0,0.0,0.0,0.0,0.0,0.0,0.0,0.0,0.0,0.0,0.0,0.0,0.0,0.0,0.0,0.0,0.0,0.0,0.0,0.0,0.0,0.0,0.0,0.0,0.0,0.0,0.0,0.0,4.0527,4.5771,4.9864,5.2063,5.301,5.2367,4.956,4.7158,4.2997,3.6355,0.0,0.0,0.0,0.0,0.0,0.0,0.0,0.0,0.0,0.0,0.0,0.0,0.0,0.0,0.0,0.0,0.0,0.0,0.0,0.0,0.0,0.0,0.0,0.0,0.0,0.0,0.0,0.0,0.0,0.0,0.0,0.0,0.0,0.0,0.0,0.0,0.0,0.0,0.0,0.0,0.0,0.0,0.0,0.0,0.0,0.0,0.0,0.0,0.0,0.0,0.0,0.0,0.0,0.0,0.0,0.0,0.0,0.0,0.0,0.0,0.0,0.0,0.0,0.0,0.0,0.0,0.0,0.0,0.0,0.0,0.0,0.0,0.0,0.0,0.0,0.0,0.0,0.0,0.0,0.0,0.0,0.0,0.0,0.0,0.0,0.0,0.0,0.0,0.0,0.0,0.0,0.0,0.0,0.0,0.0,0.0,0.0,0.0,0.0,0.0,0.0,0.0,4.0967,4.594,4.9864,5.2063,5.2739,5.2063,4.9627,4.8071,4.4316,3.7403,0.0,0.0,0.0,0.0,0.0,0.0,0.0,0.0,0.0,0.0,0.0,0.0,0.0,0.0,0.0,0.0,0.0,0.0,0.0,0.0,0.0,0.0,0.0,0.0,0.0,0.0,0.0,0.0,0.0,0.0,0.0,0.0,0.0,0.0,0.0,0.0,0.0,0.0,0.0,0.0,0.0,0.0,0.0,0.0,0.0,0.0,0.0,0.0,0.0,0.0,0.0,0.0,0.0,0.0,0.0,0.0,0.0,0.0,0.0,0.0,0.0,0.0,0.0,0.0,0.0,0.0,0.0,0.0,0.0,0.0,0.0,0.0,0.0,0.0,0.0,0.0,0.0,0.0,0.0,0.0,0.0,0.0,0.0,0.0,0.0,0.0,0.0,0.0,0.0,0.0,0.0,0.0,0.0,0.0,0.0,0.0,0.0,0.0,0.0,0.0,0.0,0.0,4.1542,4.6177,4.9796,5.186,5.2232,5.1691,5.015,4.8714,4.5384,3.9478,0.0,0.0,0.0,0.0,0.0,0.0,0.0,0.0,0.0,0.0,0.0,0.0,0.0,0.0,0.0,0.0,0.0,0.0,0.0,0.0,0.0,0.0,0.0,0.0,0.0,0.0,0.0,0.0,0.0,0.0,0.0,0.0,0.0,0.0,0.0,0.0,0.0,0.0,0.0,0.0,0.0,0.0,0.0,0.0,0.0,0.0,0.0,0.0,0.0,0.0,0.0,0.0,0.0,0.0,0.0,0.0,0.0,0.0,0.0,0.0,3.1196,2.9355,0.0,0.0,0.0,0.0,0.0,0.0,0.0,0.0,0.0,0.0,0.0,0.0,0.0,0.0,0.0,0.0,0.0,0.0,0.0,0.0,0.0,0.0,0.0,0.0,0.0,0.0,0.0,0.0,0.0,0.0,0.0,0.0,0.0,0.0,0.0,0.0,0.0,0.0,0.0,0.0,4.0899,4.5872,4.939,5.0455,5.1623,5.1488,4.9424,4.8394,4.5587,4.021,3.6727,0.0,0.0,0.0,0.0,0.0,0.0,0.0,0.0,0.0,0.0,0.0,0.0,0.0,0.0,0.0,0.0,0.0,0.0,0.0,0.0,0.0,0.0,0.0,0.0,0.0,0.0,0.0,0.0,0.0,0.0,0.0,0.0,0.0,0.0,0.0,0.0,0.0,0.0,0.0,0.0,0.0,0.0,0.0,0.0,0.0,0.0,0.0,0.0,0.0,0.0,0.0,0.0,0.0,0.0,0.0,0.0,0.0,0.0,0.0,3.6148,3.4352,0.0,0.0,0.0,0.0,0.0,0.0,0.0,0.0,0.0,0.0,0.0,0.0,0.0,0.0,0.0,0.0,0.0,0.0,0.0,0.0,0.0,0.0,0.0,0.0,0.0,0.0,0.0,0.0,0.0,0.0,0.0,0.0,0.0,0.0,0.0,0.0,0.0,0.0,0.0,0.0,4.1766,4.621,4.9289,5.0015,5.0777,5.0913,5.0119,4.907,4.6805,4.3017,3.9297,0.0,0.0,0.0,0.0,0.0,0.0,0.0,0.0,0.0,0.0,0.0,0.0,0.0,0.0,0.0,0.0,0.0,0.0,0.0,0.0,0.0,0.0,0.0,0.0,0.0,0.0,0.0,0.0,0.0,0.0,0.0,0.0,0.0,0.0,0.0,0.0,0.0,0.0,0.0,0.0,0.0,0.0,0.0,0.0,0.0,0.0,0.0,0.0,0.0,0.0,0.0,0.0,0.0,4.0947,4.2282,4.4427,4.3878,4.4187,4.4975,4.1145,4.0038,4.0636,3.7032,0.0,0.0,0.0,0.0,0.0,0.0,0.0,0.0,0.0,0.0,0.0,0.0,0.0,0.0,0.0,0.0,0.0,0.0,0.0,0.0,0.0,0.0,4.0923,4.252,4.4164,4.3584,3.7105,0.0,0.0,0.0,0.0,0.0,0.0,0.0,0.0,0.0,0.0,0.0,4.3152,4.6771,4.9221,4.983,5.0109,5.0443,5.0937,5.0076,4.8552,4.6337,4.2607,3.933,0.0,0.0,0.0,0.0,0.0,0.0,0.0,0.0,0.0,0.0,0.0,0.0,0.0,0.0,0.0,0.0,0.0,0.0,0.0,0.0,0.0,0.0,0.0,0.0,0.0,0.0,0.0,0.0,0.0,0.0,0.0,0.0,2.9086,3.0554,0.0,0.0,0.0,0.0,0.0,0.0,0.0,0.0,0.0,0.0,0.0,0.0,0.0,4.0146,4.1482,4.3838,4.5134,4.5403,4.7181,4.8169,4.8498,4.8431,4.8468,4.8618,4.7989,0.0,4.2741,4.0546,0.0,0.0,0.0,0.0,0.0,0.0,0.0,0.0,0.0,0.0,0.0,0.0,0.0,0.0,0.0,0.0,0.0,0.0,0.0,0.0,0.0,0.0,4.8499,4.8115,4.8228,4.8124,4.7113,4.2368,3.7819,3.6107,3.4336,3.2544,0.0,0.0,0.0,0.0,0.0,0.0,4.4025,4.709,4.9052,4.912,5.0188,5.0656,5.0135,5.0967,5.0556,4.8282,4.7041,4.4827,4.1391,3.8852,0.0,0.0,0.0,0.0,0.0,0.0,0.0,0.0,0.0,0.0,0.0,0.0,0.0,0.0,0.0,0.0,0.0,0.0,0.0,0.0,0.0,0.0,0.0,0.0,0.0,0.0,0.0,0.0,0.0,2.9009,3.2272,3.2093,3.3379,3.3349,0.0,0.0,0.0,0.0,0.0,0.0,0.0,0.0,0.0,4.316,4.3549,4.4685,4.677,4.7916,4.8873,4.9643,5.0511,5.1133,5.1492,5.1492,5.1383,5.1109,5.0771,4.9758,4.8101,4.4759,4.2264,4.0359,0.0,0.0,0.0,0.0,3.8415,3.8705,4.1346,4.1845,4.1298,4.099,0.0,0.0,0.0,0.0,0.0,0.0,0.0,4.2516,4.4264,4.738,5.0252,5.0744,5.1217,5.142,5.0947,4.824,4.479,4.1204,4.0379,3.8903,3.4427,3.4742,0.0,0.0,0.0,4.3518,4.5973,4.8591,5.0179,4.9994,5.0614,5.1081,5.1067,5.1314,5.1035,5.0024,4.8847,4.7266,4.5265,4.2806,4.0056,0.0,0.0,0.0,0.0,0.0,0.0,0.0,0.0,0.0,0.0,0.0,0.0,0.0,0.0,0.0,0.0,0.0,0.0,0.0,0.0,0.0,0.0,0.0,0.0,0.0,0.0,0.0,0.0,3.2003,3.4877,3.3858,3.6267,3.6686,0.0,0.0,0.0,0.0,0.0,0.0,4.1743,4.2222,4.4077,4.7706,4.7975,4.9172,5.1475,5.1475,5.1983,5.2965,5.2785,5.3054,5.3707,5.3427,5.3357,5.3452,5.2847,5.2911,5.312,4.8706,4.6325,4.5325,4.3858,4.2868,4.2457,4.3665,4.3913,4.4043,4.6858,4.7415,4.6865,4.661,4.566,4.427,4.2402,0.0,0.0,0.0,0.0,4.5742,4.7885,4.9678,5.1251,5.2334,5.3078,5.3348,5.2739,5.2198,5.0457,4.5959,4.5722,4.4539,3.9128,3.9729,0.0,4.0241,4.3489,4.6673,4.8589,5.0391,5.1396,5.1143,5.1241,5.1502,5.1975,5.1889,5.1756,5.1542,5.0613,4.9565,4.846,4.6421,4.4114,4.1573,0.0,0.0,0.0,0.0,0.0,0.0,0.0,0.0,0.0,0.0,0.0,0.0,0.0,0.0,0.0,0.0,0.0,0.0,0.0,0.0,0.0,0.0,0.0,0.0,0.0,0.0,0.0,0.0,0.0,3.7148,4.0086,0.0,0.0,0.0,0.0,4.0008,4.1283,4.3199,4.5852,4.7219,4.9134,5.1828,5.2516,5.3528,5.491,5.494,5.497,5.5029,5.4401,5.4461,5.5085,5.4018,5.4392,5.5821,5.5393,5.5749,5.6253,5.1863,5.0136,5.0191,4.9478,4.8808,4.8367,4.9286,4.9983,5.0661,5.1634,5.1542,5.1019,5.1601,4.957,4.6932,4.742,4.5814,0.0,0.0,4.8329,4.9392,5.1477,5.2689,5.3348,5.3416,5.3484,5.3484,5.345,5.3416,5.2672,5.0236,4.8698,4.7244,4.55,0.0,4.6238,4.6339,4.8297,5.0326,5.1953,5.2197,5.2241,5.2232,5.2044,5.1982,5.2005,5.3144,5.3518,5.2764,5.3372,5.279,5.0735,4.9554,4.7402,4.4099,3.9989,0.0,0.0,0.0,0.0,0.0,0.0,0.0,0.0,0.0,0.0,0.0,0.0,0.0,0.0,0.0,0.0,0.0,0.0,0.0,0.0,0.0,0.0,0.0,0.0,0.0,0.0,0.0,0.0,4.0565,4.315,0.0,4.1455,4.2023,4.319,4.4736,4.6073,4.7989,5.0601,5.1588,5.2798,5.4343,5.4614,5.526,5.634,5.6365,5.6476,5.6745,5.6657,5.6687,5.677,5.7205,5.7318,5.7183,5.768,5.8001,5.7986,5.6393,5.4834,5.3338,5.2366,5.186,5.1685,5.2002,5.228,5.252,5.2838,5.2792,5.259,5.2866,5.2473,5.1846,5.1611,5.0861,5.0325,5.1278,5.1765,5.2152,5.2892,5.3281,5.3518,5.3518,5.3518,5.3518,5.3518,5.3568,5.338,5.2565,5.1912,5.0725,4.8271,4.9205,5.0026,4.9129,5.0848,5.2594,5.3552,5.4166,5.4222,5.3472,5.3464,5.3296,5.2672,5.3175,5.3123,5.2338,5.2473,5.1999,5.0729,4.9737,4.8141,4.5936,4.293,3.9114,0.0,0.0,0.0,0.0,0.0,0.0,0.0,0.0,0.0,0.0,0.0,0.0,0.0,0.0,0.0,0.0,0.0,0.0,0.0,0.0,0.0,0.0,0.0,0.0,0.0,3.9757,4.2631,4.3289,4.5903,4.7018,4.5463,4.63,4.7728,4.9494,5.0451,5.1821,5.3767,5.4281,5.4975,5.5907,5.6149,5.6728,5.7618,5.8212,5.8527,5.8537,5.8843,5.8869,5.8664,5.9148,5.926,5.9097,5.9652,5.9933,5.9991,5.9757,5.8628,5.7026,5.6,5.5433,5.5216,5.5216,5.507,5.4839,5.4557,5.4491,5.4435,5.4253,5.4536,5.4837,5.4093,5.3856,5.3822,5.3585,5.3518,5.3518,5.3518,5.3518,5.3518,5.3518,5.3517,5.3568,5.3568,5.3866,5.4108,5.4108,5.4043,5.3256,5.1002,5.2398,5.3457,5.2285,5.3723,5.5112,5.5571,5.5874,5.5788,5.5023,5.4606,5.4147,5.3521,5.2805,5.227,5.2024,5.1134,5.0507,5.0261,4.9119,4.7999,4.69,4.4218,4.1054,3.7411,0.0,0.0,0.0,0.0,0.0,0.0,0.0,0.0,0.0,0.0,0.0,0.0,0.0,0.0,0.0,0.0,0.0,0.0,0.0,0.0,0.0,0.0,0.0,3.9571,4.2382,4.4736,4.5424,4.8394,5.0129,4.9569,5.1193,5.2869,5.4186,5.4306,5.4576,5.5234,5.5264,5.5716,5.6626,5.7286,5.8079,5.8919,6.0634,6.1133,6.0434,6.0773,6.0837,6.068,5.9765,6.0151,6.1597,6.1234,6.1588,6.2347,6.1637,6.1332,6.1264,6.0419,5.9674,5.9013,5.9013,5.8524,5.7798,5.707,5.6833,5.6697,5.5969,5.5733,5.5597,5.4871,5.4651,5.4482,5.3788,5.3551,5.3551,5.3551,5.3518,5.3518,5.3501,5.3635,5.3717,5.375,5.4346,5.4922,5.4953,5.4933,5.4719,5.3933,5.5431,5.6544,5.5941,5.6988,0.0,5.7985,5.7336,5.6811,5.6811,5.5427,5.4436,5.4399,5.2234,5.1169,5.1877,4.9627,4.8673,4.9527,4.8003,4.7112,4.7053,4.3861,4.1829,4.1058,0.0,0.0,0.0,0.0,0.0,0.0,0.0,0.0,0.0,0.0,0.0,0.0,0.0,0.0,0.0,0.0,0.0,0.0,0.0,0.0,0.0,4.1904,4.4616,4.316,4.6211,4.9022,5.0182,5.2396,5.3846,5.3856,5.4338,5.5099,5.6174,5.6234,5.6506,5.7172,5.7177,5.7395,5.7882,5.8733,5.9414,5.984,6.0987,6.1366,6.0978,6.1285,6.1303,6.1078,6.174,6.1981,6.1919,6.2539,6.2669,6.24,6.2178,6.211,6.1941,6.0622,5.9979,5.9742,5.9182,5.8524,5.7866,5.7663,5.7577,5.7476,5.6731,5.6494,5.6341,5.5631,5.5395,5.5378,5.5158,5.4702,5.433,5.4432,5.4041,5.3667,5.3816,5.3882,5.4062,5.4473,5.4811,5.5154,5.5623,5.6144,5.6398,5.609,5.6933,5.7594,5.7422,5.7722,5.7962,5.7997,5.7813,5.7446,5.6847,5.6407,5.5673,5.4509,5.3261,5.1867,5.0288,4.9003,4.8416,4.8636,4.8223,4.7957,4.7928,4.5911,4.416,0.0,0.0,0.0,0.0,0.0,0.0,0.0,0.0,0.0,0.0,0.0,0.0,0.0,0.0,0.0,0.0,0.0,0.0,0.0,0.0,0.0,0.0,4.6539,4.9048,4.8468,5.0409,5.2348,5.364,5.4709,5.5576,5.6093,5.6149,5.6471,5.7319,5.7648,5.7982,5.8347,5.8782,5.9131,5.9433,6.0379,6.1027,6.1287,6.2214,6.2468,6.2008,6.2246,6.2145,6.1741,6.2477,6.2569,6.2189,6.2784,6.2787,6.24,6.24,6.24,6.2333,0.0,0.0,0.0,0.0,5.8998,5.8355,5.8355,5.8152,5.7832,5.7408,5.7273,5.7137,5.6393,5.6139,5.6089,5.5889,5.5517,5.523,5.54,5.4872,5.4375,5.4732,5.4635,5.4629,5.5214,5.5666,5.6025,5.6367,5.7027,0.0,5.7376,5.7726,5.7997,5.7997,5.7997,5.7997,5.7997,5.7997,5.7813,5.7336,5.6994,5.6407,5.55,5.3739,0.0,0.0,0.0,4.8296,4.8296,4.8296,0.0,0.0,0.0,0.0,0.0,0.0,0.0,0.0,4.6076,4.6268,0.0,0.0,0.0,0.0,0.0,0.0,0.0,0.0,0.0,0.0,0.0,0.0,0.0,0.0,0.0,0.0,5.0581,5.2915,5.4236,5.4533,5.4975,5.5893,5.5901,5.6184,5.7006,5.7162,5.7542,5.8242,5.895,5.9394,5.9455,6.0359,0.0,0.0,0.0,6.2848,6.3098,6.4001,6.4132,6.3423,6.3618,6.3362,6.2651,6.255,6.2516,6.2516,6.2434,6.24,6.24,6.24,6.24,6.24,6.24,6.1941,6.1231,6.0486,5.9776,5.9115,5.9115,0.0,0.0,5.8017,5.7967,5.7816,5.7173,5.6988,5.6906,5.642,5.6234,5.6201,5.6389,5.5909,5.5506,5.6065,5.5763,5.5546,5.614,5.6678,5.7116,5.7191,5.7618,5.7997,5.7997,5.7997,5.7997,5.7997,5.7997,5.7997,5.7997,5.7997,5.7997,5.7997,5.7373,0.0,5.6811,5.4106,5.2637,5.3177,5.0462,4.8847,4.8847,4.904,4.9774,5.1169,5.1316,5.2344,5.4399,5.4473,5.4583,5.4546,4.937,4.9003,0.0,0.0,0.0,0.0,0.0,0.0,0.0,0.0,0.0,0.0,0.0,0.0,0.0,0.0,0.0,4.8575,5.2443,5.5663,5.6895,5.7126,5.689,5.607,5.6869,5.7618,5.8069,5.8789,5.9628,6.0561,6.1519,6.2316,6.2908,6.317,6.3335,6.3382,6.4319,6.4849,6.4894,6.584,6.5931,6.521,6.5241,0.0,6.414,6.3565,6.3294,6.326,6.2651,6.24,6.24,6.24,6.24,6.24,6.24,6.1941,6.1298,6.1129,6.0588,5.9877,5.9877,5.9404,5.8795,5.8795,5.8499,5.8135,5.7965,5.8038,0.0,5.8061,5.7601,5.7158,5.7295,5.7178,5.7102,5.7335,5.7185,5.7176,5.7759,5.7461,5.7241,5.7738,5.7927,5.7997,5.7997,5.7997,5.7997,5.7997,5.7997,5.7997,5.7997,5.7997,5.7997,5.7997,5.785,5.7519,5.6847,5.5611,5.441,5.3287,5.259,5.226,5.226,5.3482,5.4043,5.3702,5.4337,5.4583,5.4399,5.506,5.5684,5.6297,5.4546,5.4509,0.0,0.0,0.0,0.0,0.0,0.0,0.0,0.0,0.0,0.0,0.0,4.2863,4.5297,0.0,5.0603,5.3179,5.5191,5.6902,5.8303,5.8532,5.8306,5.7673,5.7998,5.8301,5.8283,5.946,6.0465,6.098,6.2118,6.2969,6.3348,6.4159,6.4652,6.4652,6.5592,6.6306,6.6641,6.6748,6.6812,6.6779,6.6034,6.5514,6.5121,6.4377,6.4072,6.4038,6.3666,6.3497,6.3463,6.3091,6.2956,6.2922,6.2516,6.2178,6.1839,6.1839,6.1443,6.0861,6.0861,6.0408,5.9821,5.9429,5.9128,5.8843,5.8468,5.8419,5.8596,5.8995,5.8838,5.866,5.9114,5.8963,5.8727,5.913,5.8884,5.8582,5.8711,5.8422,5.813,5.8024,5.7997,5.7997,5.7997,5.7997,5.7997,5.7997,5.7997,5.7997,5.7997,5.7997,5.7997,5.7997,5.7997,5.785,5.7446,5.6675,5.5684,5.4473,5.4399,5.4399,5.4399,5.5181,5.5611,5.5611,5.6014,5.6198,5.6198,5.6602,5.7226,5.7985,5.7581,5.7618,0.0,0.0,0.0,0.0,0.0,0.0,0.0,3.8758,4.0509,4.3472,4.5543,4.7711,5.075,5.2079,5.3875,5.741,5.7731,5.7926,5.911,5.9289,5.9359,5.9511,5.9133,5.8835,5.8709,6.0054,6.1086,6.1369,6.2742,6.3649,6.3802,6.5214,6.6046,6.6046,6.6834,6.7523,6.8132,6.7557,6.7489,6.7895,6.6677,6.6034,6.5865,6.5155,6.4816,6.4816,6.4647,6.4613,6.4546,6.3781,6.3517,6.3489,6.2744,6.2479,6.2498,6.2459,6.2184,6.1828,6.1866,6.1487,6.0918,6.0251,5.9967,5.9732,5.9148,5.8961,5.908,5.9757,5.995,6.0074,6.0715,6.0568,6.0317,6.0833,6.0468,5.9912,5.97,5.9526,5.9233,5.8584,5.8327,5.8217,5.8217,5.8107,5.7997,5.7997,5.7997,5.7997,5.7997,5.7997,5.7997,5.7997,5.7997,5.7997,5.7997,5.7409,5.6748,5.6099,5.6062,5.6062,5.6062,5.6062,5.6381,5.7042,5.7031,5.7336,5.7997,5.8143,5.8572,5.9196,5.938,5.9526,3.4622,3.5789,3.7267,3.8944,3.9286,4.0855,0.0,4.7415,4.7252,5.0555,5.2035,5.3116,5.4357,5.6127,5.741,5.724,5.8892,6.0019,5.9605,5.9562,5.987,6.0687,6.0044,5.9734,6.035,6.1338,6.2491,6.3803,6.5416,6.6651,6.729,6.8186,6.8656,6.8656,6.8777,6.8876,6.8977,6.8876,6.8538,6.7895,6.7726,6.732,6.6656,6.5899,6.5581,6.5547,6.4884,6.4613,6.4546,6.3781,6.3597,6.3707,6.296,6.277,6.2923,6.2731,6.2639,6.261,6.2768,6.2385,6.1754,6.1667,6.1254,6.0731,6.0661,6.0621,6.064,6.073,6.0781,6.0811,6.0864,6.13,6.1683,6.1738,6.1556,6.1386,6.1325,6.0786,6.0236,6.0162,5.9563,5.9086,5.9086,5.8462,5.7997,5.7997,5.7997,5.7997,5.7997,5.7997,5.7997,5.7997,5.7997,5.7997,5.7997,5.7923,5.7813,5.774,5.774,5.774,5.774,5.774,5.7776,5.785,5.7886,5.7923,5.7997,5.8719,5.9123,5.9221,5.993,6.0639,3.9992,4.096,4.1618,4.3883,4.5405,4.6993,4.9522,5.0947,5.2079,5.3453,5.5229,5.6601,5.6834,5.8054,5.9071,5.9318,5.9739,6.0119,6.0388,6.0058,5.9757,5.9646,5.9796,6.0158,6.0799,6.2507,6.381,6.4434,6.5927,6.6927,6.7252,6.759,6.776,6.776,6.776,6.7963,6.8402,6.8402,6.847,6.8605,6.8132,6.7726,6.7421,6.6677,6.6339,6.6339,6.6034,6.5982,6.6051,6.5271,6.5086,6.5238,6.4488,6.3967,6.3581,6.3075,6.2943,6.3057,6.3133,6.3321,6.3395,6.2978,6.2606,6.2206,6.1797,6.13,6.1003,6.135,6.1486,6.157,6.1915,6.2205,6.2425,6.2425,6.2336,6.2181,6.1704,6.1337,6.097,6.0493,6.0114,5.9747,5.9269,5.8902,5.8547,5.807,5.7997,5.7997,5.7997,5.7997,5.7997,5.7997,5.7997,5.7997,5.7997,5.7997,5.7997,5.7997,5.7997,5.7997,5.7997,5.7997,5.7997,5.7997,5.8474,5.8682,5.8682,5.949,6.0279,6.101,6.1343,6.2045,4.2859,4.4266,4.5405,4.7574,5.0096,5.1974,5.1627,5.3801,5.5809,5.5681,5.7175,5.8518,5.8626,5.9208,5.9911,6.0585,6.052,6.0525,6.0945,6.0375,5.9818,5.9452,5.9631,6.0136,6.1019,6.2831,6.4241,6.485,6.5899,6.6609,6.6791,6.6791,6.6791,6.6791,6.6791,6.7083,6.759,6.759,6.7895,6.847,6.7895,6.759,6.759,6.7028,6.6833,6.6896,6.6896,6.7056,6.7216,6.6446,6.6261,6.6414,6.5681,6.5049,6.4472,6.3955,6.3648,6.3584,6.3639,6.42,6.4801,6.4253,6.4001,6.3779,6.3236,6.2457,6.1895,6.2359,6.2321,6.2255,6.2692,6.2793,6.2793,6.2793,6.2793,6.2646,6.2071,6.1924,6.1777,6.1178,6.0896,6.0566,5.9967,5.9673,5.9269,5.8437,5.8327,5.8253,5.8033,5.7997,5.7997,5.7997,5.7997,5.7997,5.7997,5.7997,5.7997,5.7997,5.7997,5.7997,5.7997,5.7997,5.8107,5.8327,5.8902,5.9377,5.9737,6.0522,6.1451,6.2471,6.2694,6.3275,4.1522,4.4421,4.811,4.9096,5.2048,5.4849,5.5387,5.7024,5.8312,5.8128,5.83,5.8775,5.9668,5.9865,5.9898,5.9919,6.1281,6.201,6.1111,6.0463,6.0381,6.1124,5.9926,5.9622,6.1124,6.1989,6.3382,6.5514,6.5717,6.6034,6.6757,6.6791,6.6791,6.6791,6.6791,6.6791,6.6825,6.6825,6.6859,6.6859,6.6859,6.6825,6.6825,6.6791,6.6917,6.718,6.718,6.7304,6.7441,6.669,6.6502,6.6632,6.5877,6.5641,6.5654,6.5619,6.5058,6.4306,6.4497,6.5006,6.5558,6.5522,6.5458,6.5316,6.5316,6.4685,6.4015,6.404,6.3404,6.2768,6.2793,6.2793,6.2793,6.2793,6.2793,6.2793,6.2756,6.2756,6.2756,6.2719,6.2108,6.1557,6.152,6.0896,6.0077,5.9269,5.9159,5.8866,5.8107,5.7997,5.7997,5.7997,5.7997,5.7997,5.7997,5.7997,5.7997,5.7997,5.7997,5.7997,5.7997,5.7997,5.8364,5.9159,5.9196,5.9808,6.1028,6.1845,6.2465,6.2915,6.3673,6.4076,4.702,4.9239,5.1174,5.384,5.6251,5.7983,5.8015,5.9467,6.0346,5.8698,5.899,5.9318,5.8535,5.8883,5.9473,5.9962,6.0936,6.1742,6.1903,6.1731,6.1163,5.9926,6.0197,6.0351,5.9825,6.0926,6.2584,6.4783,6.4952,6.5493,6.6724,6.6791,6.6791,6.6791,6.6791,6.6791,6.6791,6.6791,6.6791,6.6791,6.6993,6.7077,6.7077,6.7188,6.7291,6.7407,6.7407,6.7496,6.7664,6.7424,6.7743,6.8347,6.8103,6.8007,6.7966,6.7399,6.699,6.6547,6.5611,6.5736,6.6328,6.6328,6.6236,6.6144,6.6144,6.5547,6.4787,6.4249,6.387,6.3539,6.2939,6.2793,6.2793,6.2793,6.2793,6.2793,6.2793,6.2793,6.2793,6.2793,6.2572,6.2218,6.1704,6.1374,6.0933,6.0114,5.9098,5.8327,5.8033,5.7997,5.7997,5.7997,5.7997,5.7997,5.7997,5.7997,5.7997,5.7997,5.7997,5.8253,5.8756,5.8792,5.9159,5.9967,6.0822,6.1489,6.1904,6.295,6.3741,6.4188,6.4443,6.4721,5.0878,5.2673,5.3919,5.7173,5.9047,6.0022,5.9778,6.0538,6.072,5.8558,5.8108,5.7818,5.6723,5.6789,5.7525,5.9066,6.0182,6.1332,6.2618,6.2347,6.167,6.0704,6.0757,6.0791,6.0636,6.1264,6.2381,6.4072,6.4681,6.5392,6.6373,6.6677,6.6791,6.6791,6.6791,6.6791,6.6791,6.6791,6.6833,6.6972,6.7201,6.7304,6.7304,6.7448,6.7699,6.8004,6.8004,6.8265,6.8711,6.8711,6.9052,6.96,6.96,6.9579,6.9448,6.8662,6.8296,6.8051,6.6505,6.6464,6.7061,6.7061,6.6985,6.6916,6.6916,6.6366,6.5632,6.5081,6.4543,6.3992,6.3429,6.3013,6.2793,6.2793,6.2793,6.2793,6.2793,6.2793,6.2793,6.2793,6.2793,6.2646,6.2108,6.1777,6.141,6.0896,5.9685,5.8841,5.8841,5.8621,5.8437,5.8437,5.818,5.8187,5.8637,5.8258,5.8334,5.9068,5.8832,5.9042,5.9842,6.0011,6.0481,6.1259,6.2087,6.272,6.3185,6.397,6.4566,6.5019,6.5019,6.5134,5.3051,5.4717,5.6401,5.9112,6.0386,6.0952,6.0619,6.0286,5.9481,5.7764,5.5801,5.4414,5.4262,5.3788,5.4329,5.7257,5.9032,6.0858,6.3173,6.2327,6.1975,6.3342,6.167,6.1231,6.3308,6.2922,6.2821,6.3511,6.485,6.5683,6.5751,6.644,6.6791,6.6791,6.6791,6.6791,6.6791,6.6812,6.6938,6.7201,6.7428,6.753,6.753,6.7557,6.8049,6.8903,6.894,6.9457,7.03,7.03,7.0317,7.0351,7.0351,7.0355,7.0221,6.9373,6.9034,6.8743,6.7266,6.716,6.77,6.77,6.77,6.77,6.77,6.7187,6.6549,6.6512,6.5411,6.4213,6.4176,6.3503,6.2866,6.2866,6.2829,6.2793,6.2793,6.2793,6.2793,6.2793,6.2793,6.2793,6.2793,6.2206,6.1716,6.1716,6.1067,6.0564,6.0455,5.9745,5.928,5.9303,5.8617,5.8648,5.9892,5.8873,5.9028,6.0996,6.0407,6.037,6.1167,6.1554,6.2155,6.2972,6.2991,6.3606,6.4792,6.481,6.5027,6.5413,6.5413,6.5413,5.7005,5.8548,5.9435,6.1901,6.185,6.1043,6.037,5.9319,5.7725,5.5097,5.3213,5.1539,4.9916,5.0795,5.2604,5.504,5.7611,6.0264,6.3105,6.3666,6.37,6.3511,6.3971,6.4072,6.3545,6.4309,6.4715,6.4343,6.4681,6.5358,6.6474,6.6711,6.6791,6.6791,6.6791,6.6791,6.6791,6.7014,6.7222,6.7428,6.7618,6.7719,6.7759,6.8459,6.89,6.9145,6.969,7.0076,7.03,7.03,7.0621,7.1115,7.1115,7.1454,7.1736,7.0346,6.9786,6.9582,6.8,6.7579,6.77,6.77,6.77,6.77,6.77,6.7554,6.726,6.6659,6.6182,6.5742,6.5154,6.4383,6.3759,6.3759,6.327,6.2793,6.2793,6.2793,6.2793,6.2793,6.2793,6.2793,6.2793,6.2902,6.3023,6.3023,6.3092,6.2641,6.1104,6.0185,6.003,6.0964,6.0322,6.0222,6.1164,6.0925,6.098,6.1491,6.1351,6.1614,6.2391,6.2537,6.2962,6.3759,6.4153,6.4467,6.4792,6.5093,6.5298,6.5413,6.5413,6.5757,5.9535,6.0774,6.1354,6.2668,6.1907,6.0419,5.8964,5.7002,5.4499,5.1217,4.9357,4.7733,4.5805,4.753,5.0101,5.2706,5.6156,5.9674,6.3037,6.412,6.4681,6.4931,6.5392,6.5493,6.4999,6.5696,6.6136,6.6068,6.5764,6.5797,6.6305,6.6622,6.6791,6.6791,6.6791,6.6854,6.6993,6.7325,6.7496,6.7618,6.7839,6.7939,6.7945,6.8806,6.9365,6.9708,7.0453,7.097,7.1259,7.1259,7.1516,7.1876,7.1876,7.2137,7.2349,7.1101,7.0403,6.9926,6.8641,6.7994,6.77,6.77,6.77,6.77,6.77,6.77,6.7627,6.7136,6.6769,6.6402,6.5925,6.5228,6.464,6.464,6.398,6.3392,6.3392,6.305,6.2867,6.3062,6.325,6.3351,6.3351,6.3587,6.3761,6.3761,6.3971,6.3776,6.2845,6.1813,6.1409,6.2163,6.1516,6.1441,6.2445,6.2034,6.2081,6.3002,6.2719,6.2907,6.3681,6.3884,6.4191,6.4666,6.4913,6.506,6.506,6.5291,6.5605,6.5987,6.5987,6.6407,6.1124,6.1975,6.24,6.24,6.1095,5.9201,5.69,5.3957,5.0676,4.6955,4.5041,4.3552,4.213,4.433,4.7394,5.0525,5.4668,5.8863,6.2936,6.4072,6.5053,6.6588,6.6237,6.6136,6.688,6.6927,6.7252,6.7996,6.7489,6.6779,6.6034,6.6609,6.6914,6.6854,6.6875,6.7001,6.7284,6.7618,6.7879,6.7984,6.8162,6.8319,6.8401,6.918,6.9849,7.0487,7.1211,7.1906,7.2496,7.2496,7.2496,7.2496,7.2496,7.2496,7.2422,7.16,7.0866,7.0146,6.9229,6.8458,6.7847,6.7737,6.77,6.77,6.77,6.77,6.77,6.77,6.7187,6.6659,6.6659,6.6072,6.5472,6.5472,6.4751,6.4115,6.4191,6.3542,6.3098,6.3513,6.3867,6.4086,6.4086,6.4136,6.4176,6.4176,6.4225,6.4426,6.4818,6.3784,6.3031,6.3201,6.2495,6.2529,6.3753,6.2809,6.2944,6.4769,6.4225,6.4149,6.4862,6.5228,6.5413,6.5413,6.5413,6.5413,6.5413,6.5413,6.5834,6.6705,6.6705,6.7217,6.2541,6.2753,6.24,6.24,6.0336,5.7543,5.4735,5.1269,4.7582,4.3856,4.1914,4.0616,3.9715,4.1982,4.535,4.9593,5.3061,5.7103,6.2699,6.3612,6.4458,6.6555,6.669,6.6914,6.7658,6.7726,6.803,6.8842,6.8774,6.8368,6.7557,6.7624,6.754,6.7152,6.7304,6.7475,6.7699,6.7759,6.8201,6.8956,6.8994,6.9328,6.9937,7.0671,7.1083,7.1227,7.1981,7.2394,7.2496,7.2496,7.2496,7.2496,7.2496,7.2496,7.2422,7.16,7.1197,7.0866,6.9398,6.8825,6.8568,6.7921,6.77,6.77,6.77,6.77,6.77,6.77,6.759,6.748,6.748,6.688,6.6292,6.6292,6.5154,6.4179,6.452,6.4216,6.3882,6.3965,6.4036,6.4086,6.4086,6.4426,6.4686,6.4686,6.4947,6.519,6.5283,6.4183,6.3807,6.4837,6.4267,6.4138,6.5024,6.4908,6.4893,6.5253,6.5146,6.5146,6.5291,6.5345,6.5413,6.5413,6.5413,6.5413,6.5413,6.5413,6.5834,6.6705,6.6705,6.7554,6.2519,6.2651,6.2333,6.1907,5.9573,5.6325,5.257,4.8849,4.4993,4.0865,3.9445,3.8587,3.7437,4.029,4.3673,4.621,4.9796,5.4194,5.981,6.1264,6.2854,6.5865,6.6914,6.7523,6.7861,6.8267,6.8842,6.962,6.9763,6.9446,6.8571,6.826,6.8056,6.7925,6.7742,6.7699,6.7799,6.8265,6.8749,6.9182,6.96,6.9954,7.0317,7.1067,7.1406,7.1438,7.2182,7.2496,7.2496,7.2496,7.2496,7.2496,7.2496,7.2496,7.2459,7.2078,7.1674,7.1123,6.9926,6.9265,6.8788,6.7958,6.77,6.77,6.77,6.77,6.77,6.77,6.77,6.77,6.77,6.7407,6.7179,6.7441,6.6764,6.5872,6.5227,6.5066,6.4955,6.4539,6.463,6.4792,6.4792,6.4947,6.5101,6.5101,6.5275,6.5413,6.5413,6.4854,6.4739,6.5322,6.5031,6.4993,6.5375,6.5413,6.5413,6.5413,6.5413,6.5413,6.5413,6.5834,6.6101,6.6101,6.6483,6.6483,6.6101,6.6567,6.7011,6.7432,6.789,6.8816,6.1941,6.2299,6.2178,6.1264,5.8795,5.5378,5.0879,4.6868,4.2943,3.8768,3.764,3.7099,3.605,3.887,4.1847,4.3389,4.7022,5.1555,5.7121,5.9302,6.167,6.5256,6.6981,6.7963,6.8132,6.8876,6.9642,7.0453,7.0685,7.0444,6.9536,6.8991,6.869,6.8651,6.8308,6.8097,6.8103,6.8825,6.9347,6.9689,7.0249,7.0604,7.077,7.139,7.1625,7.1692,7.2241,7.2496,7.2496,7.2496,7.2496,7.2496,7.2496,7.2496,7.2496,7.2496,7.2078,7.1454,7.066,6.9816,6.9009,6.8201,6.7847,6.77,6.77,6.77,6.77,6.77,6.77,6.7727,6.781,6.7836,6.7906,6.8219,6.8155,6.7632,6.6126,6.6115,6.6158,6.536,6.5463,6.5605,6.5413,6.5413,6.5413,6.5413,6.5413,6.5413,6.5413,6.5413,6.5413,6.5413,6.5413,6.5413,6.5413,6.5413,6.5413,6.5413,6.5566,6.5605,6.5413,6.6422,6.6927,6.6736,6.7523,6.7653,6.7034,6.7752,6.8211,6.8403,6.9068,6.9871,6.1197,6.1873,6.2062,6.0588,5.7983,5.4617,5.0135,4.5669,4.161,3.8531,3.6794,3.5983,3.6581,3.755,3.9648,4.3822,4.6515,5.0389,5.6986,5.981,6.2313,6.5344,6.6981,6.8199,6.891,6.9654,7.0475,7.1386,7.173,7.1532,7.0759,7.0241,6.9612,6.8912,6.9066,6.9109,6.9068,6.918,6.9885,7.1216,7.1279,7.164,7.2285,7.238,7.2409,7.2409,7.2467,7.2496,7.2496,7.2496,7.2496,7.2496,7.2496,7.2496,7.2496,7.2496,7.2459,7.2275,7.1454,7.0646,6.9853,6.9045,6.8311,6.77,6.77,6.77,6.77,6.77,6.77,6.7784,6.8247,6.8333,6.8281,6.8027,6.8206,6.8206,6.7315,6.7419,6.7476,6.6666,6.6575,6.633,6.5528,6.5413,6.5413,6.5413,6.5413,6.5413,6.5413,6.5413,6.5413,6.5413,6.5413,6.5413,6.5413,6.5413,6.5413,6.5413,6.6139,6.6216,6.5413,6.7057,6.7592,6.6819,6.7704,6.8131,6.8047,6.8131,6.8553,6.9274,6.9358,6.9901,5.9453,6.0452,6.0655,5.9133,5.6562,5.3298,4.9273,4.4843,4.0933,3.8418,3.6659,3.5847,3.6648,3.7021,3.8408,4.1982,4.3301,4.5892,5.1725,5.4465,5.7476,6.1806,6.4816,6.7282,6.9092,7.0347,7.1316,7.1994,7.2137,7.2108,7.2004,7.1655,7.1161,7.0495,7.0548,7.0377,6.9885,7.0283,7.0822,7.1406,7.1845,7.2211,7.2496,7.2496,7.2496,7.2496,7.2496,7.2496,7.2496,7.2496,7.2496,7.2496,7.2496,7.2496,7.2496,7.2496,7.2496,7.2386,7.1564,7.077,6.9963,6.9155,6.8539,6.8058,6.7807,6.77,6.7767,6.8033,6.8122,6.821,6.8688,6.9025,6.9206,6.9079,6.935,6.94,6.8608,6.8572,6.8432,6.7591,6.7018,6.6598,6.6254,6.5757,6.5413,6.5413,6.5413,6.5413,6.5413,6.5413,6.5413,6.5413,6.5413,6.5413,6.5413,6.5413,6.5413,6.5413,6.5765,6.6062,6.6253,6.7483,6.8217,6.8356,6.9243,6.945,6.8905,6.9493,6.9668,6.9515,7.0057,7.0483,5.7153,5.8558,5.9133,5.7881,5.5344,5.2216,4.8698,4.4437,4.0548,3.8362,3.6659,3.578,3.6332,3.6648,3.763,4.0121,4.1258,4.3592,4.8612,5.142,5.4668,5.9235,6.2685,6.5698,6.8166,7.0472,7.1929,7.2288,7.2373,7.2501,7.2692,7.2778,7.2421,7.1549,7.1481,7.1224,7.064,7.1131,7.15,7.1738,7.2241,7.2496,7.2496,7.2496,7.2496,7.2496,7.2496,7.2496,7.2496,7.2496,7.2496,7.2496,7.2496,7.2496,7.251,7.2695,7.2728,7.2683,7.2257,7.14,7.0402,6.9847,6.9175,6.8562,6.8198,6.8122,6.8197,6.8526,6.87,6.8893,6.925,6.9692,7.0038,7.0038,7.023,7.0298,6.9733,6.9618,6.9351,6.8471,6.7669,6.7049,6.6751,6.5987,6.5413,6.5413,6.5413,6.5413,6.5413,6.5413,6.5413,6.5413,6.5436,6.5405,6.5413,6.5436,6.5413,6.5413,6.5716,6.6181,6.6787,6.7947,6.8865,6.944,7.0306,7.0474,6.986,7.0525,7.0553,7.0015,7.0602,7.0898,5.4228,5.6242,5.7746,5.7002,5.4532,5.1555,4.8563,4.4437,4.0548,3.8362,3.6659,3.56,3.56,3.6265,3.7291,3.878,4.1461,4.4945,4.9474,5.2688,5.5683,5.8641,6.1028,6.3394,6.5909,6.9883,7.2309,7.2309,7.2544,7.2692,7.2692,7.3386,7.3095,7.1568,7.1516,7.1445,7.139,7.1406,7.1769,7.2481,7.2496,7.2496,7.2496,7.2496,7.2496,7.2496,7.2496,7.2496,7.2496,7.2496,7.2496,7.2496,7.2496,7.2496,7.2567,7.3087,7.3298,7.3376,7.3821,7.2872,7.1482,7.1482,7.0394,6.9091,6.908,6.908,6.908,6.9091,6.9443,6.9787,6.9852,7.023,7.0569,7.0569,7.0577,7.0615,7.0577,7.0577,7.0309,6.9437,6.864,6.7768,6.6881,6.5987,6.5413,6.5413,6.5413,6.5413,6.5413,6.5413,6.5413,6.5413,6.545,6.5465,6.5421,6.545,6.5494,6.5494,6.637,6.6873,6.6912,6.8555,6.9519,6.9596,7.0434,7.0898,7.0898,7.0898,7.0898,7.0898,7.0898,7.0898,4.9,5.0507,5.1386,4.9661,4.8105,4.6394,4.391,4.1441,3.9208,3.7494,3.6332,3.578,3.6332,3.6197,3.7483,4.2063,4.3166,4.4978,4.9474,5.3245,5.6469,5.8982,6.4659,6.8925,7.0199,7.1673,7.2565,7.2565,7.2649,7.2692,7.2692,7.2893,7.2763,7.2279,7.2719,7.2723,7.2152,7.2152,7.2255,7.2496,7.2496,7.2496,7.2496,7.2496,7.2496,7.2496,7.2496,7.2496,7.2496,7.2496,7.2496,7.2496,7.2496,7.2714,7.3047,7.3233,7.3504,7.3798,7.3963,7.2883,7.1494,7.1494,7.0621,6.9584,6.9584,6.9334,6.9155,6.9504,6.9965,7.0344,7.0369,7.0507,7.067,7.067,7.067,7.067,7.067,7.067,7.0601,7.0294,6.9144,6.8064,6.7774,6.6495,6.5516,6.5465,6.5501,6.5516,6.5465,6.5501,6.553,6.553,6.5552,6.5537,6.5465,6.553,6.5566,6.5566,6.6448,6.7226,6.784,6.8984,6.9903,7.0479,7.0769,7.0898,7.0898,7.0898,7.0898,7.0898,7.0898,7.0898,4.4601,4.621,4.6989,4.5635,4.4499,4.3281,4.161,3.9851,3.8261,3.7066,3.6163,3.5735,3.6265,3.6422,3.7707,4.1454,4.2814,4.4804,4.8821,5.2699,5.6541,6.0291,6.6219,7.0244,7.0978,7.2048,7.2692,7.2692,7.297,7.2962,7.2664,7.2898,7.2913,7.2609,7.3026,7.301,7.2496,7.2496,7.2496,7.2496,7.2496,7.2496,7.2496,7.2496,7.2496,7.2496,7.2496,7.2496,0.0,7.2496,7.2624,7.2798,7.2798,7.3127,7.3603,7.3762,7.4033,7.4276,7.4487,7.368,7.247,7.2167,7.1124,7.0038,7.0038,6.9825,6.9644,6.9927,7.0286,7.0546,7.0616,7.067,7.0723,7.0714,7.0721,7.0721,7.0721,7.0721,7.0721,7.0721,6.9647,6.8719,6.8644,6.7487,6.6476,6.6088,6.6071,6.597,6.5583,6.5573,6.5601,6.5601,6.5667,6.5782,6.6047,6.5813,6.5796,6.6103,6.6715,6.7569,6.8799,6.9378,7.009,7.0898,7.0898,7.0898,7.0898,7.0898,7.0898,7.0898,7.0898,7.0898,0.0,4.2909,4.4107,4.3992,4.2943,4.1711,4.0967,3.9276,0.0,3.6851,3.6129,3.5667,3.587,3.6963,3.799,3.8519,4.1441,4.4792,4.8118,5.2029,5.6781,6.2802,6.6318,6.8538,6.9287,7.145,7.2818,7.288,7.3477,7.3542,7.273,7.34,7.3454,7.2625,7.2546,7.2496,7.2496,7.2496,7.2496,7.2496,7.2496,7.2496,7.2496,7.2496,7.2496,7.2496,7.2496,7.2496,7.2496,7.2539,7.2853,7.3311,7.335,7.3653,7.4087,7.4561,7.4735,7.4815,7.527,7.4851,7.3972,7.3102,7.1726,7.0427,7.0427,7.0427,7.0419,7.0419,7.0427,7.0467,7.0639,7.0684,7.0707,7.0772,7.0794,7.0801,7.0801,7.0801,7.0801,7.0801,7.0141,6.9582,6.9433,6.8736,6.793,6.7041,6.6926,6.6619,6.5723,6.5615,6.5615,6.5615,6.5722,6.6107,6.6844,6.6299,6.6223,6.7036,6.7211,6.8013,6.9629,6.9744,7.0129,7.0898,7.0898,7.0898,7.0898,7.0898,7.0898,7.0898,7.0898,7.0898,3.5926,0.0,3.9208,3.8012,3.7922,3.79,0.0,3.6975,3.6851,3.605,3.5735,3.6321,3.8611,3.7968,3.8903,4.4606,4.5886,4.7617,5.1813,5.7944,6.3645,6.8117,7.0381,7.1863,7.2579,7.3203,7.3815,7.4416,7.4623,7.4361,7.3578,7.3693,7.3454,7.2625,7.2546,7.2496,7.2496,7.2496,7.2496,7.2496,7.2496,7.2496,7.2496,7.2496,7.2496,7.2496,7.2496,7.2496,7.2524,7.2949,7.318,7.335,7.3689,7.4109,7.4571,7.4674,7.4951,7.5232,7.471,7.3972,7.3064,7.1639,7.0907,7.0616,7.0616,7.0608,7.0546,7.0546,7.0601,7.0624,7.0708,7.0721,7.0765,7.0787,7.0836,7.0871,7.0871,7.0871,7.0871,7.0871,7.0217,6.9672,6.962,6.8921,6.8055,6.7124,6.7011,6.6755,6.5889,6.5813,6.5814,6.5814,6.5865,6.5955,6.6147,6.6532,6.7147,6.8025,6.8692,6.9283,6.9667,7.0283,7.0706,7.0898,7.0898,7.0898,7.0898,7.0898,7.0898,7.0898,7.0898,7.0898,3.3795,3.5926,3.7775,3.7268,3.7483,3.7697,3.728,3.6705,3.6129,3.5678,3.5881,3.6738,3.8746,3.9282,4.0892,4.5241,4.7505,5.0673,5.6321,6.1757,6.6435,6.998,7.145,7.2465,7.3215,7.3617,7.3834,7.3902,7.4583,7.4506,7.3322,7.3587,7.3385,7.2568,7.2526,7.2496,7.2496,7.2496,7.2496,7.2496,7.2496,7.2496,7.2496,7.2496,7.2496,7.2496,7.2496,7.2496,7.2539,7.3061,7.3415,7.3652,7.4158,7.4623,7.5076,7.5076,7.5014,7.4873,7.4406,7.3483,7.2338,7.1467,7.0977,7.0715,7.0715,7.0708,7.0693,7.0655,7.0678,7.0723,7.0721,7.0758,7.0801,7.0829,7.0871,7.0898,7.0898,7.0898,7.0898,7.0898,7.0552,7.0244,7.0244,6.9552,6.8686,6.7768,6.734,6.6814,6.5961,6.5878,6.5904,6.5904,6.5904,6.6058,6.6404,6.6865,6.7475,6.8353,6.8853,6.9276,6.9667,7.0475,7.0898,7.0898,7.0898,7.0898,7.0898,7.0898,7.0898,7.0898,7.0898,7.0898,3.3592,3.6129,3.8464,3.8611,3.8916,3.9119,3.887,3.7347,3.5938,3.5938,3.6569,3.7506,3.8737,4.1155,4.3401,4.4858,4.8958,5.4177,6.0577,6.4111,6.7103,6.9897,7.0898,7.176,7.279,7.3337,7.3508,7.3152,7.427,7.4357,7.2837,7.3373,7.334,7.2532,7.2496,7.2496,7.2496,7.2496,7.2496,7.2496,7.2496,7.2496,7.2496,7.2496,7.2496,7.2496,7.251,7.2524,7.2582,7.322,7.3689,7.4087,7.4626,7.5075,7.5362,7.5362,7.4822,7.4107,7.4,7.2984,7.172,7.172,7.1275,7.0714,7.0714,7.0758,7.0794,7.0729,7.0707,7.0745,7.0772,7.0794,7.0808,7.0871,7.0891,7.0898,7.0898,7.0898,7.0898,7.0898,7.0898,7.086,7.0744,7.0167,6.936,6.8353,6.7552,6.6827,6.6013,6.5904,6.5904,6.5904,6.5904,6.6173,6.6865,6.6904,6.7282,6.816,6.8314,6.8776,6.9667,7.036,7.0783,7.0898,7.0898,7.0898,7.0898,7.0898,7.0898,7.0898,7.0898,7.0898,3.5396,3.843,4.0121,3.7731,3.8556,3.9592,3.8362,3.7809,3.7538,3.7538,3.8125,3.9697,4.3104,4.4157,4.5996,5.0735,5.4897,5.8875,6.2683,6.529,6.7482,6.9276,7.0139,7.1415,7.352,7.3189,7.3613,7.5441,7.5159,7.4512,7.356,7.3626,7.334,7.2532,7.2496,7.2496,7.2496,7.2496,7.2496,7.2496,7.2496,7.2496,7.2496,7.2496,7.2496,7.2496,7.2624,7.2681,7.2728,7.3748,7.4172,7.4326,7.5194,7.5182,7.4656,7.4656,7.4119,7.3246,7.2525,7.1697,7.0964,7.0964,7.093,7.0864,7.0864,7.0871,7.0878,7.0871,7.0822,7.0779,7.0787,7.0794,7.0794,7.0808,7.0857,7.0898,7.0898,7.0898,7.0898,7.0898,7.0898,7.0667,7.0014,6.9783,6.9167,6.7558,6.7173,6.6827,6.6013,6.5904,6.5904,6.5904,6.5904,6.5942,6.6058,6.6096,6.6442,6.7244,6.7968,6.8776,6.9667,6.9821,7.0206,7.0898,7.0898,7.0898,7.0898,7.0898,7.0898,7.0898,7.0898,7.0898,3.4269,3.7144,3.9377,3.9208,4.1779,4.4045,4.2963,4.2083,4.1521,4.1521,4.2117,4.3322,4.5558,4.7408,5.0404,5.5955,5.9081,6.1734,6.4462,6.6102,6.7586,6.9104,6.9931,7.1004,7.2446,7.3011,7.3546,7.4176,7.4232,7.3891,7.3083,7.3046,7.2899,7.2496,7.2496,7.2496,7.2496,7.2496,7.2496,7.2496,7.2496,7.2496,7.2496,7.2496,7.2539,7.261,7.2681,7.2908,7.3224,7.398,7.4168,7.4065,7.4758,7.4542,7.3737,7.3354,7.2954,7.2494,7.1663,7.1122,7.085,7.085,7.0871,7.0898,7.0898,7.0898,7.0898,7.0898,7.0878,7.085,7.085,7.085,7.085,7.085,7.0878,7.0898,7.0898,7.0898,7.0898,7.0898,7.0552,7.0129,6.9744,6.8936,6.8013,6.7212,6.675,6.6327,6.5942,6.5904,6.5904,6.5904,6.5904,6.5904,6.5904,6.5904,6.625,6.7058,6.7475,6.8282,6.9629,6.9244,6.959,7.0898,7.0898,7.0898,7.0898,7.0898,7.0898,7.0898,7.0898,7.1168,3.366,3.6129,3.8734,4.1123,4.4167,4.6669,4.6989,4.592,4.5021,4.5572,4.6419,4.7223,4.7817,5.083,5.4823,5.9668,6.2066,6.4019,6.6107,6.6908,6.7826,6.9358,6.9866,7.0559,7.1651,7.2678,7.312,7.288,7.3206,7.3156,7.2532,7.2496,7.2496,7.2496,7.2496,7.2496,7.2496,7.2496,7.2496,7.2496,7.2496,7.251,7.2539,7.2539,7.2624,7.2765,7.2793,7.3029,7.3414,7.3898,7.3861,7.3541,7.4079,7.3753,7.287,7.2092,7.1807,7.1737,7.1108,7.0898,7.0898,7.0898,7.0898,7.0898,7.0898,7.0898,7.0898,7.0898,7.0898,7.0898,7.0898,7.0898,7.0898,7.0898,7.0898,7.0898,7.0898,7.0898,7.0898,7.0898,7.0244,6.9629,6.9436,6.8129,6.7058,6.6865,6.6288,6.5904,6.5904,6.5904,6.5904,6.5904,6.5904,6.5904,6.5904,6.5904,6.6173,6.6789,6.6827,6.752,6.9013,6.866,6.9084,7.0591,7.0783,7.0898,7.0898,7.0898,7.0898,7.0898,7.0898,7.1245,3.5566,3.7697,3.9614,4.251,4.2963,4.3606,4.7041,4.6669,4.6254,4.85,5.0095,5.1005,5.0658,5.4383,5.8289,6.0806,6.3703,6.6195,6.7719,6.798,6.8562,7.0043,6.9671,7.015,7.2306,7.1938,7.2144,7.3531,7.2981,7.2569,7.2496,7.2496,7.2496,7.2496,7.2496,7.2496,7.2496,7.2496,7.2496,7.2496,7.2496,7.2567,7.2695,7.2695,7.2779,7.2982,7.3105,7.2991,7.271,7.3263,7.3232,7.2894,7.3399,7.3031,7.2154,7.1315,7.1007,7.0968,7.0937,7.0898,7.0898,7.0898,7.0898,7.0898,7.0898,7.0898,7.0898,7.0898,7.0898,7.0898,7.0898,7.0898,7.0898,7.0898,7.0898,7.0898,7.0898,7.0898,7.0898,7.0898,7.0244,6.9436,6.8622,6.7705,6.6865,6.6096,6.5936,6.5904,6.5904,6.5904,6.5904,6.5904,6.5904,6.5904,6.5904,6.5904,6.5904,6.5981,6.5981,6.6365,6.725,6.8007,6.8853,6.9783,7.0514,7.0898,7.0898,7.0898,7.0898,7.0898,7.0898,7.0937,3.4032,3.6818,3.958,4.2083,4.391,4.5819,4.8612,5.0304,5.179,5.3751,5.4975,5.557,5.5202,5.7429,5.9944,6.1737,6.4205,6.6405,6.7888,6.848,6.8994,6.9564,7.0163,7.0913,7.1757,7.1997,7.2343,7.2922,7.2679,7.2496,7.2496,7.2496,7.2496,7.2496,7.2496,7.2496,7.2496,7.2582,7.2624,7.2624,7.2624,7.2709,7.2863,7.2346,7.2156,7.228,7.2112,7.2159,7.2373,7.2833,7.2779,7.2386,7.2042,7.1668,7.136,7.1014,7.0898,7.0898,7.0898,7.0898,7.0898,7.0898,7.0898,7.0898,7.0898,7.0898,7.0898,7.0898,7.0898,7.0898,7.0898,7.0898,7.0898,7.0898,7.0898,7.0898,7.0898,7.0514,7.0167,7.0167,6.9013,6.7975,6.7667,6.6898,6.625,6.5942,6.5904,6.5904,6.5904,6.5904,6.5904,6.5904,6.5904,6.5904,6.5904,6.5904,6.5904,6.5904,6.5904,6.625,6.7058,6.7936,6.8814,6.9667,7.0475,7.0898,7.0898,7.0898,7.0898,7.0898,7.0898,7.1206,3.3751,3.6502,3.9592,4.2049,4.4722,4.7594,5.0602,5.3042,5.5297,5.7443,5.7992,5.8184,5.8445,5.9202,6.0496,6.2514,6.4584,6.6585,6.8521,6.9031,6.9456,7.0146,7.0921,7.1485,7.1702,7.2197,7.2496,7.2496,7.2496,7.2496,7.2496,7.2496,7.2496,7.2496,7.2496,7.251,7.2553,7.2395,7.2346,7.2443,7.2185,7.2276,7.2607,7.1756,7.1453,7.1572,7.1473,7.1557,7.1806,7.2233,7.2141,7.1745,7.1129,7.0898,7.0898,7.0898,7.0898,7.0898,7.0898,7.0898,7.0898,7.0898,7.0898,7.0898,7.0898,7.0898,7.0898,7.0898,7.0898,7.0898,7.0898,7.0898,7.0898,7.0898,7.0898,7.0821,7.0591,7.009,6.9629,6.9353,6.809,6.7096,6.7096,6.6442,6.5904,6.5904,6.5904,6.5904,6.5904,6.5904,6.5904,6.5904,6.5904,6.5904,6.5904,6.5904,6.5904,6.5904,6.5904,6.6134,6.6712,6.7552,6.8398,6.9283,7.009,7.0667,7.0898,7.0898,7.0898,7.0898,7.0898,7.1206,3.5408,3.7268,3.9749,4.2679,4.5162,4.8113,5.2747,5.4413,5.5843,5.8985,5.8719,5.8426,5.9944,5.9564,6.0047,6.3082,6.4895,6.6946,6.988,6.9689,7.0042,7.2226,7.1845,7.1723,7.2438,7.2496,7.2496,7.2496,7.2496,7.2496,7.2496,7.2496,7.2496,7.2496,7.2496,7.2567,7.2709,7.1899,7.1631,7.1889,7.1074,7.1111,7.1852,7.1074,7.0744,7.0896,7.1378,7.132,7.0915,7.1319,7.126,7.0898,7.0898,7.0898,7.0898,7.0898,7.0898,7.0898,7.0898,7.0898,7.0898,7.0898,7.0898,7.0898,7.0898,7.0898,7.0898,7.0898,7.0898,7.0898,7.0898,7.0898,7.0898,7.0898,7.0898,7.0667,6.986,6.9706,6.9436,6.8545,6.7667,6.7096,6.7096,6.6442,6.5904,6.5904,6.5904,6.5904,6.5904,6.5904,6.5904,6.5904,6.5904,6.5904,6.5904,6.5904,6.5904,6.5904,6.5904,6.5904,6.5904,6.6673,6.7513,6.8391,6.9244,7.009,7.0898,7.0898,7.0898,7.0898,7.0898,7.0898,3.4912,3.8002,4.1792,4.3755,4.838,5.3004,5.4907,5.6336,5.8176,6.1508,6.1626,6.1082,6.0978,6.1668,6.253,6.3427,6.5343,6.733,6.926,6.9761,7.0402,7.1578,7.1981,7.2241,7.2467,7.2496,7.2496,7.2496,7.2496,7.2496,7.2496,7.2496,7.2496,7.2496,7.203,7.1807,7.1848,7.1256,7.0996,7.1037,7.0349,7.0436,7.1179,7.0362,7.0016,7.0066,7.0197,7.0182,7.0119,7.0799,7.1007,7.0898,7.0898,7.0898,7.0898,7.0898,7.0898,7.0898,7.0898,7.0898,7.0898,7.0898,7.0898,7.0898,7.0898,7.0898,7.0898,7.0898,7.0898,7.0898,7.0898,7.0898,7.0898,7.0898,7.0898,7.0667,6.986,6.9199,6.8545,6.7667,6.6827,6.625,6.625,6.6051,6.5904,6.5904,6.5904,6.5904,6.5904,6.5904,6.5904,6.5904,6.5904,6.5904,6.5904,6.5904,6.5904,6.5904,6.5904,6.5904,6.5904,6.6673,6.7513,6.8391,6.9244,7.009,7.0898,7.0898,7.0898,7.0898,7.0898,7.0898,3.7686,4.0561,4.3924,4.6902,5.0869,5.4702,5.7379,5.8899,6.0492,6.2912,6.2646,6.2048,6.2186,6.2461,6.3088,6.4262,6.5583,6.71,6.8856,6.949,7.0065,7.0808,7.1275,7.1541,7.1541,7.1541,7.1541,7.1541,7.1541,7.1541,7.1541,7.1541,7.157,7.1626,7.1232,7.107,7.1179,7.0539,7.0248,7.0299,6.9571,6.9496,6.9942,6.9459,6.9236,6.926,6.9553,6.9878,7.023,7.0712,7.0898,7.0898,7.0898,7.0898,7.0898,7.0898,7.0898,7.0898,7.0898,7.0898,7.0898,7.0898,7.0898,7.0898,7.0898,7.0898,7.0898,7.0898,7.0898,7.0898,7.0898,7.0898,7.0898,7.0898,7.0898,7.0591,6.9436,6.8776,6.8045,6.6859,6.6244,6.5904,6.5904,6.5904,6.5904,6.5904,6.5904,6.5904,6.5904,6.5904,6.5904,6.5904,6.5904,6.5904,6.5904,6.5904,6.5904,6.5904,6.5904,6.5904,6.5904,6.6365,6.7013,6.7859,6.8744,6.959,7.0437,7.0744,7.0898,7.0898,7.0898,7.0898,4.2002,4.3944,4.6022,5.1064,5.2785,5.4632,5.9834,6.1657,6.2486,6.3409,6.2496,6.1944,6.3324,6.2496,6.2488,6.518,6.5724,6.6507,6.8615,6.8955,6.9279,7.0003,7.011,7.011,7.011,7.011,7.011,7.011,7.011,7.011,7.011,7.0124,7.0156,7.0293,7.0246,7.0344,7.0593,6.9791,6.9483,6.9571,6.8865,6.8493,6.8493,6.8493,6.8542,6.8648,6.9395,7.0171,7.0898,7.0898,7.0898,7.0898,7.0898,7.0898,7.0898,7.0898,7.0898,7.0898,7.0898,7.0898,7.0898,7.0898,7.0898,7.0898,7.0898,7.0898,7.0898,7.0898,7.0898,7.0898,7.0821,7.0783,7.0783,7.0706,7.0744,7.0321,6.8622,6.8276,6.7814,6.6205,6.5904,6.5904,6.5904,6.5904,6.5904,6.5904,6.5904,6.5904,6.5904,6.5904,6.5904,6.5904,6.5904,6.5904,6.5904,6.5904,6.5904,6.5904,6.5904,6.5904,6.5904,6.5904,6.6288,6.7096,6.7898,6.8737,6.9706,7.0437,7.0821,7.0898,7.0898,7.0898,4.0379,4.3504,4.7338,5.1511,5.5467,5.8839,6.0803,6.1856,6.2667,6.3427,6.3324,6.3186,6.3531,6.3807,6.4173,6.4823,6.5875,6.7006,6.8063,6.8676,6.9279,7.0003,7.011,7.011,7.011,7.011,7.011,7.011,7.011,7.011,7.011,7.0184,7.0266,7.0293,6.988,6.9677,6.9778,6.9063,6.8729,6.8753,6.8568,6.8493,6.8493,6.8493,6.8855,6.9438,6.9616,7.0171,7.0898,7.0898,7.0898,7.0898,7.0898,7.0898,7.0898,7.0898,7.0898,7.0898,7.0898,7.0898,7.0898,7.0898,7.0898,7.0898,7.0898,7.0898,7.0898,7.0898,7.0898,7.0744,7.0129,6.9975,6.9783,6.9084,6.9468,6.9475,6.7744,6.7366,6.7096,6.6096,6.5904,6.5904,6.5904,6.5904,6.5904,6.5904,6.5904,6.5904,6.5904,6.5904,6.5904,6.5904,6.5904,6.5904,6.5904,6.5904,6.5904,6.5904,6.5904,6.5904,6.5904,6.5904,6.6288,6.7096,6.7289,6.8167,6.9706,6.986,7.0283,7.0898,7.0898,7.0898,4.1373,4.4485,4.8011,5.3101,5.7158,6.006,6.0633,6.1358,6.2013,6.2427,6.3082,6.36,6.36,6.391,6.4281,6.4612,6.5583,6.6562,6.7258,6.7954,6.8536,6.8908,6.8949,6.8949,6.8949,6.8949,6.8949,6.8949,6.8949,6.8976,6.9044,6.9111,6.9218,6.9336,6.9072,6.8951,6.9026,6.868,6.8493,6.8493,6.8493,6.8493,6.8506,6.8719,6.9112,6.9711,6.9905,7.0337,7.0898,7.0898,7.0898,7.0898,7.0898,7.0898,7.0898,7.0898,7.0898,7.0898,7.0898,7.0898,7.0898,7.0898,7.0898,7.0898,7.0898,7.0898,7.0898,7.0898,7.0629,7.0244,6.9821,6.9398,6.8859,6.7975,6.8436,6.8706,6.7404,6.7096,6.6865,6.6051,6.5904,6.5904,6.5904,6.5904,6.5904,6.5904,6.5904,6.5904,6.5904,6.5904,6.5904,6.5904,6.5904,6.5904,6.5904,6.5904,6.5904,6.5904,6.5904,6.5904,6.5904,6.5904,6.6096,6.6519,6.6904,6.7558,6.8475,6.9283,6.9937,7.0321,7.0706,7.0898,4.2029,4.532,4.8693,5.4631,5.7827,5.958,5.9771,6.0496,6.1116,6.1116,6.2324,6.3393,6.3393,6.3496,6.3785,6.4358,6.5089,6.5795,6.6419,6.7188,6.77,6.77,6.77,6.77,6.77,6.77,6.77,6.77,6.758,6.7573,6.7679,6.7731,6.786,6.8099,6.8247,6.8383,6.8493,6.8345,6.8308,6.8308,6.8308,6.8308,6.8332,6.8761,6.9255,6.9721,6.9895,7.0256,7.0667,7.0514,7.0475,7.0475,7.0475,7.0552,7.0706,7.0706,7.0706,7.0706,7.0706,7.0706,7.0667,7.0514,7.0667,7.086,7.0552,7.0552,7.0667,7.0514,6.9975,6.9436,6.9283,6.8706,6.7975,6.7096,6.7436,6.7776,6.7058,6.6904,6.6712,6.6019,6.5904,6.5904,6.5904,6.5904,6.5904,6.5904,6.5904,6.5904,6.5904,6.5904,6.5904,6.5904,6.5904,6.5904,6.5904,6.5904,6.5904,6.5904,6.5904,6.5904,6.5904,6.5904,6.5904,6.5904,6.6558,6.6981,6.7096,6.8552,6.9398,6.9706,7.0398,7.0783,3.8215,4.3919,5.0203,5.4236,5.6745,5.8185,5.8202,5.9323,6.0358,6.0358,6.1565,6.2652,6.2652,6.317,6.3637,6.3712,6.477,6.5621,6.5716,6.6881,6.77,6.77,6.77,6.77,6.77,6.77,6.77,6.77,6.7145,6.6856,6.6868,6.7085,6.7222,6.7259,6.8037,6.8481,6.8493,6.7825,6.7453,6.7453,6.7453,6.7453,6.7489,6.8169,6.8944,6.9664,6.8943,6.9098,6.9821,6.9045,6.8737,6.8737,6.8737,6.9206,6.986,6.986,6.986,6.986,6.986,6.986,6.9744,6.8968,6.9706,7.0629,6.9161,6.9244,6.9706,6.893,6.866,6.8391,6.7628,6.7366,6.7058,6.625,6.6167,6.6205,6.6096,6.6051,6.6019,6.5904,6.5904,6.5904,6.5904,6.5904,6.5904,6.5904,6.5904,6.5904,6.5904,6.5904,6.5904,6.5904,6.5904,6.5904,6.5904,6.5904,6.5904,6.5904,6.5904,6.5904,6.5904,6.5904,6.5904,6.5904,6.6019,6.6404,6.7096,6.7327,6.8205,6.9706,6.9821,7.0244,3.9704,4.4968,4.9819,5.3665,5.561,5.672,5.7185,5.8116,5.8909,5.8909,6.0151,6.1323,6.1737,6.2386,6.2858,6.2858,6.3957,6.484,6.484,6.5677,6.6366,6.6366,6.6366,6.6366,6.6366,6.6366,6.6366,6.6366,6.6165,6.606,6.6136,6.631,6.6432,6.6553,6.6947,6.7156,6.7156,6.6785,6.6636,6.6636,6.6636,6.6636,6.666,6.7154,6.7985,6.8944,6.8569,6.86,6.893,6.8545,6.8391,6.8391,6.8391,6.8622,6.8968,6.8968,6.8968,6.8968,6.8968,6.8968,6.8891,6.8507,6.8891,6.9353,6.8622,6.866,6.8891,6.8507,6.8045,6.759,6.7212,6.6789,6.6327,6.5981,6.5904,6.5904,6.5904,6.5904,6.5904,6.5904,6.5904,6.5904,6.5904,6.5904,6.5904,6.5904,6.5904,6.5904,6.5904,6.5904,6.5904,6.5904,6.5904,6.5904,6.5904,6.5904,6.5904,6.5904,6.5904,6.5904,6.5904,6.5904,6.5904,6.5904,6.5904,6.6058,6.6442,6.6865,6.7481,6.8244,6.8744,6.9161,3.9889,4.3992,4.7116,5.1382,5.3613,5.4996,5.5977,5.6943,5.7633,5.7633,5.853,5.9616,6.0532,6.1583,6.237,6.25,6.3468,6.4186,6.4186,6.4821,6.5288,6.5288,6.5288,6.5288,6.5288,6.5288,6.5288,6.5288,6.5196,6.5225,6.5374,6.5446,6.5578,6.5745,6.5968,6.6079,6.6079,6.5893,6.5671,6.5485,6.5671,6.5782,6.5805,6.6245,6.6926,6.7778,6.7883,6.7978,6.8045,6.7853,6.7776,6.7776,6.7776,6.7891,6.809,6.809,6.809,6.809,6.809,6.809,6.8045,6.7814,6.8045,6.8314,6.7891,6.7891,6.8045,6.7814,6.7282,6.6789,6.6789,6.6365,6.5904,6.5904,6.5904,6.5904,6.5904,6.5904,6.5904,6.5904,6.5904,6.5904,6.5904,6.5904,6.5904,6.5904,6.5904,6.5904,6.5904,6.5904,6.5904,6.5904,6.5904,6.5904,6.5904,6.5904,6.5904,6.5904,6.5904,6.5904,6.5904,6.5904,6.5904,6.5904,6.5904,6.5904,6.5904,6.6519,6.6904,6.7135,6.7782,6.8199,3.5689,3.8465,4.1128,4.6349,5.0047,5.2789,5.4287,5.577,5.6874,5.6874,5.6909,5.7399,5.879,6.083,6.2483,6.3053,6.3752,6.4186,6.4186,6.4821,6.5288,6.5288,6.5288,6.5288,6.5288,6.5288,6.5288,6.5288,6.4682,6.4328,6.4475,6.457,6.4737,6.4853,6.5671,6.6079,6.6079,6.5262,6.4482,6.3739,6.4519,6.4853,6.4888,6.5659,6.6074,6.6148,6.644,6.6816,6.7096,6.632,6.6013,6.6013,6.6013,6.6519,6.7173,6.7173,6.7173,6.7173,6.7173,6.7173,6.7058,6.6282,6.7128,6.8084,6.6513,6.6558,6.7019,6.625,6.6013,6.5981,6.5981,6.5936,6.5904,6.5904,6.5904,6.5904,6.5904,6.5904,6.5904,6.5904,6.5904,6.5904,6.5904,6.5904,6.5904,6.5904,6.5904,6.5904,6.5904,6.5904,6.5904,6.5904,6.5904,6.5904,6.5904,6.5904,6.5904,6.5904,6.5904,6.5904,6.5904,6.5904,6.5904,6.5904,6.5904,6.5904,6.5904,6.5936,6.6365,6.7096,6.7135,6.7628,3.3899,3.6694,3.9634,4.3559,4.6955,4.9582,5.0617,5.3168,5.5322,5.5322,5.6419,5.7654,5.8535,5.9789,6.1066,6.2184,6.2881,6.3291,6.3291,6.3546,6.371,6.371,6.371,6.371,6.371,6.371,6.371,6.371,6.3542,6.3493,6.3626,6.3756,6.3884,6.4036,6.4333,6.4482,6.4482,6.4185,6.3888,6.359,6.3888,6.4036,6.407,6.4831,6.5154,6.5189,6.5825,6.6184,6.6327,6.6019,6.5904,6.5904,6.5904,6.6096,6.6327,6.6327,6.6327,6.6327,6.6327,6.6327,6.6288,6.5974,6.632,6.6667,6.609,6.6096,6.6288,6.5981,6.5904,6.5904,6.5904,6.5904,6.5904,6.5904,6.5904,6.5904,6.5904,6.5904,6.5904,6.5904,6.5904,6.5904,6.5904,6.5904,6.5904,6.5904,6.5904,6.5904,6.5904,6.5904,6.5904,6.5904,6.5904,6.5904,6.5904,6.5904,6.5904,6.5904,6.5904,6.5904,6.5904,6.5904,6.5904,6.5904,6.5904,6.5904,6.5904,6.5904,6.6058,6.6327,6.6327,6.6513,3.1599,3.441,3.7718,4.1594,4.401,4.6119,4.882,5.122,5.3118,5.4077,5.5633,5.719,5.8278,5.8954,5.9758,6.1178,6.1724,6.1985,6.1985,6.1985,6.1985,6.1985,6.1985,6.2095,6.2365,6.2426,6.2549,6.2793,6.2966,6.3099,6.322,6.3312,6.3477,6.359,6.359,6.359,6.359,6.359,6.359,6.359,6.359,6.359,6.3624,6.4379,6.4708,6.4751,6.5534,6.5904,6.5904,6.5904,6.5904,6.5904,6.5904,6.5904,6.5904,6.5904,6.5904,6.5904,6.5904,6.5904,6.5904,6.5904,6.5904,6.5904,6.5904,6.5904,6.5904,6.5904,6.5904,6.5904,6.5904,6.5904,6.5904,6.5904,6.5904,6.5904,6.5904,6.5904,6.5904,6.5904,6.5904,6.5904,6.5904,6.5904,6.5904,6.5904,6.5904,6.5935,6.5943,6.5955,6.5984,6.6025,6.6036,6.6003,6.5961,6.5955,6.5958,6.5904,6.5904,6.5904,6.5904,6.5904,6.5904,6.5904,6.5904,6.5904,6.5904,6.5904,6.5904,6.5904,6.5904,6.5904,0.0,0.0,0.0,4.0194,4.1152,4.2571,4.8925,4.9934,5.0259,5.3082,5.438,5.5642,5.78,5.8228,5.8709,6.0078,6.0346,6.0419,6.0419,6.0419,6.0419,6.0419,6.0419,6.0725,6.1496,6.1678,6.2034,6.2707,6.2965,6.3146,6.3109,6.3275,6.344,6.359,6.359,6.359,6.359,6.359,6.359,6.359,6.359,6.359,6.3624,6.4379,6.4708,6.4751,6.5534,6.5904,6.5904,6.5904,6.5904,6.5904,6.5904,6.5904,6.5904,6.5904,6.5904,6.5904,6.5904,6.5904,6.5904,6.5904,6.5904,6.5904,6.5904,6.5904,6.5904,6.5904,6.5904,6.5904,6.5904,6.5904,6.5904,6.5904,6.5904,6.5904,6.5904,6.5904,6.5904,6.5904,6.5904,6.5904,6.5904,6.5904,6.5904,6.5904,6.5904,6.5952,6.6072,6.6103,6.6148,6.6287,6.6307,6.6243,6.6133,6.6118,6.6058,6.589,6.591,6.591,6.5904,6.5904,6.5904,6.5904,6.5904,6.5904,6.5904,6.5904,6.5904,6.5904,6.5904,6.5904,2.865,0.0,0.0,0.0,0.0,0.0,4.2741,4.4965,4.7369,4.9872,5.1382,5.2931,5.5256,5.6539,5.7358,5.7753,5.9269,6.0419,6.0419,6.0491,6.055,6.055,6.062,6.0789,6.101,6.1045,6.1156,6.1342,6.1438,6.1519,6.1584,6.229,6.2963,6.359,6.359,6.359,6.359,6.359,6.359,6.359,6.359,6.359,6.3624,6.4379,6.4708,6.4751,6.5534,6.5904,6.5904,6.5904,6.5904,6.5904,6.5904,6.5904,6.5904,6.5904,6.5904,6.5904,6.5904,6.5904,6.5904,6.5904,6.5904,6.5904,6.5904,6.5904,6.5904,6.5904,6.5904,6.5904,6.5904,6.5904,6.5904,6.5904,6.5904,6.5904,6.5904,6.5904,6.5904,6.5904,6.5904,6.5904,6.5904,6.5904,6.5904,6.5904,6.5904,6.5929,6.5958,6.6047,6.6128,6.6148,6.6238,6.6291,6.6247,6.6243,6.6199,6.6068,6.6052,6.6013,6.591,6.5904,6.5904,6.5904,6.5904,6.5904,6.5904,6.5904,6.5904,6.5904,6.5904,6.5904,3.036,3.2378,3.5245,3.6288,0.0,0.0,4.1764,4.3404,4.5344,4.8629,5.0206,5.1602,5.37,5.5007,5.5904,5.6235,5.7811,5.9094,5.9425,5.9568,5.9626,5.9683,5.974,5.9933,6.0265,6.0348,6.0507,6.0782,6.091,6.1,6.1078,6.1923,6.2625,6.307,6.3405,6.359,6.359,6.359,6.359,6.359,6.359,6.359,6.3613,6.4231,6.4556,6.4743,6.5359,6.5755,6.5904,6.5904,6.5904,6.5904,6.5904,6.5904,6.5904,6.5904,6.5904,6.5904,6.5904,6.5904,6.5904,6.5904,6.5904,6.5904,6.5904,6.5904,6.5904,6.5904,6.5904,6.5904,6.5904,6.5904,6.5904,6.5904,6.5904,6.5904,6.5904,6.5904,6.5904,6.5904,6.5904,6.5904,6.5904,6.5904,6.5904,6.5904,6.5958,6.598,6.6079,6.6194,6.6338,6.6404,6.6447,6.6507,6.641,6.6348,6.6238,6.6118,6.6058,6.5978,6.591,6.5904,6.5904,6.5904,6.5904,6.5904,6.5904,6.5904,6.5904,6.5904,6.5904,6.5904,3.355,3.4521,3.6707,3.9479,3.9058,0.0,4.3464,4.3681,4.4061,4.7964,4.938,5.0398,5.2076,5.3115,5.3959,5.4667,5.5783,5.6963,5.8031,5.8201,5.8294,5.8404,5.8426,5.8695,5.9435,5.9608,5.9941,6.0532,6.0796,6.0964,6.1038,6.1733,6.2179,6.2253,6.3033,6.3405,6.333,6.3516,6.3553,6.3479,6.3553,6.359,6.3602,6.4004,6.4369,6.4725,6.5113,6.5513,6.5904,6.5904,6.5904,6.5904,6.5904,6.5904,6.5904,6.5904,6.5904,6.5904,6.5904,6.5904,6.5904,6.5904,6.5904,6.5904,6.5904,6.5904,6.5904,6.5904,6.5904,6.5904,6.5904,6.5904,6.5904,6.5904,6.5904,6.5904,6.5904,6.5904,6.5904,6.5904,6.5904,6.5904,6.5904,6.5904,6.5904,6.5904,6.5997,6.6133,6.6263,6.6471,6.6629,6.6624,6.6636,6.6618,6.65,6.6318,6.6171,6.6119,6.5991,6.5921,6.5904,6.5904,6.5904,6.5904,6.5904,6.5904,6.5904,6.5904,6.5904,6.5904,6.5904,6.5904,3.7508,3.9254,4.1496,4.0327,4.2406,0.0,4.1098,4.1948,4.3465,4.3672,4.3864,4.4635,4.6911,4.8526,4.9544,4.9701,5.2142,5.5012,5.781,5.8345,5.8465,5.8486,5.8572,5.8699,5.8847,5.8905,5.898,5.9107,5.9149,5.9467,6.0136,6.0285,6.0693,6.141,6.2216,6.2328,6.1659,6.2959,6.3256,6.2625,6.3293,6.359,6.3602,6.4004,6.4369,6.4725,6.5113,6.5513,6.5904,6.5904,6.5904,6.5904,6.5904,6.5904,6.5904,6.5904,6.5904,6.5904,6.5904,6.5904,6.5904,6.5904,6.5904,6.5904,6.5904,6.5904,6.5904,6.5904,6.5904,6.5904,6.5904,6.5904,6.5904,6.5904,6.5904,6.5904,6.5904,6.5904,6.5904,6.5904,6.5904,6.5904,6.5904,6.5904,6.5904,6.5904,6.5997,6.6123,6.6124,6.6408,6.6327,6.5647,6.5749,6.5814,6.5803,6.5749,6.5906,6.6244,6.623,6.6148,6.5916,6.5904,6.5904,6.5904,6.5904,6.5904,6.5904,6.5904,6.5904,6.5904,6.5904,6.5904,4.0961,4.1825,4.3314,4.2766,4.372,0.0,0.0,4.2167,4.2763,4.437,4.3415,4.3167,4.5984,4.6828,4.7232,4.7636,5.0194,5.2712,5.4422,5.6193,5.7317,5.738,5.7468,5.7658,5.8056,5.8093,5.8279,5.865,5.8687,5.8873,5.9282,5.969,6.0099,6.0545,6.1362,6.1622,6.1187,6.1993,6.2179,6.1819,6.2216,6.2625,6.3019,6.3378,6.3955,6.4725,6.5113,6.5513,6.5904,6.5904,6.5904,6.5904,6.5904,6.5904,6.5904,6.5904,6.5904,6.5904,6.5904,6.5904,6.5904,6.5904,6.5904,6.5904,6.5904,6.5904,6.5904,6.5904,6.5904,6.5904,6.5904,6.5904,6.5904,6.5904,6.5904,6.5788,6.5359,6.5243,6.5243,6.5243,6.4897,6.4897,6.5743,6.5904,6.5909,6.5996,6.578,6.5627,6.5677,6.5559,6.5299,6.4833,6.4904,6.4961,6.4961,6.4854,6.4909,6.5142,6.5033,6.5083,6.5357,6.5273,6.5474,6.5897,6.5904,6.5904,6.5904,6.5904,6.5904,6.5904,6.5904,6.5904,4.4679,4.4648,4.541,4.5606,4.5275,4.477,0.0,0.0,0.0,4.5388,4.3892,4.2865,4.5461,4.5397,4.5186,4.5828,4.808,4.9739,4.9704,5.2443,5.4699,5.5307,5.5614,5.606,5.6719,5.6655,5.7016,5.813,5.7945,5.7945,5.8427,5.9245,5.9653,5.9653,6.0508,6.0879,6.073,6.1038,6.1113,6.0964,6.1102,6.1558,6.2164,6.2507,6.3314,6.4506,6.4885,6.536,6.5904,6.5904,6.5904,6.5904,6.5904,6.5904,6.5904,6.5904,6.5904,6.5904,6.5904,6.5904,6.5904,6.5904,6.5904,6.5904,6.5904,6.5904,6.5904,6.5904,6.5904,6.5904,6.5904,6.5904,6.5904,6.5904,6.5782,6.5474,6.4743,6.4474,6.4359,6.4359,6.3775,6.3814,6.5397,6.5513,6.5451,6.5608,6.5187,6.4888,6.5019,6.4608,6.4259,6.4064,6.4064,6.4064,6.4064,6.3895,6.3843,6.3977,6.3787,6.3937,6.4551,6.4606,6.5013,6.5859,6.5904,6.5904,6.5904,6.5904,6.5904,6.5904,6.5904,6.5904,4.9584,5.0497,5.1266,4.7779,4.9475,5.0375,4.4039,0.0,4.4672,4.2278,0.0,4.1352,4.1719,0.0,0.0,4.1764,4.3991,4.5446,4.4716,4.696,4.9467,5.1676,5.3237,5.4128,5.4203,5.3571,5.4128,5.6395,5.5206,5.5317,5.7499,5.839,5.8836,5.8836,5.9616,5.969,5.8985,6.0481,6.0805,6.0062,6.0842,6.125,6.1346,6.1674,6.2476,6.3643,6.4008,6.4817,6.5904,6.5904,6.5904,6.5904,6.5904,6.5904,6.5904,6.5904,6.5904,6.5904,6.5904,6.5904,6.5904,6.5904,6.5904,6.5904,6.5904,6.5904,6.5904,6.5904,6.5904,6.5904,6.5904,6.5904,6.5904,6.5904,6.532,6.4705,6.4628,6.4006,6.3468,6.3468,6.3352,6.3622,6.4589,6.4128,6.3673,6.3863,6.3912,6.3997,6.412,6.4257,6.3985,6.3243,6.3164,6.3164,6.3164,6.3119,6.3363,6.3943,6.3852,6.3769,6.3748,6.4297,6.5013,6.5859,6.5904,6.5904,6.5904,6.5904,6.5904,6.5904,6.5904,6.5904,5.0482,5.1179,5.1867,4.9224,4.9481,4.9324,4.5296,4.4085,4.3828,4.3864,0.0,0.0,0.0,0.0,0.0,0.0,4.2459,4.3045,4.1817,4.3474,4.5712,4.8259,4.9559,5.0822,5.2271,5.2531,5.3051,5.4091,5.3487,5.398,5.5939,5.7276,5.8205,5.8687,5.9022,5.9022,5.8687,5.9393,5.9579,5.9207,5.9579,5.9988,6.0455,6.1037,6.1833,6.277,6.3363,6.3898,6.4397,6.4397,6.4705,6.5166,6.5166,6.5436,6.5904,6.5904,6.5904,6.5904,6.5904,6.5904,6.5904,6.5904,6.5904,6.5904,6.5904,6.5904,6.5904,6.5904,6.5551,6.5166,6.5166,6.4782,6.4397,6.4397,6.4128,6.3705,6.3243,6.2858,6.2589,6.2589,6.2276,6.2253,6.3102,6.3373,6.3564,6.3817,6.344,6.3211,6.3386,6.3032,6.2657,6.2265,6.2265,6.2265,6.2265,6.2265,6.2372,6.2654,6.2995,6.3069,6.2863,6.4038,6.4849,6.5128,6.5628,6.5904,6.5904,6.5904,6.5904,6.5904,6.5904,6.5904,5.1719,5.2086,5.2391,4.9858,4.894,4.8049,4.5773,4.4415,4.3938,4.5002,4.3892,0.0,0.0,0.0,4.136,4.114,0.0,4.1538,3.9992,4.1089,4.2766,4.461,4.5918,4.7553,4.9856,4.9968,5.0302,5.1193,5.1045,5.1936,5.423,5.6125,5.7546,5.8353,5.8576,5.8687,5.8687,5.8687,5.8687,5.8687,5.8687,5.9047,5.975,6.0361,6.1164,6.2037,6.2694,6.3083,6.3314,6.3314,6.366,6.4282,6.4512,6.4859,6.5243,6.5705,6.5904,6.5904,6.5904,6.5904,6.5904,6.5904,6.5743,6.5551,6.5551,6.5397,6.5205,6.5205,6.4743,6.4237,6.4237,6.3775,6.3314,6.3314,6.3121,6.282,6.221,6.1955,6.1808,6.1808,6.1408,6.129,6.1956,6.2543,6.304,6.3286,6.2771,6.2457,6.261,6.2109,6.1719,6.1719,6.1719,6.1719,6.1719,6.1719,6.1674,6.1657,6.2108,6.2367,6.2366,6.351,6.4226,6.4307,6.4962,6.5356,6.5551,6.5551,6.5673,6.5904,6.5904,6.5904,5.4708,5.4876,5.4337,4.9554,4.894,4.8509,4.4497,4.5324,4.6315,4.4057,4.5369,4.6205,4.3947,4.2837,4.2029,4.125,4.1212,0.0,0.0,3.9807,4.0501,4.0576,4.2686,4.4804,4.6475,4.4506,4.4432,4.7627,4.7144,4.8444,5.2457,5.502,5.6729,5.7509,5.8279,5.8687,5.8687,5.8687,5.8687,5.8687,5.8687,5.8875,5.9243,5.9643,6.0456,6.153,6.194,6.2589,6.3314,6.3314,6.3314,6.3429,6.4282,6.4089,6.3583,6.5282,6.5904,6.5904,6.5904,6.5904,6.5904,6.5904,6.532,6.4628,6.4628,6.4045,6.3391,6.3391,6.3352,6.3352,6.3352,6.3314,6.3314,6.3314,6.2704,6.2133,6.2095,6.1543,6.1026,6.1026,6.1108,6.1266,6.1502,6.1388,6.135,6.1551,6.1568,6.1601,6.1711,6.1719,6.1719,6.1719,6.1719,6.1719,6.1719,6.1719,6.1655,6.1502,6.1532,6.1826,6.2454,6.2563,6.2912,6.3618,6.3651,6.3973,6.4628,6.4628,6.5089,6.5904,6.5904,6.5904,5.5328,5.5794,5.55,5.1683,5.0582,4.9444,4.5892,4.6131,4.6425,4.3983,4.5434,4.6351,4.3947,4.2837,4.2046,4.1295,4.0762,3.9895,0.0,3.8423,3.8871,3.9484,4.172,4.3429,4.3986,4.328,4.3466,4.5138,4.5547,4.7256,5.0739,5.3784,5.605,5.7462,5.8279,5.8687,5.8687,5.8687,5.8687,5.8698,5.8908,5.9074,5.9234,5.9852,6.0354,6.0735,6.1095,6.1396,6.1666,6.1666,6.1973,6.2551,6.2826,6.3089,6.3429,6.4628,6.4666,6.4275,6.4859,6.5436,6.5782,6.5243,6.4859,6.4474,6.3891,6.3545,6.3314,6.3314,6.2935,6.2518,6.2518,6.2089,6.1666,6.1666,6.1435,6.1251,6.1366,6.1181,6.1039,6.1124,6.1269,6.1409,6.1486,6.1515,6.1543,6.1607,6.161,6.1658,6.1677,6.1719,6.1719,6.1719,6.1719,6.1719,6.1719,6.1719,6.1672,6.1651,6.161,6.1628,6.1621,6.2186,6.2521,6.2612,6.3135,6.3513,6.3737,6.3737,6.3891,6.416,6.416,6.4782,5.6099,5.6418,5.6113,5.3151,5.205,5.0719,4.7131,4.7416,4.7709,4.5296,4.6021,4.6902,4.6214,4.4037,4.2381,4.2476,4.1109,3.9607,0.0,3.8215,3.8463,3.9038,4.0494,4.1609,4.1906,4.1163,4.146,4.3429,4.3838,4.5509,4.9076,5.2633,5.5196,5.657,5.7982,5.8687,5.8687,5.8805,5.8885,5.8885,5.9234,5.9485,5.9593,6.0075,6.0356,6.0501,6.0716,6.0787,6.0787,6.0787,6.1133,6.1672,6.1979,6.2249,6.2545,6.3705,6.3775,6.3391,6.3929,6.4512,6.4897,6.4314,6.3935,6.3628,6.3051,6.2666,6.2397,6.2397,6.205,6.1633,6.1633,6.121,6.0787,6.0787,6.085,6.0871,6.0969,6.1105,6.1185,6.1285,6.1435,6.1576,6.1576,6.1655,6.1719,6.1719,6.1719,6.1719,6.1719,6.1719,6.1719,6.1719,6.1719,6.1719,6.1719,6.1719,6.1719,6.1719,6.1719,6.1605,6.1373,6.1864,6.2036,6.177,6.226,6.2594,6.2858,6.2858,6.3006,6.3314,6.3314,6.3891]}]]